[[{"header":{"parameterUnit":"m.s-1","parameterCategory":1,"la1":30.6,"la2":28.766,"lo1":-90.7593,"lo2":-88.6598,"dy":0.0162,"dx":0.0183,"nx":116,"ny":114,"refTime":"2024-05-05T12:00:00:Z","depth":0,"parameterNumber":2,"parameterNumberName":"U-component_of_WINDS"},"data":[0.0,0.0,0.0,0.0,0.0,0.0,0.0,0.0,0.0,0.0,0.0,0.0,0.0,0.0,0.0,0.0,0.0,0.0,0.0,0.0,0.0,0.0,0.0,0.0,0.0,0.0,0.0,0.0,0.0,0.0,0.0,0.0,0.0,0.0,0.0,0.0,0.0,0.0,0.0,0.0,0.0,0.0,0.0,0.0,0.0,0.0,0.0,0.0,0.0,0.0,0.0,0.0,0.0,0.0,0.0,0.0,0.0,0.0,0.0,0.0,0.0,0.0,0.0,0.0,0.0,0.0,0.0,0.0,0.0,0.0,0.0,0.0,0.0,0.0,0.0,0.0,0.0,0.0,0.0,0.0,0.0,0.0,0.0,0.0,0.0,0.0,0.0,0.0,0.0,0.0,0.0,0.0,0.0,0.0,0.0,0.0,0.0,0.0,0.0,0.0,0.0,0.0,0.0,0.0,0.0,0.0,0.0,0.0,0.0,0.0,0.0,0.0,0.0,0.0,0.0,0.0,0.0,0.0,0.0,0.0,0.0,0.0,0.0,0.0,0.0,0.0,0.0,0.0,0.0,0.0,0.0,0.0,0.0,0.0,0.0,0.0,0.0,0.0,0.0,0.0,0.0,0.0,0.0,0.0,0.0,0.0,0.0,0.0,0.0,0.0,0.0,0.0,0.0,0.0,0.0,0.0,0.0,0.0,0.0,0.0,0.0,0.0,0.0,0.0,0.0,0.0,0.0,0.0,0.0,0.0,0.0,0.0,0.0,0.0,0.0,0.0,0.0,0.0,0.0,0.0,0.0,0.0,0.0,0.0,0.0,0.0,0.0,0.0,0.0,0.0,0.0,0.0,0.0,0.0,0.0,0.0,0.0,0.0,0.0,0.0,0.0,0.0,0.0,0.0,0.0,0.0,0.0,0.0,0.0,0.0,0.0,0.0,0.0,0.0,0.0,0.0,0.0,0.0,0.0,0.0,0.0,0.0,0.0,0.0,0.0,0.0,0.0,0.0,0.0,0.0,0.0,0.0,0.0,0.0,0.0,0.0,0.0,0.0,0.0,0.0,0.0,0.0,0.0,0.0,0.0,0.0,0.0,0.0,0.0,0.0,0.0,0.0,0.0,0.0,0.0,0.0,0.0,0.0,0.0,0.0,0.0,0.0,0.0,0.0,0.0,0.0,0.0,0.0,0.0,0.0,0.0,0.0,0.0,0.0,0.0,0.0,0.0,0.0,0.0,0.0,0.0,0.0,0.0,0.0,0.0,0.0,0.0,0.0,0.0,0.0,0.0,0.0,0.0,0.0,0.0,0.0,0.0,0.0,0.0,0.0,0.0,0.0,0.0,0.0,0.0,0.0,0.0,0.0,0.0,0.0,0.0,0.0,0.0,0.0,0.0,0.0,0.0,0.0,0.0,0.0,0.0,0.0,0.0,0.0,0.0,0.0,0.0,0.0,0.0,0.0,0.0,0.0,0.0,0.0,0.0,0.0,0.0,0.0,0.0,0.0,0.0,0.0,0.0,0.0,0.0,0.0,0.0,0.0,0.0,0.0,0.0,0.0,0.0,0.0,0.0,0.0,0.0,0.0,0.0,0.0,0.0,0.0,0.0,0.0,0.0,0.0,0.0,0.0,0.0,0.0,0.0,0.0,0.0,0.0,0.0,0.0,0.0,0.0,0.0,0.0,0.0,0.0,0.0,0.0,0.0,0.0,0.0,0.0,0.0,0.0,0.0,0.0,0.0,0.0,0.0,0.0,0.0,0.0,0.0,0.0,0.0,0.0,0.0,0.0,0.0,0.0,0.0,0.0,0.0,0.0,0.0,0.0,0.0,0.0,0.0,0.0,0.0,0.0,0.0,0.0,0.0,0.0,0.0,0.0,0.0,0.0,0.0,0.0,0.0,0.0,0.0,0.0,0.0,0.0,0.0,0.0,0.0,0.0,0.0,0.0,0.0,0.0,0.0,0.0,0.0,0.0,0.0,0.0,0.0,0.0,0.0,0.0,0.0,0.0,0.0,0.0,0.0,0.0,0.0,0.0,0.0,0.0,0.0,0.0,0.0,0.0,0.0,0.0,0.0,0.0,0.0,0.0,0.0,0.0,0.0,0.0,0.0,0.0,0.0,0.0,0.0,0.0,0.0,0.0,0.0,0.0,0.0,0.0,0.0,0.0,0.0,0.0,0.0,0.0,0.0,0.0,0.0,0.0,0.0,0.0,0.0,0.0,0.0,0.0,0.0,0.0,0.0,0.0,0.0,0.0,0.0,0.0,0.0,0.0,0.0,0.0,0.0,0.0,0.0,0.0,0.0,0.0,0.0,0.0,0.0,0.0,0.0,0.0,0.0,0.0,0.0,0.0,0.0,0.0,0.0,0.0,0.0,0.0,0.0,0.0,0.0,0.0,0.0,0.0,0.0,0.0,0.0,0.0,0.0,0.0,0.0,0.0,0.0,0.0,0.0,0.0,0.0,0.0,0.0,0.0,0.0,0.0,0.0,0.0,0.0,0.0,0.0,0.0,0.0,0.0,0.0,0.0,0.0,0.0,0.0,0.0,0.0,0.0,0.0,0.0,0.0,0.0,0.0,0.0,0.0,0.0,0.0,0.0,0.0,0.0,0.0,0.0,0.0,0.0,0.0,0.0,0.0,0.0,0.0,0.0,0.0,0.0,0.0,0.0,0.0,0.0,0.0,0.0,0.0,0.0,0.0,0.0,0.0,0.0,0.0,0.0,0.0,0.0,0.0,0.0,0.0,0.0,0.0,0.0,0.0,0.0,0.0,0.0,0.0,0.0,0.0,0.0,0.0,0.0,0.0,0.0,0.0,0.0,0.0,0.0,0.0,0.0,0.0,0.0,0.0,0.0,0.0,0.0,0.0,0.0,0.0,0.0,0.0,0.0,0.0,0.0,0.0,0.0,0.0,0.0,0.0,0.0,0.0,0.0,0.0,0.0,0.0,0.0,0.0,0.0,0.0,0.0,0.0,0.0,0.0,0.0,0.0,0.0,0.0,0.0,0.0,0.0,0.0,0.0,0.0,0.0,0.0,0.0,0.0,0.0,0.0,0.0,0.0,0.0,0.0,0.0,0.0,0.0,0.0,0.0,0.0,0.0,0.0,0.0,0.0,0.0,0.0,0.0,0.0,0.0,0.0,0.0,0.0,0.0,0.0,0.0,0.0,0.0,0.0,0.0,0.0,0.0,0.0,0.0,0.0,0.0,0.0,0.0,0.0,0.0,0.0,0.0,0.0,0.0,0.0,0.0,0.0,0.0,0.0,0.0,0.0,0.0,0.0,0.0,0.0,0.0,0.0,0.0,0.0,0.0,0.0,0.0,0.0,0.0,0.0,0.0,0.0,0.0,0.0,0.0,0.0,0.0,0.0,0.0,0.0,0.0,0.0,0.0,0.0,0.0,0.0,0.0,0.0,0.0,0.0,0.0,0.0,0.0,0.0,0.0,0.0,0.0,0.0,0.0,0.0,0.0,0.0,0.0,0.0,0.0,0.0,0.0,0.0,0.0,0.0,0.0,0.0,0.0,0.0,0.0,0.0,0.0,0.0,0.0,0.0,0.0,0.0,0.0,0.0,0.0,0.0,0.0,0.0,0.0,0.0,0.0,0.0,0.0,0.0,0.0,0.0,0.0,0.0,0.0,0.0,0.0,0.0,0.0,0.0,0.0,0.0,0.0,0.0,0.0,0.0,0.0,0.0,0.0,0.0,0.0,0.0,0.0,0.0,0.0,0.0,0.0,0.0,0.0,0.0,0.0,0.0,0.0,0.0,0.0,0.0,0.0,0.0,0.0,0.0,0.0,0.0,0.0,0.0,0.0,0.0,0.0,0.0,0.0,0.0,0.0,0.0,0.0,0.0,0.0,0.0,0.0,0.0,0.0,0.0,0.0,0.0,0.0,0.0,0.0,0.0,0.0,0.0,0.0,0.0,0.0,0.0,0.0,0.0,0.0,0.0,0.0,0.0,0.0,0.0,0.0,0.0,0.0,0.0,0.0,0.0,0.0,0.0,0.0,0.0,0.0,0.0,0.0,0.0,0.0,0.0,0.0,0.0,0.0,0.0,0.0,0.0,0.0,0.0,0.0,0.0,0.0,0.0,0.0,0.0,0.0,0.0,0.0,0.0,0.0,0.0,0.0,0.0,0.0,0.0,0.0,0.0,0.0,0.0,0.0,0.0,0.0,0.0,0.0,0.0,0.0,0.0,0.0,0.0,0.0,0.0,0.0,0.0,0.0,0.0,0.0,0.0,0.0,0.0,0.0,0.0,0.0,0.0,0.0,0.0,0.0,0.0,0.0,0.0,0.0,0.0,0.0,0.0,0.0,0.0,0.0,0.0,0.0,0.0,0.0,0.0,0.0,0.0,0.0,0.0,0.0,0.0,0.0,0.0,0.0,0.0,0.0,0.0,0.0,0.0,0.0,0.0,0.0,0.0,0.0,0.0,0.0,0.0,0.0,0.0,0.0,0.0,0.0,0.0,0.0,0.0,0.0,0.0,0.0,0.0,0.0,0.0,0.0,0.0,0.0,0.0,0.0,0.0,0.0,0.0,0.0,0.0,0.0,0.0,0.0,0.0,0.0,0.0,0.0,0.0,0.0,0.0,0.0,0.0,0.0,0.0,0.0,0.0,0.0,0.0,0.0,0.0,0.0,0.0,0.0,0.0,0.0,0.0,0.0,0.0,0.0,0.0,0.0,0.0,0.0,0.0,0.0,0.0,0.0,0.0,0.0,0.0,0.0,0.0,0.0,0.0,0.0,0.0,0.0,0.0,0.0,0.0,0.0,0.0,0.0,0.0,0.0,0.0,0.0,0.0,0.0,0.0,0.0,0.0,0.0,0.0,0.0,0.0,0.0,0.0,0.0,0.0,0.0,0.0,0.0,0.0,0.0,0.0,0.0,0.0,0.0,0.0,0.0,0.0,0.0,0.0,0.0,0.0,0.0,0.0,0.0,0.0,0.0,0.0,0.0,0.0,0.0,0.0,0.0,0.0,0.0,0.0,0.0,0.0,0.0,0.0,0.0,0.0,0.0,0.0,0.0,0.0,0.0,0.0,0.0,0.0,0.0,0.0,0.0,0.0,0.0,0.0,0.0,0.0,0.0,0.0,0.0,0.0,0.0,0.0,0.0,0.0,0.0,0.0,0.0,0.0,0.0,0.0,0.0,0.0,0.0,0.0,0.0,0.0,0.0,0.0,0.0,0.0,0.0,0.0,0.0,0.0,0.0,0.0,0.0,0.0,0.0,0.0,0.0,0.0,0.0,0.0,0.0,0.0,0.0,0.0,0.0,0.0,0.0,0.0,0.0,0.0,0.0,0.0,0.0,0.0,0.0,0.0,0.0,0.0,0.0,0.0,0.0,0.0,0.0,0.0,0.0,0.0,0.0,0.0,0.0,0.0,0.0,0.0,0.0,0.0,0.0,0.0,0.0,0.0,0.0,0.0,0.0,0.0,0.0,0.0,0.0,0.0,0.0,0.0,0.0,0.0,0.0,0.0,0.0,0.0,0.0,0.0,0.0,0.0,0.0,0.0,0.0,0.0,0.0,0.0,0.0,0.0,0.0,0.0,0.0,0.0,0.0,0.0,0.0,0.0,0.0,0.0,0.0,0.0,0.0,0.0,0.0,0.0,0.0,0.0,0.0,0.0,0.0,0.0,0.0,0.0,0.0,0.0,0.0,0.0,0.0,0.0,0.0,0.0,0.0,0.0,0.0,0.0,0.0,0.0,0.0,0.0,0.0,0.0,0.0,0.0,0.0,0.0,0.0,0.0,0.0,0.0,0.0,0.0,0.0,0.0,0.0,0.0,0.0,0.0,0.0,0.0,0.0,0.0,0.0,0.0,0.0,0.0,0.0,0.0,0.0,0.0,0.0,0.0,0.0,0.0,0.0,0.0,0.0,0.0,0.0,0.0,0.0,0.0,0.0,0.0,0.0,0.0,0.0,0.0,0.0,0.0,0.0,0.0,0.0,0.0,0.0,0.0,0.0,0.0,0.0,0.0,0.0,0.0,0.0,0.0,0.0,0.0,0.0,0.0,0.0,0.0,0.0,0.0,0.0,0.0,0.0,0.0,0.0,0.0,0.0,0.0,0.0,0.0,0.0,3.6431,0.0,0.0,0.0,0.0,0.0,0.0,0.0,0.0,0.0,0.0,0.0,0.0,0.0,0.0,0.0,0.0,0.0,0.0,0.0,0.0,0.0,0.0,0.0,0.0,2.048,2.0709,2.0709,2.1473,2.197,2.1998,0.0,0.0,0.0,0.0,0.0,2.4369,2.4369,2.4598,2.5018,2.5475,2.5437,2.5018,2.5041,2.4186,2.2651,0.0,0.0,0.0,0.0,0.0,0.0,0.0,0.0,0.0,0.0,0.0,0.0,0.0,0.0,0.0,0.0,0.0,0.0,0.0,0.0,0.0,0.0,0.0,0.0,0.0,0.0,0.0,0.0,0.0,0.0,0.0,0.0,0.0,0.0,0.0,0.0,0.0,0.0,0.0,0.0,0.0,0.0,0.0,0.0,0.0,0.0,0.0,0.0,0.0,0.0,0.0,0.0,0.0,0.0,0.0,0.0,0.0,0.0,0.0,0.0,0.0,0.0,0.0,0.0,0.0,0.0,0.0,0.0,0.0,0.0,0.0,3.8181,0.0,0.0,0.0,0.0,0.0,0.0,0.0,0.0,0.0,0.0,0.0,0.0,0.0,0.0,0.0,0.0,0.0,0.0,0.0,0.0,0.0,2.0155,2.0308,2.0967,2.1425,2.1578,2.2342,2.2827,2.2806,2.3747,2.4307,2.4245,2.5082,2.5844,2.6529,2.6529,2.6871,2.7594,2.7747,2.7899,2.8051,2.8051,2.6479,2.3667,2.3515,0.0,0.0,0.0,0.0,0.0,0.0,0.0,0.0,0.0,0.0,0.0,0.0,0.0,0.0,0.0,0.0,0.0,0.0,0.0,0.0,0.0,0.0,0.0,0.0,0.0,0.0,0.0,0.0,0.0,0.0,0.0,0.0,0.0,0.0,0.0,0.0,0.0,0.0,0.0,0.0,0.0,0.0,0.0,0.0,0.0,0.0,0.0,0.0,0.0,0.0,0.0,0.0,0.0,0.0,0.0,0.0,0.0,0.0,0.0,0.0,0.0,0.0,0.0,4.5273,4.5686,4.6358,4.6345,4.6345,4.619,4.3361,4.1889,4.1474,0.0,0.0,0.0,0.0,0.0,0.0,0.0,0.0,0.0,0.0,0.0,0.0,0.0,0.0,0.0,0.0,0.0,0.0,0.0,0.0,2.0297,2.1058,2.1249,2.1592,2.2293,2.3141,2.3648,2.3636,2.512,2.5996,2.5958,2.6833,2.7328,2.7442,2.7442,2.748,2.7594,2.8303,2.9026,2.9749,2.9749,2.9117,2.7937,2.7252,2.6123,2.4676,0.0,0.0,0.0,0.0,0.0,0.0,0.0,0.0,0.0,0.0,0.0,0.0,0.0,0.0,0.0,0.0,0.0,0.0,0.0,0.0,0.0,0.0,0.0,0.0,0.0,0.0,0.0,0.0,0.0,0.0,0.0,0.0,0.0,0.0,0.0,0.0,0.0,0.0,0.0,0.0,0.0,2.9157,3.0131,0.0,0.0,0.0,0.0,0.0,0.0,0.0,0.0,0.0,0.0,0.0,0.0,0.0,4.4459,4.5415,4.6151,4.6629,4.6888,4.7572,4.7984,4.8062,4.8072,4.8058,4.8058,4.7594,0.0,4.4187,4.4187,0.0,0.0,0.0,0.0,0.0,0.0,0.0,0.0,0.0,0.0,0.0,0.0,0.0,0.0,0.0,0.0,0.0,0.0,0.0,0.0,0.0,2.1733,2.2342,2.3168,2.4017,2.4727,2.5171,2.5893,2.6488,2.6968,2.7348,2.7979,2.889,2.889,2.9345,3.0295,3.0636,3.1016,3.1396,3.1396,3.1206,3.0826,3.0446,2.8867,2.6453,2.6453,0.0,0.0,0.0,0.0,0.0,0.0,0.0,0.0,0.0,0.0,0.0,0.0,0.0,0.0,0.0,0.0,0.0,0.0,0.0,0.0,0.0,0.0,0.0,0.0,0.0,0.0,0.0,0.0,0.0,0.0,0.0,0.0,0.0,0.0,0.0,0.0,0.0,0.0,0.0,3.0114,3.1767,3.256,3.4206,3.5609,0.0,0.0,0.0,0.0,0.0,0.0,0.0,0.0,0.0,4.5491,4.5891,4.6684,4.8029,4.843,4.9064,5.0022,5.0371,5.0767,5.1199,5.1222,5.1206,5.1134,5.1134,5.0262,4.8748,4.7361,4.6267,4.5454,0.0,0.0,0.0,0.0,4.3349,4.2884,0.0,0.0,0.0,0.0,0.0,0.0,0.0,0.0,0.0,0.0,0.0,0.0,2.1521,2.2357,2.3194,2.403,2.4905,2.5652,2.6233,2.6688,2.7281,2.8101,2.8328,2.9109,3.0495,3.076,3.1538,3.3014,3.3242,3.345,3.3639,3.3639,3.3526,3.3299,3.3299,3.1535,2.8502,2.8274,2.7704,2.683,0.0,0.0,0.0,0.0,0.0,0.0,0.0,0.0,0.0,0.0,0.0,0.0,0.0,0.0,0.0,0.0,0.0,0.0,0.0,0.0,0.0,0.0,0.0,0.0,0.0,0.0,0.0,0.0,0.0,0.0,0.0,0.0,0.0,0.0,0.0,0.0,0.0,3.2756,3.4091,3.5145,3.6779,3.8182,0.0,0.0,0.0,0.0,0.0,0.0,4.5247,4.5492,4.6344,4.8102,4.8121,4.8887,5.0581,5.0604,5.1261,5.2492,5.2492,5.2807,5.3374,5.3356,5.3338,5.332,5.332,5.2972,5.2239,5.0185,4.8825,4.8013,4.782,4.7356,4.683,4.6588,4.6098,4.557,0.0,0.0,0.0,0.0,0.0,0.0,0.0,0.0,0.0,0.0,0.0,2.1453,2.2336,2.3171,2.4005,2.4877,2.5674,2.6167,2.6205,2.7706,2.8957,2.9737,3.0587,3.1421,3.2255,3.3034,3.3847,3.4697,3.545,3.626,3.7052,3.7052,3.6599,3.5807,3.5807,3.4055,3.0966,3.0132,2.9336,2.8502,2.7721,0.0,0.0,0.0,0.0,0.0,0.0,0.0,0.0,0.0,0.0,0.0,0.0,0.0,0.0,0.0,0.0,0.0,0.0,0.0,0.0,0.0,0.0,0.0,0.0,0.0,0.0,0.0,0.0,0.0,0.0,0.0,0.0,0.0,0.0,0.0,0.0,0.0,0.0,3.772,3.9392,0.0,0.0,0.0,0.0,4.439,4.5902,4.6897,4.696,4.7773,4.898,5.067,5.072,5.1486,5.3104,5.3133,5.3177,5.3254,5.3254,5.3275,5.3299,5.3321,5.3321,5.332,5.332,5.3281,5.3165,5.2278,5.1391,5.0542,4.9693,4.9401,4.9335,4.8485,4.8207,4.8082,0.0,0.0,0.0,0.0,0.0,1.6496,1.7369,1.8193,1.9027,1.9871,2.0695,2.1528,2.24,2.3234,2.4257,2.5674,2.6053,2.6645,2.7744,2.885,2.9855,3.065,3.1485,3.2562,3.3922,3.4733,3.5564,3.6394,3.6713,3.7014,3.7316,3.7316,3.7128,3.6864,3.6864,3.6205,3.498,3.3053,3.1769,3.09,2.9519,2.8612,0.0,0.0,0.0,0.0,0.0,0.0,0.0,0.0,0.0,0.0,0.0,0.0,0.0,0.0,0.0,0.0,0.0,0.0,0.0,0.0,0.0,0.0,0.0,0.0,0.0,0.0,0.0,0.0,0.0,0.0,0.0,0.0,0.0,0.0,0.0,0.0,0.0,4.0391,4.2024,0.0,0.0,4.5873,4.7124,4.7664,4.88,4.9727,5.0267,5.0615,5.1271,5.2408,5.245,5.2993,5.413,5.413,5.4708,5.5827,5.5827,5.6058,5.6521,5.6501,5.6539,5.6498,5.6536,5.6515,5.6477,5.6207,5.4631,5.2394,5.2085,5.1969,5.1949,5.164,5.1233,5.0731,0.0,0.0,0.0,1.5017,1.5927,1.6829,1.7425,1.841,1.9433,2.0278,2.1149,2.1945,2.2817,2.3878,2.4977,2.6062,2.6668,2.76,2.8985,2.9822,3.0749,3.1844,3.294,3.4202,3.5598,3.6406,3.7235,3.8064,3.8365,3.8606,3.8907,3.8907,3.8907,3.8907,3.8907,3.8568,3.7966,3.6271,3.4614,3.2996,3.16,3.0695,3.0054,0.0,0.0,0.0,0.0,0.0,0.0,0.0,0.0,0.0,0.0,0.0,0.0,0.0,0.0,0.0,0.0,0.0,0.0,0.0,0.0,0.0,0.0,0.0,0.0,0.0,0.0,0.0,0.0,0.0,0.0,0.0,0.0,0.0,0.0,0.0,4.1832,4.3018,4.4383,4.5709,4.6827,4.8232,4.9388,5.0275,5.1141,5.1892,5.2471,5.2509,5.2857,5.3685,5.3976,5.4572,5.5412,5.5703,5.6417,5.7576,5.7572,5.7841,5.8303,5.8286,5.8264,5.8258,5.8235,5.8212,5.8212,5.8212,5.6934,5.488,5.4342,5.4111,5.4053,5.3514,5.2954,5.2509,0.0,1.5017,1.5017,1.5017,1.6374,1.7501,1.7501,1.8903,2.0278,2.1111,2.1945,2.2817,2.3613,2.5205,2.6176,2.6118,2.7645,2.8952,2.977,3.06,3.1808,3.3486,3.5107,3.6427,3.7316,3.8079,3.8823,3.9637,4.0428,4.1229,4.1991,4.1991,4.1991,4.1991,4.1991,4.1154,3.9652,3.9652,3.7845,3.4881,3.3918,3.2599,3.1035,0.0,0.0,0.0,0.0,0.0,0.0,0.0,0.0,0.0,0.0,0.0,0.0,0.0,0.0,0.0,0.0,0.0,0.0,0.0,0.0,0.0,0.0,0.0,0.0,0.0,0.0,0.0,0.0,0.0,0.0,0.0,0.0,0.0,4.0735,4.2057,4.3726,4.547,4.6471,4.7663,4.9279,5.0279,5.1163,5.2011,5.2897,5.3378,5.3417,5.3417,5.3783,5.4572,5.544,5.6228,5.7027,5.7863,5.8329,5.8308,5.8335,5.8366,5.8366,5.8289,5.8242,5.827,5.8193,5.8193,5.8169,5.8169,5.8193,5.8112,5.6451,5.5801,5.5689,5.4053,5.3417,5.3417,1.49,1.4963,1.5017,1.5017,1.6374,1.7501,1.7501,1.8903,2.0278,2.1111,2.1945,2.2805,2.3625,2.5163,2.6359,2.6918,2.7975,2.9166,3.0562,3.1431,3.2899,3.5152,3.5678,3.6581,3.8009,3.8836,3.9639,4.0466,4.1267,4.1766,4.1991,4.1965,4.1938,4.1938,4.1884,4.1594,4.1183,4.1183,4.0001,3.7976,3.6032,3.4588,3.3535,0.0,0.0,0.0,0.0,0.0,0.0,0.0,0.0,0.0,0.0,0.0,0.0,0.0,0.0,0.0,0.0,0.0,0.0,0.0,0.0,0.0,0.0,0.0,0.0,0.0,0.0,0.0,0.0,0.0,0.0,0.0,0.0,4.423,4.4058,4.4442,4.54,4.7146,4.8683,4.9779,5.0279,5.2222,5.3531,5.38,5.459,5.5322,5.5938,5.5976,5.6361,5.7225,5.7495,5.7681,5.7858,5.8104,5.8473,5.905,5.9004,5.935,5.995,5.995,5.9931,5.9917,5.992,5.9881,5.992,5.9907,5.9894,5.9766,5.815,5.7566,5.7572,5.711,5.6554,5.5899,1.4913,1.4938,1.4955,1.4955,1.6365,1.7501,1.7501,1.8892,2.0369,2.1543,2.2136,2.288,2.4025,2.5612,2.6805,2.7248,2.8717,3.015,3.1374,3.2917,3.4529,3.631,3.67,3.7614,3.9264,3.9764,4.0589,4.1724,4.2173,4.2772,4.3484,4.3418,4.3577,4.3876,4.3548,4.3146,4.2847,4.2473,4.1539,4.0248,3.854,3.6977,3.5522,3.4358,3.3327,3.2332,3.1129,3.0208,2.9436,2.8608,0.0,0.0,0.0,0.0,0.0,0.0,0.0,0.0,0.0,0.0,0.0,0.0,0.0,0.0,0.0,0.0,0.0,0.0,0.0,0.0,0.0,0.0,0.0,0.0,4.4874,4.6483,4.6891,4.695,4.7489,4.8892,5.0235,5.1369,5.212,5.3563,5.4693,5.5385,5.5884,5.656,5.7405,5.7482,5.7712,5.8212,5.8534,5.8702,5.8654,5.9024,5.9393,5.9816,5.9843,6.0112,6.0572,6.0572,6.0571,0.0,6.0529,6.0491,6.0518,6.0518,6.0506,0.0,0.0,0.0,0.0,0.0,5.7973,5.7434,1.4895,1.4913,1.4883,1.4883,1.6347,1.7492,1.7492,1.8871,2.0486,2.2187,2.2388,2.3016,2.4624,2.6283,2.7285,2.7274,2.9568,3.1355,3.218,3.4545,3.6235,3.7061,3.789,3.9039,4.0648,4.0819,4.1577,4.2967,4.322,4.4042,4.5499,4.5611,4.5991,4.6663,4.5917,4.5207,4.4498,4.3639,4.2781,4.1997,4.1176,3.9425,3.7188,3.5612,3.4936,3.4636,3.2947,3.1897,3.1184,3.0265,0.0,0.0,0.0,0.0,0.0,0.0,0.0,0.0,0.0,0.0,0.0,0.0,0.0,0.0,0.0,0.0,0.0,0.0,0.0,0.0,0.0,0.0,0.0,0.0,4.6953,4.8312,4.9137,4.9373,4.98,5.0555,5.1437,5.2587,5.4143,5.4488,5.5216,5.6712,5.6904,5.7325,5.8207,0.0,0.0,0.0,0.0,5.9447,5.9447,6.0188,6.0571,6.0597,6.0606,6.0589,6.0589,6.0523,6.0485,6.0485,6.0408,6.0408,6.0408,6.0408,6.0464,6.0441,5.9716,5.9459,5.9456,5.8812,5.8489,5.8296,1.4877,1.4895,1.4904,1.4904,1.6309,1.7442,1.7442,1.8839,2.05,2.2199,2.2412,2.3003,2.4633,2.6312,2.7274,2.724,2.9476,3.1541,3.3043,3.4764,3.6105,3.6991,3.8378,3.956,4.0595,4.1876,4.2697,4.2967,4.4341,4.5163,4.5499,4.6109,4.6488,4.6637,4.6424,4.6243,4.5988,4.5201,4.4383,4.3588,4.2768,4.1036,3.8763,3.7792,3.7007,3.6245,3.4622,3.3933,3.3559,3.2122,3.1504,3.1354,3.1203,0.0,0.0,0.0,0.0,0.0,0.0,0.0,0.0,0.0,0.0,0.0,0.0,0.0,0.0,0.0,0.0,0.0,0.0,0.0,0.0,4.7006,4.86,4.9792,4.9945,5.1176,5.1935,5.1522,5.2809,5.3866,5.4235,5.5523,5.6443,5.6789,5.744,5.8207,5.9013,5.9089,0.0,6.0086,6.0278,6.0329,6.0277,6.043,6.048,6.0464,0.0,0.0,6.0446,6.0408,6.0408,6.0408,6.0408,6.0408,6.0408,6.0408,6.0436,6.0398,6.0379,6.0355,6.0342,6.0188,5.969,5.9076,1.4841,1.4868,1.4886,1.4886,1.629,1.7384,1.7384,1.8779,2.0464,2.2122,2.2335,2.2948,2.4588,2.6242,2.724,2.7186,2.9833,3.2214,3.3827,3.5408,3.6507,3.6919,3.8861,4.0262,4.1148,4.2284,4.3103,4.3513,4.478,4.5599,4.6009,4.6797,4.7359,4.7731,4.7326,4.7107,4.7033,4.6252,4.5467,4.4643,4.3788,4.2486,4.0905,3.9283,3.845,3.7916,3.6296,3.5698,3.546,3.3821,3.328,3.3152,3.2347,3.2405,3.2743,0.0,0.0,0.0,0.0,0.0,0.0,0.0,0.0,0.0,0.0,0.0,0.0,0.0,0.0,4.4687,4.5987,0.0,4.8277,4.8745,5.0241,5.1396,5.1446,5.2577,5.3276,5.293,5.3656,5.4306,5.4814,5.5963,5.6881,5.7341,5.8145,5.8987,5.9829,5.9867,6.0059,6.048,6.048,6.0453,6.0464,6.0453,6.0425,6.0408,6.0408,6.0408,6.0408,6.0408,6.0408,6.0408,6.0408,6.0408,6.0408,6.0408,6.0408,6.0436,6.0453,6.0506,6.0533,6.0597,6.0316,5.9894,1.4813,1.4841,1.4868,1.4868,1.6271,1.7374,1.7374,1.8746,2.0389,2.2082,2.2281,2.2905,2.452,2.6209,2.7448,2.8107,3.0582,3.2751,3.436,3.5997,3.6883,3.6883,3.9341,4.1026,4.1659,4.2567,4.3355,4.3986,4.5026,4.5811,4.6479,4.7445,4.819,4.8783,4.8153,4.7856,4.7853,4.7036,4.622,4.5403,4.4581,4.3763,4.2797,4.0756,3.9805,3.932,3.7891,3.7256,3.6883,3.546,3.4974,3.4735,3.3452,3.3548,3.4111,3.4132,3.4695,0.0,0.0,0.0,0.0,0.0,0.0,0.0,0.0,0.0,4.3601,4.5268,4.6316,4.715,4.7984,4.9402,5.0453,5.0453,5.1798,5.2867,5.292,5.367,5.4256,5.4308,5.4333,5.4677,5.5556,5.6358,5.7199,5.8077,5.888,5.9644,6.037,6.0408,6.0408,6.0408,6.0408,6.0408,6.0408,6.0408,6.0408,6.0408,6.0408,6.0408,6.0408,6.0408,6.0408,6.0408,6.0408,6.0408,6.0408,6.0408,6.0408,6.0408,6.0408,6.0425,6.0518,6.0533,6.0533,6.0456,1.4813,1.4823,1.4823,1.4823,1.6221,1.731,1.731,1.8737,2.0389,2.2079,2.2304,2.2905,2.452,2.6209,2.8369,3.1294,3.1832,3.2686,3.4315,3.5925,3.6807,3.6807,3.9807,4.1526,4.1609,4.3095,4.3912,4.3986,4.5449,4.6231,4.6342,4.7827,4.8531,4.8642,4.8531,4.8494,4.8457,4.7787,4.7006,4.6153,4.544,4.4618,4.3763,4.2791,4.1526,4.0151,3.9239,3.8484,3.7765,3.692,3.6646,3.6633,3.6494,3.6517,3.6616,3.6663,0.0,3.7887,3.7887,3.9051,0.0,4.0553,4.182,4.3239,0.0,0.0,4.6138,4.784,4.8878,4.9728,5.0637,5.1509,5.2115,5.2115,5.2997,5.3698,5.3698,5.4493,5.5069,5.5096,5.5186,5.5556,5.6396,5.7237,5.8077,5.8918,5.9759,6.0293,6.037,6.0408,6.0408,6.0408,6.0408,6.0408,6.0408,6.0408,6.0408,6.0408,6.0408,6.0408,6.0408,6.0408,6.0408,6.0408,6.0408,6.0408,6.0408,6.0408,6.0408,6.0408,6.0408,6.037,6.0436,6.0436,6.0398,6.0398,1.4813,1.4813,1.4973,1.547,1.6511,1.7449,1.7949,1.9037,2.0389,2.2079,2.2304,2.2905,2.452,2.6176,2.8278,3.1046,3.1694,3.2434,3.3575,3.5591,3.6756,3.6756,3.9407,4.1096,4.1549,4.2662,4.3447,4.3865,4.546,4.6237,4.6274,4.7866,4.8605,4.8605,4.8605,4.8605,4.8569,4.8272,4.742,4.6237,4.5938,4.5045,4.3923,4.359,4.2767,4.1609,4.0337,3.9695,0.0,3.7988,3.7541,3.7567,3.7617,3.8004,3.854,3.9052,3.9815,0.0,4.1079,0.0,0.0,0.0,4.4626,4.5659,4.6026,4.7174,4.839,4.9136,5.0364,5.1415,5.185,5.2608,5.3177,0.0,5.3888,5.4448,5.4506,5.4829,5.5102,5.5183,5.5706,5.6191,5.6549,5.739,5.823,5.9033,5.9911,6.0408,6.0408,6.0408,6.0408,6.0408,6.0408,6.0408,6.0408,6.0408,6.0408,6.0408,6.0408,6.0408,6.0408,6.0408,6.0408,6.0408,6.0408,6.0408,6.0446,6.0915,6.08,6.0446,6.0905,6.079,6.0408,6.0408,6.0408,6.0408,1.4813,1.4813,1.516,1.6259,1.6887,1.7562,1.8362,1.9225,2.0389,2.2079,2.229,2.3064,2.5148,2.6388,2.8054,3.0499,3.1406,3.2203,3.3022,3.533,3.6679,3.6679,3.899,4.0667,4.1422,4.2236,4.3056,4.3804,4.5137,4.5801,4.5838,4.7426,4.82,4.82,4.8421,4.8532,4.8495,4.831,4.7425,4.6133,4.5946,4.5057,4.3865,4.3865,4.3526,4.2916,4.1534,4.0903,4.0531,3.9398,3.8979,3.8979,3.9069,3.956,4.0285,4.1135,4.219,4.3219,4.4083,0.0,0.0,4.6186,4.7078,4.7814,4.8039,4.9265,5.0417,5.0703,5.1782,5.2748,5.3005,5.3564,0.0,5.4048,5.4503,5.495,5.4971,5.5,5.5133,5.5472,5.6071,5.6671,5.721,5.7848,5.8574,5.9415,6.0026,6.0408,6.0408,6.0408,6.0408,6.0408,6.0408,6.0408,6.0408,6.0408,6.0408,6.0408,6.0408,6.0408,6.0408,6.0408,6.0408,6.0408,6.0408,6.0408,6.0446,6.1029,6.0953,6.0485,6.1058,6.0905,6.0408,6.0408,6.0408,6.0408,1.4813,1.4813,1.531,1.6962,1.7262,1.7562,1.8362,1.9225,2.0389,2.2079,2.2224,2.3431,2.6672,2.7009,2.7978,3.0474,3.1399,3.2135,3.2953,3.5254,3.6599,3.6599,3.8847,4.048,4.1292,4.2174,4.2991,4.3804,4.4515,4.4849,4.4886,4.6434,4.7168,4.7205,4.7976,4.8306,4.8269,4.7611,4.6837,4.6063,4.5321,4.4543,4.3804,4.3804,4.3832,4.3749,4.299,4.224,4.1571,4.1497,4.1497,4.1526,4.1585,4.1613,0.0,4.2829,4.429,0.0,0.0,0.0,4.7124,4.7913,4.8776,4.964,5.0391,5.1281,5.2171,5.3037,5.3352,5.374,5.4572,5.4784,5.4844,5.4844,5.4882,5.492,5.4882,5.4941,5.5303,5.6177,5.634,5.7044,0.0,5.9015,5.9415,6.0293,6.037,6.0408,6.0408,6.0408,6.0408,6.0408,6.0408,6.0408,6.0408,6.0408,6.0408,6.0408,6.0408,6.0408,6.0408,6.0408,6.0408,6.0408,6.0408,6.0408,6.0408,6.0408,6.0418,6.0428,6.0446,6.0408,6.0408,6.0408,6.0408,6.0408,1.4813,1.5273,1.5996,1.7112,1.775,1.8399,1.9225,1.9601,2.0376,2.2,2.3131,0.0,0.0,0.0,0.0,0.0,3.1043,3.1912,3.2126,3.4439,3.6017,3.6518,3.7784,3.9121,4.0388,4.1235,4.2046,4.2827,4.4118,4.4744,4.4744,4.581,4.6324,4.6324,4.6581,4.6728,4.6691,4.6471,4.5883,4.5148,4.489,4.4336,4.3667,4.3667,4.3734,4.3832,0.0,4.3064,4.2314,4.1757,4.1609,4.1794,4.2865,0.0,0.0,4.5148,4.6405,4.7485,0.0,0.0,4.964,5.0466,5.0879,5.118,5.1442,5.2188,5.2897,5.3263,5.3747,5.4264,5.4667,5.4799,5.4829,5.4829,5.489,5.492,5.492,5.5443,5.5928,5.6253,5.7308,0.0,0.0,0.0,0.0,6.0332,6.0408,6.0408,6.0408,6.0408,6.0408,6.0408,6.0408,6.0408,6.0408,6.0408,6.0408,6.0408,6.0408,6.0408,6.0408,6.0408,6.0408,6.0408,6.0408,6.0408,6.0446,6.0971,6.0876,6.0387,6.0942,6.0751,6.0226,6.0226,6.0226,6.0226,0.0,1.5508,1.6334,1.7149,1.7986,0.0,0.0,0.0,0.0,0.0,0.0,0.0,0.0,0.0,0.0,0.0,0.0,3.1755,3.1709,3.3956,3.5531,3.5993,3.7063,3.8221,3.9485,4.0294,4.125,4.2286,4.3351,4.4011,4.4305,4.5076,4.548,4.548,4.5773,4.5883,4.5883,4.559,4.5186,4.4672,4.4378,4.4009,4.3566,4.3566,4.3634,0.0,4.38,4.3564,4.3138,4.2612,4.2649,4.3095,0.0,0.0,0.0,0.0,4.8253,4.9177,5.0065,5.0697,5.133,5.2156,5.2344,5.2456,5.2719,5.3245,5.3654,5.3687,5.4096,5.4538,5.4641,5.4705,5.4881,5.5177,5.5246,5.542,5.5754,5.6285,5.677,5.7135,5.8122,0.0,0.0,0.0,0.0,6.0313,6.0408,6.0408,6.0408,6.0408,6.0408,6.0408,6.0408,6.0408,6.0408,6.0408,6.0408,6.0408,6.0408,6.0408,6.0408,6.0408,6.0408,6.0408,6.0408,6.037,6.0408,6.0933,6.0771,6.0289,6.0784,6.0632,6.0099,6.0099,6.0068,6.0068,0.0,0.0,1.6409,0.0,0.0,0.0,0.0,0.0,0.0,0.0,0.0,0.0,0.0,0.0,0.0,0.0,0.0,0.0,3.1709,3.3817,3.5128,3.5174,3.6626,3.7808,3.8615,3.946,4.0634,4.2176,4.2213,4.2653,4.3461,4.4232,4.4599,4.4672,4.5443,4.5773,4.5736,4.4966,4.4635,4.4562,4.3791,4.3497,4.3497,4.3497,4.3566,4.3634,4.3771,4.3837,4.3897,4.3992,0.0,0.0,0.0,0.0,0.0,0.0,0.0,5.09,5.1649,5.194,5.2231,5.3057,5.3245,5.3433,5.4221,5.4409,5.4409,5.4409,5.4439,5.4505,0.0,0.0,5.4969,5.5788,5.5971,5.6305,5.7232,5.7422,5.7763,0.0,0.0,0.0,0.0,0.0,0.0,6.0264,0.0,6.0408,6.0408,6.0408,6.0408,6.0408,6.0408,6.0408,6.0408,6.0408,6.0408,6.0408,6.0408,6.0408,6.0408,6.0408,6.0408,6.0408,6.0408,6.0332,6.0293,6.0293,6.0217,6.0068,6.0076,6.0076,6.0068,6.0068,6.0038,5.9975,0.0,0.0,0.0,0.0,0.0,0.0,0.0,0.0,0.0,0.0,0.0,0.0,0.0,0.0,0.0,0.0,0.0,0.0,3.1531,3.2661,3.385,3.4981,3.6046,3.6964,3.7771,3.9166,4.0084,4.0487,4.1111,4.1809,4.2616,4.2837,4.324,4.3791,4.4011,4.4085,4.4085,4.3901,4.3791,4.3791,4.3571,4.3497,4.3497,4.3497,4.3532,4.3532,4.3634,4.3701,4.3869,0.0,0.0,0.0,0.0,0.0,4.9557,0.0,0.0,5.2367,5.2588,5.3215,5.3808,5.4033,5.4071,5.4146,5.4334,5.4409,5.4409,5.4409,5.4443,5.4443,0.0,0.0,0.0,5.4969,5.5599,0.0,5.6474,5.7573,0.0,0.0,0.0,5.969,5.988,5.9982,0.0,0.0,6.0264,6.0352,6.0408,6.0408,6.0408,6.0408,6.0408,6.0408,6.0408,6.0408,6.0408,6.0408,6.0408,6.0408,6.0408,6.0408,6.038,6.0332,6.0332,6.0275,6.0151,6.0175,6.0127,6.0026,6.0026,5.9988,5.995,5.995,5.995,5.9918,0.0,0.0,0.0,0.0,0.0,0.0,0.0,0.0,0.0,0.0,0.0,0.0,0.0,0.0,0.0,0.0,0.0,0.0,0.0,3.2231,3.3209,3.4431,3.5275,3.6119,3.6964,3.8145,3.9103,3.9836,4.0244,4.0833,4.1635,4.1635,4.2075,4.2844,4.2878,4.3133,4.3463,4.3497,4.3497,0.0,0.0,4.3497,4.3497,4.3497,4.3497,4.3532,4.36,4.3701,0.0,0.0,0.0,4.6773,4.8296,4.9373,5.0265,5.108,0.0,5.2897,5.3377,5.3896,5.4375,5.4409,5.4409,5.4409,5.4409,5.4409,5.4409,5.4409,5.4409,0.0,0.0,0.0,0.0,0.0,0.0,0.0,5.7094,5.8072,5.8824,0.0,5.962,0.0,5.9885,5.995,5.9982,0.0,6.0235,6.0323,6.0408,6.0408,6.0408,6.0408,6.0408,6.0408,6.0408,6.0408,6.0408,6.0408,6.0408,6.0408,6.0408,6.0408,6.0352,6.0303,0.0,6.0425,6.0628,6.0653,6.0823,6.105,6.1055,6.1022,6.0942,6.0568,6.0416,6.0378,0.0,0.0,0.0,0.0,0.0,0.0,0.0,0.0,0.0,0.0,2.407,2.5094,0.0,0.0,0.0,0.0,0.0,0.0,0.0,0.0,3.2852,3.377,3.4578,3.5357,3.6119,3.6911,3.7985,3.9447,3.9455,3.9859,4.0625,4.0625,4.1063,4.1829,4.1969,4.2406,4.3065,4.3133,4.3167,4.3167,4.3167,4.3167,4.3167,0.0,4.324,4.3385,4.3563,4.3734,0.0,0.0,4.6513,4.6884,4.9224,5.0079,5.0562,5.2011,5.2642,5.3049,5.3904,5.42,5.4343,5.4375,5.4409,5.4409,5.4409,5.4409,5.4409,5.4409,0.0,5.4409,5.4409,5.4409,5.4668,5.5484,0.0,5.6479,5.8127,5.8532,5.8976,5.9809,5.9885,5.9885,5.9885,5.9885,5.9918,6.0013,6.0167,6.0323,6.0408,6.0408,6.0408,6.0408,6.0408,6.0408,6.0408,6.0408,6.0408,6.0408,6.0408,6.0408,6.0408,6.0408,6.0352,6.0264,0.0,0.0,6.1279,6.1381,6.1842,6.2411,6.2387,6.2387,6.2307,6.1401,6.1098,6.0984,0.0,0.0,0.0,0.0,0.0,0.0,0.0,0.0,0.0,0.0,2.4425,2.5094,0.0,0.0,0.0,0.0,0.0,0.0,0.0,0.0,0.0,3.3733,3.4578,3.5064,3.5117,3.6552,3.7436,3.7666,3.8291,3.9021,3.9823,3.9823,4.0224,4.1024,4.1024,4.1168,4.1418,4.1452,4.1449,4.1515,4.1515,4.1515,4.1515,4.1515,0.0,0.0,4.3446,4.3804,4.4096,4.589,4.6513,4.681,4.8556,5.0079,5.1231,5.1528,5.2642,5.3832,5.4054,5.42,5.4343,5.4375,5.4409,5.4409,5.4409,5.4409,0.0,0.0,0.0,5.4409,5.4409,5.4409,0.0,5.4693,0.0,0.0,0.0,0.0,5.8873,0.0,0.0,0.0,0.0,0.0,0.0,0.0,0.0,6.0197,6.0294,6.038,6.0408,6.0408,6.0408,6.0408,6.0408,6.0408,6.0408,6.0408,6.0408,6.0408,6.0408,6.0352,6.0264,6.0175,6.0836,0.0,6.1169,6.1928,6.2277,6.2397,6.2397,6.24,6.2284,6.1406,6.1098,6.0984,0.0,0.0,0.0,0.0,0.0,0.0,0.0,2.2699,2.35,2.4388,2.4871,2.5578,2.6767,2.6859,2.7466,0.0,0.0,0.0,0.0,0.0,0.0,3.3109,3.3899,3.4495,3.4897,3.5586,0.0,0.0,0.0,3.8089,3.8852,0.0,0.0,0.0,4.012,4.0406,4.0912,4.0979,4.1046,4.1111,4.1111,4.1111,4.1111,0.0,0.0,0.0,0.0,0.0,4.4022,4.5407,4.6141,4.6847,4.889,5.0376,5.1491,5.1899,5.2903,5.3944,5.4055,5.4127,5.4235,5.4375,5.4409,5.4296,5.3846,0.0,0.0,0.0,5.3095,5.3245,5.3695,0.0,0.0,0.0,0.0,0.0,0.0,0.0,0.0,0.0,0.0,0.0,0.0,0.0,0.0,0.0,0.0,6.0167,6.0294,6.038,6.0408,6.0408,6.0408,6.0408,6.0408,6.0408,6.0408,6.0408,6.0408,6.038,6.0352,6.0294,6.0463,6.076,6.1147,0.0,6.2425,6.2842,6.33,6.3719,6.3719,6.3719,6.3606,6.2697,6.2125,6.1667,0.0,0.0,0.0,0.0,0.0,0.0,2.1903,2.2831,2.3739,2.4425,2.5206,2.6024,2.6804,2.6988,2.7631,0.0,0.0,0.0,0.0,0.0,0.0,0.0,0.0,0.0,0.0,0.0,0.0,0.0,0.0,0.0,0.0,0.0,0.0,0.0,0.0,0.0,0.0,4.0401,4.05,0.0,0.0,0.0,0.0,0.0,0.0,0.0,0.0,0.0,0.0,0.0,4.5732,4.6624,4.889,5.0302,5.1268,5.1899,5.2791,5.3572,5.3757,5.3941,5.4089,5.4115,5.4146,5.3921,5.3095,5.2907,0.0,0.0,5.1893,5.2118,5.2794,0.0,0.0,0.0,0.0,0.0,0.0,0.0,0.0,0.0,0.0,0.0,0.0,0.0,0.0,0.0,0.0,0.0,6.0323,6.038,6.0408,6.0408,6.0408,6.0408,6.0408,6.0408,6.0408,6.0408,6.0408,6.0352,6.0294,6.0264,6.0632,6.1305,6.1462,0.0,0.0,6.3789,6.4282,6.4888,6.4888,6.4888,6.4813,6.3909,6.3076,6.2311,0.0,0.0,0.0,0.0,0.0,0.0,2.1977,2.3331,2.4425,2.45,2.5206,2.6024,2.6804,2.7503,2.8255,0.0,0.0,0.0,0.0,0.0,0.0,0.0,0.0,0.0,0.0,0.0,0.0,0.0,0.0,0.0,0.0,0.0,0.0,0.0,0.0,0.0,0.0,0.0,0.0,0.0,0.0,0.0,0.0,0.0,0.0,0.0,0.0,0.0,0.0,0.0,0.0,4.5695,4.7404,4.8964,5.0228,5.0302,0.0,0.0,5.2827,5.3421,5.394,5.3297,5.3215,5.3057,5.2231,0.0,0.0,5.1931,5.1893,5.1931,5.2006,0.0,0.0,0.0,0.0,5.474,0.0,0.0,0.0,0.0,0.0,0.0,0.0,0.0,0.0,0.0,0.0,0.0,6.0408,6.0408,6.0408,6.0408,6.0408,6.0408,6.0408,6.0408,6.0408,6.0408,6.0352,6.0294,6.0294,6.0106,6.0501,6.1343,6.2003,0.0,0.0,6.4471,6.485,6.4888,6.4888,6.4888,6.4813,6.3909,6.3076,6.2277,0.0,0.0,0.0,0.0,0.0,0.0,2.2015,2.3405,2.45,2.45,2.5615,2.6525,2.6822,2.7964,2.8846,2.9163,2.9067,0.0,0.0,0.0,0.0,0.0,0.0,0.0,0.0,0.0,0.0,0.0,0.0,0.0,0.0,0.0,0.0,0.0,0.0,0.0,0.0,0.0,0.0,0.0,0.0,0.0,0.0,0.0,0.0,0.0,0.0,0.0,0.0,0.0,0.0,0.0,4.5881,4.7033,0.0,0.0,5.0933,5.1899,5.1934,5.2265,5.2557,5.236,5.2353,5.2193,5.1367,0.0,5.1029,5.0579,5.0466,5.0616,5.1104,5.1855,5.2569,5.3095,5.3883,0.0,5.5093,0.0,0.0,0.0,0.0,0.0,0.0,0.0,0.0,0.0,0.0,0.0,6.0323,6.038,6.0408,6.0408,6.0408,6.0408,6.0408,6.0408,6.0408,6.0408,6.0323,6.0264,6.0167,6.0076,6.0437,6.124,6.2046,0.0,0.0,6.4547,6.4888,6.4888,6.4888,6.4888,6.4813,6.3909,6.3076,6.2281,0.0,0.0,0.0,0.0,0.0,2.2089,2.2312,2.3591,2.45,2.45,2.5912,2.6878,2.682,2.826,2.9178,2.9156,2.9067,0.0,0.0,0.0,0.0,0.0,0.0,0.0,0.0,0.0,3.3791,3.4624,3.5421,0.0,0.0,0.0,0.0,0.0,0.0,0.0,0.0,0.0,0.0,0.0,0.0,0.0,0.0,0.0,0.0,0.0,0.0,0.0,0.0,0.0,0.0,0.0,0.0,4.5472,4.655,0.0,5.0005,5.0711,5.1041,5.1335,5.1516,5.1395,5.1457,5.1298,0.0,5.0353,5.0166,4.9602,4.949,4.9678,5.0241,5.1217,5.2118,5.2719,5.3695,5.4476,5.4673,5.6069,0.0,0.0,0.0,0.0,0.0,0.0,0.0,0.0,0.0,0.0,0.0,6.0285,6.0342,6.0408,6.0408,6.0408,6.0408,6.0408,6.0408,6.038,6.0294,6.0167,6.0068,6.0013,6.0367,6.1136,0.0,0.0,0.0,6.4547,6.4888,6.4888,6.4888,6.4888,6.4813,6.3909,6.311,6.2273,0.0,0.0,0.0,0.0,0.0,2.2274,2.3054,2.3925,2.45,2.45,2.5912,2.6878,2.682,2.826,2.9156,2.9089,2.9021,0.0,0.0,0.0,0.0,0.0,0.0,0.0,3.3509,3.3422,3.3791,3.4624,3.5421,3.6218,0.0,0.0,0.0,0.0,0.0,0.0,0.0,0.0,0.0,0.0,0.0,0.0,0.0,0.0,0.0,0.0,0.0,0.0,0.0,0.0,0.0,0.0,0.0,4.4618,4.5621,4.7256,4.8296,4.9113,4.9968,5.0819,5.1335,5.0617,5.0497,5.0445,0.0,4.9527,4.9527,4.949,4.949,4.949,4.9527,5.0804,5.1893,5.1931,5.332,5.4476,5.4673,0.0,0.0,0.0,0.0,0.0,0.0,0.0,0.0,0.0,0.0,0.0,0.0,6.0099,6.0188,6.037,6.0408,6.0408,6.0408,6.0408,6.038,6.0294,6.0167,6.0068,6.0013,5.9918,6.034,0.0,0.0,0.0,0.0,6.4547,6.4888,6.4888,6.4888,6.4888,6.4813,6.3909,6.3103,6.2292,0.0,0.0,0.0,0.0,0.0,0.0,2.3091,2.3925,2.45,2.45,2.5429,2.6247,2.6746,2.7758,2.8566,2.9052,2.9021,0.0,0.0,0.0,0.0,0.0,0.0,0.0,3.3422,3.3393,3.3538,3.3791,3.5131,3.5928,3.6218,3.7558,3.8174,0.0,0.0,0.0,0.0,0.0,0.0,0.0,0.0,0.0,0.0,0.0,0.0,0.0,0.0,0.0,0.0,0.0,0.0,0.0,0.0,0.0,0.0,4.4878,4.6178,4.733,4.759,4.8327,4.8915,4.8688,4.9193,4.9626,4.9433,4.9459,4.949,4.949,4.949,4.949,4.949,5.0804,5.1893,5.1893,5.332,5.4476,0.0,0.0,0.0,0.0,0.0,0.0,0.0,0.0,0.0,0.0,0.0,0.0,0.0,6.0007,6.0068,6.0197,6.0188,6.0188,6.0188,6.0188,6.0197,6.0167,6.0038,6.0045,6.0013,5.9918,0.0,0.0,0.0,0.0,0.0,6.432,6.4888,6.4888,6.4888,6.4512,6.3909,6.3078,6.2239,6.1386,0.0,0.0,0.0,0.0,0.0,0.0,2.3516,2.4148,2.45,2.45,2.5206,2.5987,2.6709,2.7537,2.8286,2.9016,2.9021,0.0,0.0,0.0,0.0,0.0,0.0,0.0,3.3452,3.3393,3.3393,3.3393,3.5023,3.582,3.5856,3.7449,3.8174,3.8174,3.8174,0.0,0.0,0.0,0.0,0.0,0.0,0.0,3.7808,0.0,0.0,0.0,0.0,0.0,0.0,0.0,0.0,0.0,0.0,0.0,0.0,0.0,4.4283,4.5324,4.6252,4.688,4.7318,4.735,4.782,4.837,4.8701,4.8877,4.9021,4.9321,4.9396,4.9471,4.9771,5.0965,5.1973,5.224,5.3474,0.0,0.0,0.0,0.0,0.0,0.0,0.0,0.0,0.0,0.0,0.0,0.0,0.0,0.0,5.9982,5.9982,6.0007,6.0068,6.0099,6.0099,6.0099,6.0068,6.0038,6.0045,6.0013,5.9982,5.9918,0.0,0.0,0.0,0.0,0.0,6.4206,6.4888,6.4888,6.4888,6.436,6.3492,6.2694,6.2041,6.1392,0.0,0.0,0.0,0.0,0.0,0.0,0.0,2.45,2.45,2.45,2.5169,2.5931,2.6709,2.7463,2.8212,2.9038,2.9021,0.0,0.0,0.0,0.0,0.0,0.0,3.3559,3.3509,3.3422,3.3393,3.3393,3.5023,3.582,3.5856,3.7449,3.8174,3.8174,3.8174,3.8271,0.0,0.0,0.0,0.0,0.0,3.6303,0.0,0.0,0.0,0.0,0.0,0.0,0.0,0.0,0.0,0.0,0.0,0.0,0.0,0.0,0.0,0.0,0.0,4.6327,4.6434,4.6499,4.6568,4.6861,4.7778,4.7965,0.0,4.9011,4.9197,4.9421,5.0243,5.1166,5.2061,5.2885,0.0,0.0,0.0,0.0,0.0,0.0,0.0,0.0,0.0,0.0,0.0,0.0,0.0,0.0,0.0,5.9885,5.9885,5.9885,6.0045,6.0068,6.0068,6.0068,6.0038,6.0013,6.0013,5.9982,5.9885,5.9885,0.0,0.0,0.0,0.0,0.0,6.413,6.485,6.4888,6.4888,6.4323,6.3416,6.2753,6.233,6.2032,0.0,0.0,0.0,0.0,0.0,0.0,0.0,0.0,0.0,0.0,2.4648,2.5317,2.6711,2.6965,2.7606,0.0,0.0,0.0,0.0,0.0,0.0,0.0,3.2776,3.3559,3.3509,3.3422,3.3393,3.3393,3.5023,3.582,3.5856,3.7449,3.8174,3.8174,3.8241,3.8008,0.0,0.0,0.0,0.0,3.6303,3.6303,0.0,0.0,0.0,0.0,3.6436,3.6639,0.0,0.0,0.0,0.0,0.0,0.0,0.0,0.0,4.1832,4.2909,4.3503,0.0,4.5584,4.5616,4.6126,4.6829,0.0,4.7932,4.8258,4.9011,0.0,4.9492,5.0418,5.1237,5.2094,0.0,0.0,0.0,0.0,0.0,0.0,0.0,0.0,0.0,0.0,0.0,0.0,0.0,0.0,0.0,0.0,5.9918,5.9885,5.9885,5.9918,5.995,5.995,5.995,5.995,5.9918,5.9918,5.9918,5.9885,5.9885,0.0,0.0,0.0,0.0,6.2501,6.3486,6.432,6.4888,6.4888,6.3982,6.2697,6.3103,6.2378,6.1359,0.0,0.0,0.0,0.0,0.0,0.0,0.0,0.0,0.0,0.0,2.45,2.5094,2.673,2.678,2.7385,0.0,0.0,0.0,0.0,0.0,0.0,3.1334,3.2803,3.3559,3.3567,3.3452,3.3393,3.3393,3.4661,3.5457,3.5856,3.7051,3.7848,3.8207,3.7907,3.7197,0.0,0.0,0.0,0.0,3.5165,0.0,0.0,0.0,0.0,0.0,3.5293,3.5605,0.0,3.6122,3.6668,3.7411,0.0,0.0,0.0,0.0,4.1014,4.1869,4.2612,4.3726,4.4692,4.4692,4.5356,4.6206,4.7024,4.7541,4.8203,0.0,0.0,4.9993,5.1327,0.0,0.0,0.0,0.0,0.0,0.0,0.0,0.0,0.0,0.0,0.0,0.0,0.0,0.0,0.0,0.0,0.0,0.0,5.9982,5.9918,5.9885,5.9885,5.9885,5.9885,5.9885,5.9885,5.9885,5.9885,5.9885,5.9885,5.9885,5.9885,0.0,0.0,0.0,6.2463,6.3296,6.413,6.4888,6.4888,6.4095,6.3,6.3369,6.2886,6.2106,0.0,0.0,0.0,0.0,0.0,0.0,0.0,0.0,0.0,0.0,0.0,0.0,0.0,0.0,0.0,0.0,0.0,0.0,0.0,0.0,3.0577,3.1347,3.272,3.3478,3.3587,3.3481,3.3393,3.3393,3.4226,3.495,3.5639,3.6435,3.7192,3.7842,3.7135,3.6097,3.4906,0.0,0.0,0.0,3.3807,0.0,0.0,0.0,0.0,0.0,0.0,0.0,0.0,3.5268,3.585,3.663,3.7299,0.0,0.0,0.0,0.0,0.0,4.2203,4.3206,4.3838,4.3986,4.4655,4.5509,4.6327,0.0,0.0,0.0,0.0,0.0,0.0,0.0,0.0,0.0,0.0,0.0,0.0,0.0,0.0,0.0,0.0,0.0,0.0,0.0,0.0,0.0,0.0,0.0,0.0,6.0013,5.9982,5.9885,5.9885,5.9885,5.9885,5.9885,5.9885,5.9885,5.9885,5.9885,5.9885,5.9885,5.9885,5.9923,0.0,0.0,6.2463,6.3145,6.4017,6.4888,6.4888,6.436,6.3606,6.3638,6.35,6.3308,0.0,0.0,0.0,0.0,0.0,0.0,0.0,0.0,0.0,0.0,0.0,0.0,0.0,0.0,0.0,0.0,0.0,0.0,0.0,2.9769,3.0577,3.1347,3.2224,3.2949,3.3587,3.3538,3.3452,3.3393,3.4226,3.4661,3.4806,3.5602,3.61,3.6292,3.5526,3.5104,3.4954,3.4284,0.0,3.3807,0.0,0.0,0.0,0.0,0.0,0.0,0.0,0.0,0.0,3.4352,3.4959,3.5702,3.5813,0.0,0.0,0.0,0.0,0.0,4.1534,4.2352,4.3132,4.3838,4.4655,4.5509,4.6327,4.7664,0.0,0.0,0.0,0.0,0.0,0.0,0.0,0.0,0.0,0.0,0.0,0.0,0.0,0.0,0.0,0.0,0.0,0.0,0.0,0.0,0.0,0.0,6.0068,6.0007,5.9982,5.9885,5.9885,5.9885,5.9885,5.9885,5.9885,5.9885,5.9885,5.9885,5.9885,5.9885,5.9885,5.9885,0.0,6.0984,6.2425,6.2538,6.3524,6.4888,6.4888,6.4325,6.3608,6.4209,6.3913,6.3314,0.0,0.0,0.0,0.0,0.0,0.0,0.0,0.0,0.0,0.0,0.0,0.0,0.0,0.0,0.0,0.0,0.0,0.0,2.8975,2.9342,3.0099,3.1347,3.1726,3.2454,3.3587,3.3538,3.3481,3.3393,3.3755,3.419,3.4624,3.5452,3.569,3.5337,3.5002,3.4686,3.4321,3.3954,3.3807,3.3807,0.0,0.0,0.0,0.0,0.0,0.0,0.0,0.0,0.0,0.0,3.4476,3.4884,3.533,0.0,0.0,0.0,0.0,0.0,4.1237,4.1869,4.2575,4.4283,4.5324,4.6252,4.7516,0.0,0.0,0.0,0.0,0.0,0.0,0.0,0.0,0.0,0.0,0.0,0.0,0.0,0.0,0.0,0.0,0.0,0.0,0.0,0.0,0.0,0.0,0.0,6.0099,6.0045,5.9982,5.9885,5.9885,5.9885,5.9885,5.9885,5.9885,5.9885,5.9885,5.9885,5.9885,5.9885,5.9885,5.9885,0.0,6.0568,6.1743,6.2235,6.3107,6.4244,6.4737,6.4588,6.4174,6.4398,6.4217,6.384,0.0,0.0,0.0,0.0,0.0,0.0,0.0,0.0,0.0,0.0,0.0,0.0,0.0,0.0,0.0,0.0,0.0,0.0,2.8975,2.8975,2.9622,3.1054,3.1311,3.2104,3.3578,3.3567,3.3509,3.3422,3.3393,3.3719,3.4365,3.5042,3.503,3.4564,3.4621,3.4311,3.3807,3.3807,3.3807,3.3807,0.0,0.0,0.0,0.0,0.0,0.0,0.0,0.0,0.0,0.0,0.0,0.0,0.0,0.0,0.0,3.7448,3.8451,3.9714,4.12,4.1869,4.2723,4.4989,4.603,4.6921,4.8519,0.0,0.0,0.0,0.0,0.0,0.0,0.0,0.0,0.0,0.0,0.0,0.0,0.0,0.0,0.0,0.0,0.0,0.0,0.0,0.0,0.0,0.0,0.0,6.0068,6.0045,5.9982,5.9885,5.9885,5.9885,5.9885,5.9885,5.9885,5.9885,5.9885,5.9885,5.9885,5.9885,5.9885,5.9885,5.9885,6.0454,6.1439,6.2122,6.2993,6.3979,6.4588,6.4777,6.4628,6.4442,6.4332,6.4284,0.0,0.0,0.0,0.0,0.0,0.0,0.0,0.0,0.0,0.0,0.0,0.0,0.0,0.0,0.0,0.0,0.0,0.0,2.8975,2.8975,2.9379,3.0246,3.098,3.2129,3.3662,3.3615,3.3567,3.3509,3.3422,3.3459,3.3582,3.3655,3.3704,3.3808,3.3771,3.3762,3.3807,3.3807,3.3807,3.3807,3.3807,0.0,0.0,0.0,0.0,0.0,0.0,0.0,0.0,0.0,0.0,0.0,0.0,0.0,3.6705,3.6779,3.8451,4.0494,4.1349,4.2686,4.4246,4.5992,4.6475,0.0,4.8519,5.0153,0.0,5.3385,0.0,0.0,0.0,0.0,0.0,0.0,0.0,0.0,0.0,0.0,0.0,0.0,0.0,0.0,0.0,0.0,0.0,0.0,0.0,0.0,6.0045,6.0013,5.9982,5.9885,5.9885,5.9885,5.9885,5.9885,5.9885,5.9885,5.9885,5.9885,5.9885,5.9885,5.9885,5.9885,5.9885,6.0833,6.2311,6.2387,6.3372,6.4813,6.4743,6.4595,6.4407,6.4328,6.4324,6.4284,0.0,0.0,0.0,0.0,0.0,0.0,0.0,0.0,0.0,0.0,0.0,0.0,0.0,0.0,0.0,0.0,0.0,2.8484,2.8975,2.8975,2.9365,3.0173,3.098,3.1935,3.2983,3.3442,3.3587,3.3509,3.3481,3.3481,3.3509,3.3595,3.3643,3.3698,3.3753,3.378,3.3807,3.3807,3.3807,3.3807,3.3807,3.3513,0.0,0.0,0.0,0.0,0.0,0.0,0.0,0.0,3.3213,3.3547,3.403,3.533,3.6705,3.6705,3.8451,4.0568,4.1386,4.276,4.4395,4.6067,4.7256,0.0,0.0,5.1714,5.32,0.0,0.0,0.0,0.0,0.0,0.0,0.0,0.0,0.0,0.0,0.0,0.0,0.0,0.0,0.0,0.0,0.0,0.0,0.0,0.0,0.0,0.0,5.9982,5.9918,5.9885,5.9885,5.9885,5.9885,5.9885,5.9885,5.9885,5.9885,5.9885,5.9885,5.9885,5.9885,5.9923,6.0416,6.1022,6.1667,6.2728,6.3524,6.4133,6.4481,6.4558,6.437,6.4326,6.4284,6.4284,0.0,0.0,0.0,0.0,0.0,0.0,0.0,0.0,0.0,0.0,0.0,0.0,0.0,0.0,0.0,0.0,2.7374,2.8154,2.8938,2.8975,2.9255,2.9806,3.0577,3.1384,3.2192,3.2947,3.3415,3.353,3.3567,3.3567,3.3595,3.3643,3.3698,3.3726,3.378,3.3807,3.3807,3.3807,3.3807,3.377,3.3513,3.3109,0.0,0.0,0.0,0.0,0.0,0.0,0.0,0.0,3.2767,3.3138,3.3956,3.5182,3.637,3.663,3.8451,4.0568,4.1386,4.3169,4.5138,0.0,0.0,0.0,5.1788,5.3014,5.4203,0.0,0.0,0.0,0.0,0.0,0.0,0.0,0.0,0.0,0.0,0.0,0.0,0.0,0.0,0.0,0.0,0.0,0.0,0.0,0.0,0.0,0.0,5.9918,5.9885,5.9885,5.9885,5.9885,5.9885,5.9885,5.9885,5.9885,5.9885,5.9885,5.9885,5.9885,6.0037,6.0302,6.0871,6.1401,6.197,6.3145,6.3716,6.3984,6.4407,6.4483,6.4368,6.4326,6.4284,6.4284,0.0,0.0,0.0,0.0,0.0,0.0,0.0,0.0,2.45,2.45,2.45,0.0,0.0,0.0,0.0,0.0,2.7374,2.8117,2.8938,2.8975,2.8975,2.8975,2.9769,3.0577,3.1347,3.2192,3.2947,3.3698,3.3615,3.3615,3.3698,3.3698,3.3726,3.3807,3.3807,3.3807,3.3807,3.3807,3.3807,3.3733,3.2926,3.2596,3.2412,0.0,0.0,0.0,0.0,0.0,0.0,0.0,3.2321,3.3138,3.3918,3.4773,3.5665,3.6445,3.8451,4.0568,4.1386,4.3986,4.6698,0.0,0.0,0.0,5.346,5.3831,5.4537,0.0,0.0,0.0,0.0,0.0,0.0,0.0,0.0,0.0,0.0,0.0,0.0,0.0,0.0,0.0,0.0,0.0,0.0,0.0,0.0,0.0,0.0,5.9885,5.9885,5.9885,5.9885,5.9885,5.9885,5.9885,5.9885,5.9885,5.9923,5.9923,5.9885,5.9885,6.034,6.1098,6.1098,6.2084,6.36,6.3638,6.4022,6.4558,6.4445,6.4368,6.4284,6.4284,6.4284,6.4284,0.0,0.0,0.0,0.0,0.0,0.0,0.0,0.0,2.45,2.45,2.45,0.0,0.0,0.0,0.0,0.0,0.0,0.0,2.8117,2.8705,2.8975,2.8975,2.9769,3.032,3.054,3.1898,3.2947,3.3698,3.3671,3.3671,3.3698,3.3753,3.378,3.3807,3.3807,3.3807,3.3807,3.3807,3.3807,3.3733,3.2926,3.2265,3.1641,0.0,0.0,0.0,0.0,0.0,0.0,0.0,0.0,0.0,3.3101,3.4327,3.5665,3.6445,3.8451,4.0568,4.1386,4.3986,0.0,0.0,0.0,0.0,0.0,5.5131,0.0,0.0,0.0,0.0,0.0,0.0,0.0,0.0,0.0,0.0,0.0,0.0,0.0,0.0,0.0,0.0,0.0,0.0,0.0,0.0,0.0,0.0,0.0,5.9885,5.9885,5.9885,5.9885,5.9885,5.9885,6.0454,6.0719,6.0757,6.1363,6.1022,5.9923,6.0492,6.0871,6.1174,6.2349,6.3145,6.3638,6.4174,6.4442,6.4558,6.4445,6.4368,6.4284,6.4284,6.4284,6.4284,0.0,0.0,0.0,0.0,0.0,0.0,0.0,0.0,2.45,2.45,2.45,2.45,0.0,0.0,0.0,0.0,0.0,0.0,2.775,2.8558,2.8975,2.8975,2.9475,3.0026,3.065,3.1935,3.2973,3.3753,3.3753,3.3753,3.3753,3.378,3.3807,3.3807,3.3807,3.3807,3.3807,3.3807,3.3807,3.3733,3.2926,3.2118,3.1311,0.0,0.0,0.0,0.0,0.0,0.0,0.0,0.0,0.0,3.273,3.3918,3.5219,3.637,3.8191,4.0123,4.1274,0.0,0.0,0.0,0.0,0.0,0.0,0.0,0.0,0.0,0.0,0.0,0.0,0.0,0.0,0.0,0.0,0.0,0.0,0.0,0.0,0.0,0.0,0.0,0.0,0.0,0.0,0.0,0.0,0.0,0.0,5.9885,5.9885,5.9885,5.9885,5.9885,5.9885,6.0681,6.1098,6.1098,6.197,6.1894,6.0909,6.1401,6.178,6.2159,6.3524,6.4095,6.406,6.448,6.4632,6.4483,6.4407,6.4328,6.4284,6.4284,6.4284,6.4284,0.0,0.0,2.324,2.3314,0.0,0.0,0.0,0.0,2.45,2.45,2.45,2.45,0.0,0.0,0.0,0.0,0.0,0.0,2.764,2.8521,2.8975,2.8975,2.8975,2.9732,3.1237,3.2082,3.2889,3.3697,3.377,3.3807,3.3807,3.3807,3.3807,3.3807,3.3807,3.3807,3.3807,3.3807,3.3807,3.3733,3.2926,3.2155,3.1421,3.0613,0.0,0.0,0.0,0.0,0.0,0.0,0.0,0.0,3.273,3.3547,3.4513,3.6185,3.7782,3.938,4.1126,0.0,0.0,0.0,0.0,0.0,0.0,0.0,0.0,0.0,0.0,0.0,0.0,0.0,0.0,0.0,0.0,0.0,0.0,0.0,0.0,0.0,0.0,0.0,0.0,0.0,0.0,0.0,0.0,0.0,0.0,5.9885,5.9885,5.9885,5.9885,5.9885,5.9885,6.0757,6.1212,6.1212,6.2197,6.2652,6.2652,6.2576,6.2955,6.3751,6.4547,6.4815,6.4669,6.4632,6.452,6.437,6.4326,6.4284,6.4284,6.4284,6.4284,6.4284,0.0,0.0,2.3425,2.4111,0.0,0.0,0.0,0.0,0.0,2.45,0.0,0.0,0.0,0.0,0.0,0.0,0.0,0.0,0.0,2.8205,2.8975,2.8975,2.8975,2.9475,3.043,3.1237,3.2045,3.2852,3.3476,3.3807,3.3807,3.3807,3.3807,3.3807,3.3807,3.3807,3.3807,3.3807,3.3807,3.3733,3.2926,3.2522,3.2265,3.1458,3.065,0.0,0.0,0.0,0.0,0.0,0.0,0.0,3.273,3.3547,3.4513,3.6185,3.7373,3.8674,0.0,4.354,0.0,0.0,0.0,0.0,0.0,0.0,0.0,0.0,0.0,0.0,0.0,0.0,0.0,0.0,0.0,0.0,0.0,0.0,0.0,0.0,0.0,0.0,0.0,0.0,0.0,0.0,0.0,0.0,5.9885,5.9885,5.9885,5.9885,5.9885,5.9885,5.9885,6.1363,6.2122,0.0,6.3638,6.4358,6.4358,6.3676,6.3827,6.4623,6.4813,6.4815,6.4701,6.4631,6.452,6.437,6.4326,6.4284,6.4284,6.4284,6.4284,6.4284,0.0,0.0,0.0,0.0,0.0,0.0,0.0,0.0,0.0,0.0,0.0,0.0,0.0,0.0,0.0,0.0,0.0,0.0,0.0,2.8117,2.8975,2.8975,2.8975,2.9379,3.0173,3.0613,3.1421,3.2596,3.3036,3.344,3.3807,3.3807,3.3807,3.3807,3.3807,3.3807,3.3807,3.3807,3.3807,3.377,3.333,3.2963,3.2559,3.2118,3.1494,3.076,3.076,0.0,0.0,0.0,0.0,0.0,0.0,0.0,3.4513,3.6185,3.7262,3.8451,0.0,0.0,0.0,0.0,0.0,0.0,0.0,0.0,0.0,0.0,0.0,0.0,0.0,0.0,0.0,0.0,0.0,0.0,0.0,0.0,0.0,0.0,0.0,0.0,0.0,0.0,0.0,0.0,0.0,5.9885,5.9885,5.9885,5.9885,5.9885,5.9885,5.9885,5.9885,6.1553,6.2425,6.2425,6.4092,6.4888,6.4888,6.4434,6.4471,6.4888,6.4888,6.4815,6.463,6.4595,6.4483,6.4367,6.4287,6.4284,6.4284,6.4284,6.4284,6.4284,0.0,0.0,0.0,0.0,0.0,0.0,0.0,0.0,0.0,0.0,0.0,0.0,0.0,0.0,0.0,0.0,0.0,0.0,0.0,0.0,0.0,2.8975,2.8975,2.9329,2.9989,3.0136,3.0907,3.2412,3.2522,3.3036,3.3807,3.3807,3.3807,3.3807,3.3807,3.3807,3.3807,3.3807,3.3807,3.3807,3.3807,3.3403,3.2816,3.2816,3.2302,3.1604,3.1604,3.1556,3.1495,3.1642,0.0,0.0,0.0,0.0,3.4513,3.6185,3.7151,3.8265,0.0,0.0,0.0,0.0,0.0,0.0,0.0,0.0,0.0,0.0,0.0,0.0,0.0,0.0,0.0,0.0,0.0,0.0,0.0,0.0,0.0,0.0,0.0,0.0,0.0,0.0,0.0,0.0,0.0,5.9885,5.9885,5.9885,5.9885,5.9885,5.9885,5.9961,6.0113,6.1629,6.2463,6.2652,6.4168,6.4888,6.4888,6.4888,6.4888,6.4888,6.4888,6.4779,6.4595,6.4596,6.4481,6.4284,6.4284,6.4284,6.4284,6.4284,6.4284,6.4284,0.0,0.0,0.0,0.0,0.0,0.0,0.0,0.0,0.0,0.0,2.45,2.45,2.45,2.4357,0.0,0.0,0.0,0.0,2.7603,0.0,0.0,2.8975,2.8975,2.9049,2.9159,2.9843,3.065,3.1568,3.2265,3.3036,3.3807,3.3807,3.3807,3.3807,3.3807,3.3807,3.3807,3.3807,3.3807,3.3807,3.3807,3.3733,3.366,3.366,3.3146,3.2449,3.2449,3.2008,3.1519,3.2305,3.2624,0.0,0.0,0.0,0.0,3.6185,3.6779,3.7559,0.0,0.0,0.0,0.0,0.0,0.0,0.0,0.0,0.0,0.0,0.0,0.0,0.0,0.0,0.0,0.0,0.0,0.0,0.0,0.0,0.0,0.0,0.0,0.0,0.0,0.0,0.0,0.0,5.9885,5.9885,5.9885,5.9885,5.9885,5.9885,5.9885,6.0226,6.0909,6.1932,6.2766,6.3448,6.4434,6.4888,6.4888,6.4888,6.4888,6.4888,6.4888,6.4777,6.459,6.4595,6.4481,6.4284,6.4284,6.4284,6.4284,6.4284,6.4284,6.4284,0.0,0.0,0.0,0.0,0.0,0.0,0.0,0.0,0.0,0.0,0.0,2.5151,2.5115,2.5412,2.5798,2.6127,2.6838,2.7603,2.8411,2.8792,2.8975,2.8975,2.8975,2.8975,2.8975,2.9342,2.9916,3.0723,3.1531,3.2339,3.3146,3.3587,3.3807,3.3807,3.3807,3.3807,3.3844,3.4284,3.4468,3.4541,3.5018,3.5202,3.5202,3.5202,3.4981,3.4614,3.4137,3.3733,3.3403,3.3319,3.3335,3.3434,3.388,0.0,0.0,0.0,3.6572,0.0,4.1156,4.4161,4.6718,0.0,0.0,0.0,0.0,0.0,0.0,0.0,0.0,0.0,0.0,0.0,0.0,0.0,0.0,0.0,0.0,0.0,0.0,0.0,0.0,0.0,0.0,0.0,0.0,0.0,5.9885,5.9885,5.9885,5.9885,5.9885,5.9885,6.034,6.0719,6.1098,6.2425,6.3524,6.432,6.4737,6.4888,6.4888,6.4888,6.4888,6.4888,6.4888,6.4813,6.4664,6.4633,6.4481,6.4322,6.4284,6.4284,6.4284,6.4284,6.4284,6.4284,0.0,0.0,0.0,0.0,0.0,0.0,0.0,0.0,0.0,0.0,0.0,2.5968,2.5931,0.0,0.0,0.0,2.7478,2.8154,2.8938,2.8975,2.8975,2.8975,2.8975,2.8975,2.8975,2.8975,2.9402,3.021,3.1017,3.1825,3.2632,3.344,3.3807,3.3807,3.3807,3.3917,3.4137,3.4761,3.5137,3.5385,3.6046,3.6303,3.6303,3.6303,3.6303,3.6193,3.5569,3.5349,3.5238,3.4651,3.4458,3.4512,3.4539,3.4565,0.0,0.0,0.0,3.8116,0.0,0.0,4.5985,4.7794,4.9269,0.0,0.0,0.0,0.0,0.0,0.0,0.0,0.0,0.0,0.0,0.0,0.0,0.0,0.0,0.0,0.0,0.0,0.0,0.0,0.0,0.0,0.0,0.0,5.9885,5.9885,5.9885,5.9853,5.9966,6.0156,6.0728,6.1258,6.1675,6.3148,6.4209,6.4888,6.4888,6.4888,6.4888,6.4888,6.4888,6.4888,6.4888,6.4813,6.4701,6.4669,6.4558,6.4402,6.4324,6.4324,6.4284,6.4284,6.4284,6.4284,0.0,0.0,0.0,0.0,0.0,0.0,0.0,0.0,0.0,0.0,0.0,2.6746,2.6746,2.672,2.7027,2.7764,2.7831,2.8154,2.8938,2.8975,2.8975,2.8975,2.8975,0.0,2.8975,2.8975,2.9402,3.021,3.1017,3.1825,3.2632,3.344,3.3807,3.3807,3.3807,3.4211,3.4917,3.4954,3.5495,3.6229,3.6266,3.6303,3.6303,3.6303,3.6303,3.6303,3.6229,0.0,3.6229,3.6193,3.6156,3.6185,3.6241,3.627,3.6445,0.0,0.0,0.0,0.0,4.2521,0.0,4.6764,0.0,0.0,0.0,0.0,0.0,0.0,0.0,0.0,0.0,0.0,0.0,0.0,0.0,0.0,0.0,0.0,0.0,0.0,0.0,0.0,0.0,0.0,0.0,0.0,5.9885,5.9885,5.9885,5.9857,6.0169,6.0925,6.0931,6.1615,6.3162,6.4141,6.4741,6.4888,6.4888,6.4888,6.4888,6.4888,6.4888,6.4888,6.4888,6.4813,6.4699,6.4701,6.4595,6.4406,6.4405,6.4364,6.4284,6.4284,6.4284,6.4284,0.0,0.0,0.0,0.0,0.0,0.0,0.0,0.0,0.0,0.0,0.0,0.0,0.0,2.7969,2.8331,2.858,2.8558,2.8705,2.8975,2.8975,2.8975,2.8975,2.8975,2.8975,2.8975,2.8952,2.9075,2.9392,3.0661,3.1441,3.1733,3.3049,3.3671,3.3707,3.4303,3.4734,3.5064,3.6156,3.678,3.711,3.7624,3.8138,3.8615,3.8615,3.8946,0.0,0.0,0.0,0.0,3.6633,3.6303,3.6303,3.6332,3.636,3.6507,3.7345,3.8707,4.0142,0.0,0.0,0.0,4.592,4.7389,4.8746,0.0,0.0,0.0,0.0,0.0,0.0,0.0,0.0,0.0,0.0,0.0,0.0,0.0,0.0,0.0,0.0,0.0,0.0,0.0,0.0,0.0,0.0,0.0,5.9719,5.9719,5.9685,6.0066,6.0896,6.1425,6.2445,6.4106,6.4483,6.4671,6.4708,6.4708,6.4708,6.4708,6.4707,6.4704,6.4701,6.4707,6.4708,6.4708,6.4557,6.4445,6.4402,6.4364,6.4324,6.4284,6.4284,6.4284,6.4284,0.0,0.0,0.0,0.0,0.0,2.699,2.7251,2.7306,2.7341,2.7598,0.0,0.0,0.0,0.0,2.9044,2.8998,2.8975,2.8975,2.8975,2.8975,2.8975,2.8975,2.8975,2.8952,2.8952,2.8905,2.8881,2.8881,3.044,3.1217,3.1253,3.2858,3.3733,3.4025,3.4914,3.5337,3.5439,3.6861,3.7741,3.8322,3.8872,3.957,4.0304,4.0304,0.0,0.0,0.0,0.0,0.0,3.8285,3.7918,3.7845,3.7588,3.7331,3.7221,3.7734,3.8836,4.0084,4.0891,0.0,0.0,0.0,0.0,4.7792,0.0,0.0,0.0,0.0,0.0,0.0,0.0,0.0,0.0,0.0,0.0,0.0,0.0,0.0,0.0,0.0,0.0,0.0,0.0,0.0,0.0,0.0,0.0,0.0,5.9616,5.9581,6.0073,6.1167,6.2259,6.3389,6.4521,6.4558,6.4558,6.4596,6.4596,6.4596,6.4596,6.4595,6.4631,6.4592,6.452,6.4558,6.4671,6.4521,6.4444,6.4402,6.4324,6.4324,6.4284,6.4284,6.4284,6.4284,0.0,0.0,2.6953,2.6953,2.6953,2.7231,2.8049,2.812,2.8355,2.9265,0.0,0.0,0.0,0.0,0.0,2.9049,2.9049,2.9049,2.9049,2.9049,2.9012,2.9012,2.8929,2.8905,2.8905,2.8834,2.8785,2.8785,3.0389,3.1217,3.1227,3.2858,3.4025,3.4834,3.5629,3.6024,3.6186,3.6997,3.8339,3.99,0.0,4.0451,4.1185,0.0,0.0,0.0,4.1222,4.1222,0.0,4.1148,4.1148,4.1001,4.0194,3.9386,3.8762,3.8762,3.9313,4.012,0.0,0.0,0.0,0.0,0.0,0.0,4.7902,0.0,4.9994,0.0,0.0,0.0,0.0,0.0,0.0,0.0,0.0,0.0,0.0,0.0,0.0,0.0,0.0,0.0,0.0,0.0,0.0,0.0,5.9545,5.9581,5.9581,5.9585,6.0229,6.1731,6.3421,6.4324,6.4366,6.4405,6.4444,6.4596,6.4596,6.4596,6.4596,6.4595,6.4558,6.4596,6.4483,6.4481,6.4587,6.4593,6.4519,6.4405,6.4443,6.4402,6.4322,6.4359,6.4359,6.4359,0.0,2.7213,2.7771,2.7771,2.8251,2.8915,2.9694,2.9798,3.0028,0.0,0.0,0.0,3.1103,3.0895,3.0723,3.0723,3.0723,3.0723,3.0723,3.021,2.9855,2.9795,2.9222,2.8881,2.8834,2.8761,2.8737,2.8737,3.0285,3.1057,3.1093,3.269,3.3887,3.4685,3.552,3.6235,3.6916,3.8364,0.0,3.9707,4.0357,4.1489,0.0,0.0,0.0,0.0,0.0,4.3718,0.0,0.0,4.1992,4.1846,0.0,4.0634,4.0451,4.0451,4.0598,4.0928,4.1772,0.0,0.0,0.0,0.0,0.0,4.7095,4.8086,4.8967,0.0,0.0,0.0,0.0,0.0,0.0,0.0,0.0,0.0,0.0,0.0,0.0,0.0,0.0,0.0,0.0,0.0,0.0,0.0,5.914,5.9178,5.9178,6.0301,6.116,6.1569,6.314,6.4042,6.4166,6.4166,6.4284,6.4364,6.4364,6.4364,6.4364,6.4366,6.4403,6.4364,6.4326,6.4364,6.4359,6.4362,6.4284,6.4241,6.4841,6.4982,6.501,6.5571,6.5795,6.5795,2.7341,2.8029,2.8713,2.9026,2.9428,3.0035,3.0849,3.0914,3.0991,0.0,0.0,0.0,3.1861,3.2192,3.2265,3.1935,3.1568,3.1384,3.1359,3.0894,3.0613,3.0563,3.0075,2.9624,2.9271,2.9185,2.9159,2.9159,3.0414,3.1148,3.151,3.2814,3.4009,3.5131,3.5602,3.6649,3.8132,3.9434,0.0,0.0,4.1353,0.0,0.0,4.4272,4.504,0.0,0.0,0.0,4.5076,4.4121,4.3351,0.0,0.0,0.0,0.0,4.1111,4.1368,4.1699,4.2176,4.2543,4.302,0.0,0.0,0.0,4.5883,4.6985,4.8049,0.0,0.0,0.0,0.0,0.0,0.0,0.0,0.0,0.0,0.0,0.0,0.0,0.0,0.0,0.0,0.0,5.8117,5.842,5.8383,5.8798,5.8984,5.8984,6.0255,6.1151,6.1487,6.2757,6.3621,6.4121,6.4121,6.4162,6.4284,6.4284,6.4284,6.4284,6.4284,6.4284,6.4284,6.4284,6.4284,6.4322,6.4619,6.4649,6.4683,6.5464,6.5715,6.5746,6.6231,6.6418,6.6418,0.0,2.8836,2.965,3.0286,3.0448,3.078,3.1592,3.1728,3.1789,0.0,3.1923,3.2228,3.2926,3.366,3.377,3.3046,3.2313,3.1909,3.1832,3.1649,3.1524,3.1445,3.1247,3.0757,3.0031,2.9969,2.9916,2.9916,3.0713,3.151,3.2234,3.3031,3.4262,3.582,3.582,3.716,3.9441,4.0202,0.0,4.1174,4.2704,4.3834,0.0,0.0,4.6102,0.0,4.636,4.6434,4.6397,4.6214,4.5112,0.0,0.0,0.0,0.0,0.0,4.2029,4.2543,4.247,4.2947,4.3497,0.0,0.0,0.0,4.4672,4.581,4.7095,4.7865,4.871,0.0,0.0,0.0,0.0,0.0,0.0,0.0,0.0,0.0,0.0,0.0,0.0,0.0,5.6084,5.6833,5.7323,5.7404,5.8269,5.887,5.8945,5.9766,6.0588,6.1297,6.2193,6.3056,6.393,6.4004,6.4162,6.4244,6.4284,6.4284,6.4284,6.4284,6.4284,6.4284,6.4284,6.4284,6.4319,6.5095,6.5352,6.5352,6.6157,6.6486,6.6523,6.6598,6.6635,6.6635,2.8978,2.9606,3.0212,3.036,3.0904,3.1556,3.233,3.2978,3.3576,3.4211,3.4908,3.5385,3.5569,3.5716,3.5687,3.5447,3.5264,3.5133,3.5082,3.3842,3.3121,3.3065,3.1801,3.1011,3.0776,3.0776,3.0749,3.0749,3.1582,3.2053,3.2234,3.3031,3.4262,3.582,3.582,3.716,3.9441,4.0202,0.0,4.2595,4.365,0.0,4.6342,4.7223,4.7955,4.8652,4.9431,4.9691,4.9472,0.0,4.6764,4.5443,0.0,0.0,0.0,0.0,0.0,0.0,0.0,0.0,0.0,0.0,0.0,0.0,4.4562,4.4966,4.5406,0.0,4.7021,0.0,0.0,0.0,0.0,0.0,0.0,0.0,0.0,0.0,0.0,0.0,0.0,0.0,5.5849,5.6113,5.6224,5.6265,5.7089,5.7992,5.8702,5.952,6.0041,6.0189,6.1639,6.2619,6.2897,6.3531,6.391,6.3958,6.4121,6.4162,6.4162,6.4244,6.4284,6.4284,6.4284,6.4241,6.4262,6.5603,6.5827,6.5378,6.6702,6.7161,6.7178,6.7848,6.8071,6.8071,2.9747,3.0388,3.1065,3.1446,3.2132,3.2941,3.3723,3.4532,3.5349,3.6156,3.7331,3.8102,3.8102,3.8034,3.7973,3.7906,3.7144,3.6644,3.6552,3.5423,3.4709,3.4649,3.3488,3.2625,3.2198,3.1799,3.1582,3.1582,3.1981,3.2415,3.2814,3.361,3.4661,3.5856,3.6653,3.8101,4.0021,4.1216,4.2629,4.4114,4.4626,0.0,4.7275,4.8198,4.904,4.9768,5.0331,5.0519,5.0373,4.9691,4.8632,0.0,0.0,4.6838,4.6361,0.0,4.5296,4.5223,0.0,0.0,0.0,4.4085,0.0,0.0,0.0,4.4415,4.4783,4.5187,4.5883,0.0,0.0,0.0,0.0,0.0,0.0,0.0,0.0,0.0,0.0,0.0,0.0,0.0,5.3916,5.44,5.4991,5.5845,5.6742,5.7487,5.7937,5.8714,5.9387,5.9838,6.1063,6.2004,6.2588,6.3407,6.3823,6.3915,6.3958,6.4,6.4,6.4046,6.4091,6.4096,6.4087,6.4037,6.414,6.5627,6.6075,6.5844,6.7384,6.7922,6.7948,6.8357,6.8506,6.8506,3.0562,3.1274,3.2132,3.2742,3.366,3.4541,3.5385,3.6229,3.711,3.8065,3.946,4.0308,4.0308,4.0321,4.0291,4.0145,3.8875,3.8008,3.7766,3.7003,3.6499,3.629,3.5494,3.4697,3.39,3.3067,3.2669,3.2669,3.2524,3.285,3.3647,3.4298,3.5131,3.6109,3.7558,3.9043,4.0637,0.0,0.0,4.5345,0.0,4.6649,4.8061,4.9132,4.9967,5.0693,5.1151,5.1085,5.0873,5.0957,0.0,4.9464,4.8925,4.8304,0.0,0.0,0.0,0.0,0.0,0.0,0.0,0.0,0.0,4.3718,0.0,0.0,0.0,0.0,0.0,0.0,0.0,0.0,0.0,0.0,0.0,0.0,0.0,0.0,0.0,0.0,0.0,5.1022,5.1768,5.2618,5.3764,5.5286,5.6208,5.6836,5.7174,5.7802,5.8585,5.9486,6.0448,6.1396,6.224,6.3208,6.3736,6.3786,6.383,6.3873,6.3873,6.3883,6.3892,6.3903,6.3925,6.3985,6.424,6.562,6.6284,6.6565,6.7959,6.8506,6.8506,6.8506,6.8506,6.8506,3.1409,3.2511,3.355,3.366,3.4981,3.6266,3.7074,3.7918,3.8982,4.0487,4.1376,4.1857,4.1857,4.2411,4.2486,4.1723,0.0,0.0,4.0166,0.0,3.8681,3.7957,3.716,3.6327,3.5566,3.4733,3.4335,3.4335,3.361,3.3683,3.448,3.4552,3.5421,3.687,3.7775,0.0,0.0,0.0,4.3824,0.0,4.6866,4.7989,0.0,5.0452,5.1547,5.2454,5.3925,5.3663,5.255,0.0,5.1529,5.0295,0.0,5.0314,0.0,0.0,0.0,0.0,0.0,0.0,0.0,0.0,4.5149,0.0,0.0,0.0,4.3504,0.0,0.0,0.0,0.0,0.0,0.0,0.0,0.0,0.0,0.0,0.0,0.0,0.0,5.0441,5.0519,5.0753,5.1605,5.2573,5.3617,5.4428,5.5576,5.7137,5.7285,5.7691,5.8548,6.0063,6.0876,6.1032,6.2641,6.3428,6.3428,6.3691,6.3823,6.3823,6.3904,6.391,6.3878,6.3878,6.4264,6.493,6.5829,6.6611,6.7243,6.8171,6.8506,6.8506,6.8506,6.8506,6.8506,3.3036,3.3697,3.4651,3.5165,3.6597,3.7808,3.8138,3.9983,4.1601,4.2225,4.3396,4.4127,0.0,0.0,0.0,0.0,0.0,0.0,0.0,0.0,4.06,4.0238,3.8608,3.7522,3.7196,3.5965,3.5313,3.5313,3.4987,3.4987,3.5313,3.5783,3.658,3.7739,3.8971,0.0,4.2013,0.0,0.0,0.0,0.0,0.0,0.0,5.1719,5.277,5.3965,5.4701,5.4531,5.3997,0.0,5.329,0.0,0.0,0.0,0.0,0.0,0.0,0.0,0.0,0.0,0.0,0.0,0.0,0.0,0.0,0.0,4.3835,0.0,0.0,0.0,0.0,0.0,0.0,0.0,4.3935,0.0,0.0,0.0,0.0,0.0,0.0,0.0,4.9715,5.0561,5.1449,5.2417,5.3225,5.4259,5.5484,5.6441,5.7148,5.7604,5.9153,6.0268,6.0794,6.1985,6.2845,6.3289,6.3419,6.3465,6.3465,6.3557,6.361,6.3661,6.4189,6.4621,6.4995,6.6314,6.703,6.7391,6.8208,6.8506,6.8506,6.8506,6.8506,6.8506,3.519,3.5394,3.5944,3.6751,3.8071,3.9177,3.9836,4.2189,4.3981,4.4163,4.5364,0.0,4.6491,4.6666,0.0,0.0,0.0,4.5236,0.0,0.0,4.2737,4.2085,4.0383,0.0,0.0,3.7268,3.6472,3.6472,3.6037,3.5928,3.6146,3.6942,3.7739,3.8608,0.0,4.1615,4.2991,0.0,0.0,4.7844,4.9438,5.1321,5.3168,5.3385,5.4182,5.5233,5.545,5.5377,5.5196,5.5257,5.476,0.0,5.3554,0.0,0.0,0.0,0.0,0.0,4.9596,0.0,0.0,0.0,0.0,0.0,0.0,0.0,0.0,0.0,0.0,0.0,0.0,0.0,0.0,4.2882,0.0,4.2774,0.0,0.0,0.0,0.0,0.0,0.0,0.0,4.9268,5.0112,5.0999,5.2066,5.306,5.3989,5.539,5.6389,5.6956,5.8281,5.9541,6.0665,6.1523,6.2335,6.3147,6.3147,6.3194,6.3194,6.3289,6.3391,6.3408,6.413,6.4679,6.5255,6.6468,6.7221,6.7688,6.8283,6.8506,6.8506,6.8506,6.8506,6.8506,3.7963,3.7796,0.0,3.8308,3.9118,4.0434,4.2704,4.4491,4.5802,0.0,0.0,0.0,0.0,0.0,0.0,0.0,0.0,4.8098,4.654,0.0,4.5309,0.0,0.0,0.0,0.0,0.0,3.8101,3.8101,3.658,3.6218,3.7011,3.7775,3.8572,3.9405,4.0963,4.2122,4.2991,4.4621,4.625,4.7844,4.9438,5.2009,5.4907,0.0,5.5921,5.6066,5.6826,0.0,0.0,5.5957,5.5486,0.0,0.0,0.0,0.0,0.0,0.0,0.0,0.0,0.0,0.0,4.9122,0.0,0.0,0.0,0.0,4.4267,0.0,0.0,0.0,0.0,0.0,4.2882,4.2882,4.2266,0.0,0.0,0.0,0.0,0.0,0.0,0.0,0.0,4.7587,4.8393,0.0,5.089,5.2175,5.298,5.3989,5.5207,5.6748,5.7593,5.8804,6.0382,6.1334,6.2192,6.3002,6.3147,6.3194,6.3194,6.3194,6.3299,6.3371,6.3408,6.4456,6.6091,6.6123,6.7061,6.8468,6.8506,6.8506,6.8506,6.8506,6.8506,6.8506,3.9862,0.0,0.0,0.0,0.0,4.2813,4.518,4.6379,0.0,0.0,0.0,0.0,0.0,0.0,5.1574,0.0,0.0,5.0271,4.9691,4.8677,0.0,0.0,0.0,4.3751,0.0,0.0,0.0,0.0,3.9155,3.8975,3.9264,3.9446,3.995,4.078,4.1823,4.3051,0.0,0.0,0.0,0.0,0.0,5.3989,5.5568,0.0,0.0,5.6826,5.708,5.7043,0.0,5.679,5.6283,5.5631,5.5644,5.5136,5.4375,5.3588,5.2835,0.0,0.0,0.0,4.9676,4.9125,0.0,0.0,0.0,0.0,0.0,0.0,0.0,0.0,0.0,4.2882,4.2882,4.2882,4.223,4.1723,0.0,4.1035,4.0926,0.0,0.0,0.0,0.0,0.0,0.0,0.0,4.8899,0.0,5.2102,5.3023,5.4239,5.5941,5.6785,5.7997,5.9612,6.0467,6.1275,6.2047,6.2647,6.2904,6.2953,6.3002,6.3088,6.3173,6.3919,6.455,6.5164,6.642,6.7209,6.774,6.8271,6.8506,6.8506,6.8506,6.8506,6.8506,4.1868,4.2414,0.0,0.0,0.0,0.0,0.0,0.0,0.0,0.0,5.1321,0.0,5.2552,0.0,5.3349,0.0,5.2878,5.2444,5.2154,5.0923,0.0,4.8518,4.6928,0.0,0.0,0.0,0.0,0.0,0.0,4.0598,4.0346,4.0524,4.1063,4.1854,4.2681,4.394,4.5522,0.0,4.8219,0.0,0.0,5.4921,0.0,0.0,5.7087,5.7623,0.0,5.7623,5.7623,5.7623,5.708,5.6428,5.6428,5.5884,5.5196,5.4653,5.3748,5.2806,5.2299,5.1357,0.0,4.9872,4.9329,0.0,4.7591,0.0,0.0,0.0,0.0,0.0,0.0,0.0,4.2882,4.2882,4.1977,4.1107,0.0,4.0021,0.0,0.0,0.0,0.0,0.0,0.0,0.0,0.0,0.0,0.0,0.0,5.181,5.3207,5.4693,5.5794,5.7152,5.8767,5.9575,6.0529,6.1594,6.2144,6.2511,6.2805,6.2904,6.2941,6.3051,6.3759,6.4261,6.4694,6.6186,6.6975,6.7406,6.8197,6.8506,6.8506,6.8506,6.8506,6.8506,4.3896,4.4258,0.0,0.0,4.5892,0.0,0.0,0.0,5.1719,0.0,5.3385,5.4182,5.4979,5.5124,5.5124,5.5124,5.5088,0.0,5.3929,5.3132,0.0,0.0,4.8576,4.7263,4.6234,0.0,0.0,0.0,0.0,0.0,4.0414,4.1205,4.1959,4.2713,4.3504,0.0,4.6313,4.7104,4.8353,5.0196,5.3253,5.4978,5.5877,5.7424,5.8195,5.8492,5.8456,5.8456,5.8456,5.8456,5.7913,5.7261,5.7261,5.6717,5.6029,5.5993,5.4943,5.382,5.3784,5.2625,5.1393,5.1357,0.0,0.0,0.0,0.0,4.6613,0.0,0.0,0.0,0.0,0.0,0.0,4.2882,4.1542,3.9985,3.8391,3.8174,0.0,0.0,0.0,0.0,0.0,0.0,0.0,0.0,0.0,0.0,0.0,5.0378,5.2181,5.3146,5.4766,5.6345,5.7923,5.8804,6.0015,6.152,6.1557,6.2034,6.2805,6.2805,6.2855,6.3002,6.3002,6.359,6.4613,6.5483,6.6359,6.7332,6.8123,6.8468,6.8506,6.8506,6.8506,6.8506,4.5707,4.6866,4.817,0.0,4.9727,4.9945,0.0,0.0,0.0,0.0,5.5812,5.6609,5.7406,5.8058,5.8332,5.8228,5.7686,0.0,0.0,0.0,0.0,5.1646,5.1142,4.9944,4.7922,4.688,0.0,4.5192,0.0,0.0,4.3637,4.3734,4.3906,4.4121,4.4943,0.0,4.6874,4.8233,5.0414,5.3024,5.4454,5.5866,0.0,0.0,5.8699,5.9799,5.9294,5.9131,5.9131,5.9237,5.8746,5.8094,5.8094,5.755,5.6754,5.6174,5.5703,5.5305,5.4762,5.3856,5.2951,5.2335,5.143,5.0379,0.0,0.0,0.0,0.0,0.0,0.0,0.0,0.0,0.0,4.2991,4.1542,3.9985,0.0,0.0,0.0,0.0,0.0,0.0,0.0,0.0,0.0,0.0,0.0,0.0,0.0,0.0,5.1475,5.2987,5.4686,5.6088,5.7116,5.851,5.9722,6.0713,6.13,6.2034,6.2805,6.2805,6.2805,6.2855,6.2952,6.3223,6.3648,6.4549,6.5508,6.6489,6.7258,6.7974,6.8506,6.8506,6.8506,6.8506,4.8351,0.0,0.0,5.3015,0.0,0.0,5.3929,0.0,0.0,5.6798,5.7629,0.0,5.8681,5.915,5.9402,5.9295,5.8898,0.0,0.0,0.0,0.0,5.4122,5.3082,5.1718,4.9937,4.9113,0.0,4.6498,0.0,0.0,4.4729,4.4607,4.4821,4.5178,4.5963,4.6748,4.764,4.9567,5.1993,5.4563,5.5027,0.0,0.0,5.8065,5.9015,6.0203,6.0208,6.0032,5.9889,5.9908,5.9456,5.875,5.8388,5.8042,5.755,5.6754,5.6283,5.5921,5.5486,5.4798,5.4037,5.3241,5.2408,5.1502,5.0234,4.9401,4.8641,0.0,0.0,0.0,0.0,0.0,0.0,4.2556,4.1325,0.0,0.0,0.0,0.0,0.0,0.0,0.0,0.0,0.0,0.0,0.0,0.0,0.0,0.0,0.0,5.0107,5.1883,5.3579,5.5053,5.6271,5.7519,5.8731,5.9905,6.0676,6.1484,6.2291,6.2658,6.2805,6.2805,6.2879,6.2965,6.3186,6.4095,6.4868,6.5605,6.6802,6.7777,6.8506,6.8506,6.8506,6.8506,0.0,0.0,0.0,0.0,0.0,0.0,0.0,5.7138,0.0,5.8536,0.0,5.9691,5.9833,5.9833,5.9777,5.9777,0.0,5.9705,5.949,5.8106,5.7209,5.6779,5.4649,5.3095,5.2172,5.1173,0.0,0.0,0.0,0.0,4.5249,4.5249,4.5606,4.6284,4.6998,0.0,0.0,5.103,5.3242,5.5241,5.5455,5.6418,5.781,5.8595,5.938,6.0165,6.0961,6.0956,6.0552,6.0552,6.0123,5.9439,5.8753,5.8408,5.8223,5.75,5.674,5.6138,5.6138,5.5595,5.487,5.4074,5.3241,5.2408,5.1502,5.0234,4.9148,4.8967,4.7808,4.654,0.0,0.0,0.0,0.0,0.0,0.0,0.0,0.0,0.0,0.0,0.0,0.0,0.0,0.0,0.0,0.0,0.0,0.0,0.0,0.0,4.8717,5.0529,5.2139,5.3829,5.5574,5.6418,5.7629,5.9208,6.0015,6.0823,6.163,6.2438,6.2805,6.2805,6.2805,6.2879,6.3075,6.3788,6.4328,6.4722,6.6556,6.7703,6.8308,6.8468,6.8506,6.8457,0.0,0.0,0.0,0.0,0.0,5.843,6.0284,5.96,5.9348,6.0732,6.1019,6.1631,6.2961,6.3105,6.3046,6.2928,6.2928,0.0,0.0,0.0,0.0,5.7509,5.6402,5.5419,5.4598,5.2564,5.128,0.0,0.0,0.0,4.8496,4.8496,4.8568,4.871,4.8853,0.0,5.1173,5.2886,0.0,5.5312,5.6633,5.7703,5.8595,5.9416,6.0201,6.0915,6.1117,6.1104,6.1171,6.1322,6.0896,6.0212,6.0068,5.9096,5.807,5.7926,5.7366,5.6819,5.6819,5.6328,5.5631,5.487,5.4074,5.3096,5.1611,5.1067,5.0488,4.9184,4.8677,4.8025,4.6576,0.0,0.0,0.0,0.0,0.0,0.0,0.0,0.0,0.0,0.0,0.0,0.0,0.0,0.0,0.0,0.0,0.0,0.0,0.0,4.8675,0.0,5.2096,5.3829,0.0,0.0,5.7629,5.9208,6.0015,6.0823,6.163,6.2438,6.2805,6.2805,6.2805,6.2855,6.299,6.3162,6.3689,6.4611,6.6445,6.7209,6.7443,6.8197,6.8408,6.8358,0.0,0.0,0.0,0.0,0.0,0.0,0.0,6.1866,0.0,6.2498,6.2664,6.2892,6.3585,6.3657,6.3596,6.3535,6.3535,6.3153,6.2342,6.1521,6.0594,5.9452,5.8238,0.0,5.5847,5.4706,5.3528,5.2315,0.0,0.0,4.9924,4.9531,4.9317,4.9353,5.0174,5.1672,0.0,0.0,0.0,5.649,5.7275,5.8274,5.938,5.9773,6.0415,6.1093,6.1093,6.1152,6.1211,6.127,6.1135,6.0798,6.0403,5.9777,5.9078,5.8215,5.7765,5.7421,5.7025,5.6644,5.6227,5.5469,5.4675,5.3809,5.2618,5.1679,5.0885,5.0173,4.9386,4.8338,4.6794,4.5164,0.0,0.0,0.0,0.0,0.0,0.0,0.0,0.0,0.0,0.0,0.0,0.0,0.0,0.0,0.0,0.0,0.0,0.0,4.772,0.0,0.0,0.0,5.5448,0.0,5.7005,5.8584,5.9832,6.0603,6.1006,6.2254,6.2805,6.2805,6.2805,6.2855,6.2904,6.3002,6.3529,6.4451,6.5374,6.6236,6.7012,6.7481,6.7889,6.8208,0.0,5.9266,0.0,0.0,6.1593,0.0,6.3663,6.3912,6.3903,6.3918,6.4026,6.4143,6.4126,6.4305,6.4341,6.4162,6.4162,6.4019,6.3663,6.2521,6.17,6.1379,5.9987,5.856,5.7168,5.6668,5.5491,0.0,0.0,0.0,5.1244,5.0602,5.0316,5.0352,0.0,0.0,0.0,0.0,5.6276,5.7596,5.7953,5.8809,5.9916,6.0094,6.0558,6.1093,6.1093,6.1093,6.1093,6.1093,6.1152,6.1163,6.0518,6.0289,6.0008,5.8752,5.8196,5.7801,5.7155,5.692,5.6597,5.5805,5.5158,5.4475,5.3504,5.2318,5.1358,5.1128,4.9794,4.8215,4.6711,4.5269,0.0,0.0,0.0,0.0,0.0,0.0,0.0,0.0,0.0,0.0,0.0,0.0,0.0,0.0,0.0,0.0,0.0,0.0,0.0,0.0,0.0,5.2017,5.5359,0.0,5.6381,5.8033,5.9648,6.0419,6.0456,6.2071,6.2805,6.2805,6.2805,6.2805,6.2805,6.2915,6.3369,6.402,6.4304,6.5188,6.6381,6.6579,6.7022,6.759,0.0,0.0,0.0,0.0,0.0,0.0,0.0,6.559,6.5304,6.459,6.5126,6.5839,6.6589,6.7267,6.7374,6.6696,6.666,6.6018,6.459,6.4376,6.3663,6.2235,6.1343,6.0487,5.9594,5.7489,5.6276,0.0,0.0,0.0,0.0,5.3635,5.3564,0.0,0.0,0.0,0.0,5.599,5.6775,5.7703,5.9131,5.9773,5.9987,6.0701,6.1022,6.1093,6.1093,6.1093,6.1093,6.1093,6.1093,6.1093,6.1022,6.0487,5.9938,5.9795,5.878,5.7836,5.7765,5.7245,5.6597,5.5805,5.5554,5.5122,5.3648,5.3181,5.2677,5.1203,4.9621,4.8083,4.6591,4.558,4.4791,0.0,0.0,0.0,0.0,0.0,0.0,0.0,0.0,0.0,0.0,4.0021,0.0,0.0,0.0,0.0,0.0,0.0,0.0,5.0192,5.0356,5.2017,5.5359,5.553,5.6381,5.8033,5.9648,6.0419,6.0456,6.2071,6.2805,6.2805,6.2805,6.2805,6.2805,6.2805,6.2879,6.3025,6.396,6.4414,6.4672,6.5469,6.5764,6.5727,0.0,0.0,0.0,0.0,0.0,0.0,0.0,6.716,6.7053,6.6731,6.6981,6.7302,6.7624,6.7909,6.798,6.7695,6.7659,6.7195,6.6125,6.559,6.484,6.3734,6.2485,6.145,6.0629,5.9238,5.8274,0.0,0.0,0.0,0.0,0.0,5.4224,0.0,0.0,5.5608,5.639,5.7206,5.7988,5.8733,5.9337,5.987,6.0367,6.0686,6.0854,6.0938,6.0938,6.1034,6.1093,6.1093,6.1093,6.1093,6.1093,6.0879,6.0522,6.0058,5.9188,5.8223,5.7815,5.7154,5.6474,5.6152,5.5723,5.5079,5.3969,5.3361,5.2767,5.1705,5.0293,4.8866,4.7795,4.6614,4.5498,0.0,0.0,0.0,0.0,0.0,0.0,0.0,0.0,0.0,0.0,0.0,0.0,0.0,0.0,0.0,0.0,0.0,0.0,5.0105,0.0,5.1923,5.5268,5.5395,5.6337,5.8033,5.9648,6.0419,6.0456,6.2071,6.2805,6.2805,6.2805,6.2805,6.2805,6.2805,6.2805,6.2842,6.3222,6.37,6.42,6.4595,6.5014,6.5367,6.4733,0.0,6.5775,0.0,6.6815,6.7456,6.8204,6.8346,6.8418,6.8631,6.8667,6.856,6.848,6.8658,6.8694,6.848,6.8378,6.8057,6.7308,6.6459,6.5575,6.4792,6.3574,0.0,6.1686,6.0594,5.9811,5.9242,5.7676,0.0,0.0,0.0,0.0,0.0,5.6454,5.6927,5.7494,5.8273,5.891,5.9406,5.9653,6.0114,6.0609,6.0609,6.0671,6.0757,6.0757,6.0818,6.0974,6.0974,6.0974,6.1034,6.1093,6.1093,6.0986,6.0415,5.9701,5.8916,5.8131,5.7346,5.6704,5.6454,5.5955,5.5348,5.4563,5.3778,5.2901,5.1701,5.0474,4.9349,4.8605,4.7204,4.5989,4.5498,0.0,0.0,0.0,0.0,0.0,0.0,0.0,4.06,4.0854,0.0,0.0,0.0,0.0,0.0,0.0,0.0,0.0,0.0,0.0,0.0,5.513,5.5304,5.6246,5.795,5.9648,6.0419,6.0456,6.2071,6.2805,6.2805,6.2805,6.2805,6.2805,6.2805,6.2805,6.2805,6.2805,6.3195,6.3694,6.3736,6.4117,6.4545,6.7909,6.7955,6.7891,6.7891,6.7688,6.7867,6.8681,6.8787,6.9035,6.9778,6.9885,6.9742,6.9305,7.0015,7.0157,6.9372,6.9097,6.8709,6.7963,6.6943,6.6061,0.0,0.0,6.3689,6.291,6.1388,6.0609,6.0574,0.0,0.0,5.8273,0.0,5.8237,5.8273,5.8273,5.8273,5.8343,5.9087,5.9406,5.9476,6.0291,6.0609,6.0609,6.0609,6.0609,6.0609,6.0609,6.0609,6.0609,6.0609,6.0696,6.0878,6.1034,6.1093,6.1093,6.1093,6.0522,5.9737,5.8916,5.8167,5.7382,5.6597,5.6383,5.6169,5.5384,5.4563,5.335,5.0994,4.9888,4.9115,4.8468,4.7035,4.604,4.6169,0.0,0.0,0.0,0.0,0.0,0.0,4.0999,4.0818,4.1615,0.0,0.0,0.0,0.0,0.0,0.0,0.0,0.0,5.0017,5.0257,0.0,5.4989,5.5259,5.62,5.781,5.9601,6.0419,6.0456,6.2071,6.2805,6.2805,6.2805,6.2805,6.2805,6.2805,6.2805,6.2805,6.2805,6.2805,6.2842,6.2842,6.2842,6.2842,6.7685,6.8182,6.8503,6.8503,6.8858,6.946,7.0274,7.038,7.0628,7.1372,7.1053,7.0628,7.0523,7.0239,6.9955,0.0,6.9671,6.9282,0.0,6.8185,6.7442,6.6097,6.5282,6.4503,6.3725,6.2733,6.2202,6.2202,0.0,0.0,0.0,5.8154,5.8094,5.8129,5.8571,5.8756,5.8792,5.953,6.0227,6.0691,6.0938,6.136,6.1847,6.1847,6.1947,6.1941,6.1411,6.1298,6.1317,6.0786,6.0609,6.0671,6.0732,6.0914,6.1093,6.1093,6.0522,5.9737,5.8952,5.8167,5.7382,5.6597,5.6383,5.6204,5.5384,5.4206,5.2886,5.1601,5.0673,4.9888,4.9115,4.815,4.716,4.6219,4.5652,0.0,0.0,0.0,0.0,0.0,0.0,4.223,0.0,4.252,0.0,0.0,0.0,0.0,0.0,0.0,0.0,0.0,5.0677,0.0,5.4989,5.5166,5.6108,5.781,5.9601,6.097,6.2071,6.2585,6.2805,6.2805,6.2805,6.2805,6.2805,6.2805,6.2805,6.2805,6.2805,6.2805,6.2805,6.2805,6.2805,6.2805,6.9354,6.9672,6.9954,6.9954,7.0342,7.0764,7.1258,7.1364,7.1505,7.1964,7.1611,7.1364,7.1364,7.0623,0.0,6.992,6.9813,6.9565,6.9106,6.8752,6.8152,6.7129,6.607,6.5258,6.4799,6.3741,0.0,6.3176,6.1905,6.0776,5.9858,5.9699,5.9636,5.9636,6.01,6.0282,6.0317,6.0774,6.123,6.1722,6.1722,6.1967,6.2389,6.2389,6.2455,6.2551,6.1993,6.1771,6.1552,6.1023,6.067,6.0485,6.0485,6.0671,6.0914,6.0914,6.0618,6.0048,5.9264,5.8538,5.781,5.7025,5.6597,5.6097,5.5027,5.3992,5.2993,5.1922,5.1066,5.0245,4.946,4.871,4.7793,4.6552,4.6131,4.5681,4.4803,0.0,0.0,0.0,0.0,0.0,0.0,4.3607,4.4005,0.0,0.0,0.0,0.0,0.0,0.0,5.0053,5.0886,5.249,5.493,5.5073,5.6015,5.7763,5.9516,6.1263,6.2805,6.2805,6.2805,6.2805,6.2805,6.2805,6.2805,6.2805,6.2805,6.2805,6.2805,6.2805,6.2805,6.2805,6.2805,6.2805,7.2148,7.2035,7.1995,0.0,7.1845,0.0,7.1763,7.1798,7.1798,7.1868,7.1833,7.1798,7.1798,7.1061,7.0437,7.0061,0.0,0.0,0.0,6.8746,6.8287,6.8217,6.6813,6.6005,6.597,6.4495,6.3688,6.3583,6.2845,6.2424,6.2389,6.2389,6.2389,6.2389,6.2389,6.2389,6.2389,6.2389,6.2424,6.2459,6.2459,6.2494,6.2564,6.2564,6.2564,6.2529,6.2494,6.2038,6.1441,6.1336,6.0938,6.0466,6.0396,6.0423,6.0547,6.0609,6.0696,6.064,5.9894,5.917,5.8503,5.7774,5.6989,5.599,5.4456,5.4063,5.3599,5.2101,5.1137,5.0352,4.9531,4.8782,4.7997,4.7212,4.6516,4.6068,4.5996,0.0,0.0,0.0,0.0,0.0,0.0,4.4874,4.5309,0.0,0.0,0.0,0.0,0.0,4.9401,5.0162,5.0995,5.2552,5.487,5.5003,5.5982,5.7765,5.9542,6.1263,6.2805,6.2805,6.2805,6.2805,6.2805,6.2805,6.2805,6.2805,6.2805,6.2805,6.2805,6.2805,6.2805,6.2805,6.2805,6.2805,0.0,0.0,7.1769,7.1769,7.1693,7.1903,7.2465,7.2535,7.2746,7.3378,7.2922,7.2535,7.2535,7.1868,7.1342,7.1317,7.0117,6.9449,6.9449,6.9273,6.8849,6.8252,6.7866,6.7374,6.6742,6.5829,6.4776,6.3583,6.3407,6.2986,6.2389,6.2389,6.2389,6.2389,6.2389,6.2389,6.2389,6.2389,6.274,6.3302,6.3302,6.3653,6.4179,6.4179,6.4179,6.4074,6.3512,6.3196,6.288,6.1687,6.1195,6.0979,6.0346,6.0171,6.0297,6.0547,6.0609,6.0494,5.9678,5.9017,5.8388,5.7605,5.6878,5.6133,5.5134,5.4456,5.3742,5.2814,5.1958,5.1173,5.0352,4.9567,4.8782,4.8032,4.7293,4.6588,4.6068,4.5982,0.0,0.0,4.5084,4.5236,4.5019,4.52,4.5562,0.0,0.0,0.0,4.8568,4.9945,5.0814,5.0995,5.2371,5.3711,5.4907,5.5595,5.717,5.9591,6.0005,6.1129,6.2805,6.2805,6.2805,6.2805,6.2805,6.2805,6.2805,6.2805,6.2805,6.2805,6.2805,6.2805,6.2805,6.2805,6.2805,6.2805,7.2746,7.2746,7.2746,7.2746,7.2746,7.2886,7.3308,7.3343,7.3518,7.394,7.3624,7.3343,7.3343,7.2676,7.2219,7.2219,7.078,6.9902,6.9902,6.9586,6.92,6.8779,6.8392,6.8006,6.7585,6.6813,6.5829,6.4636,6.4636,6.4214,6.3442,6.3442,6.3442,6.3442,6.3442,6.3442,6.3442,6.3442,6.3688,6.4109,6.4109,6.4355,6.4706,6.4706,6.4706,6.4671,6.425,6.3898,6.3477,6.2635,6.1862,6.123,6.0774,6.0388,6.0171,6.0297,6.0423,6.0415,5.9955,5.9158,5.8142,5.7029,5.6537,5.615,5.5384,5.4598,5.3813,5.3028,5.2243,5.1458,5.0637,5.0138,4.9495,4.8354,4.7818,4.7293,4.6552,4.6578,0.0,4.5714,4.6013,4.621,4.5888,4.6178,4.6721,4.7554,4.8025,0.0,4.9945,5.0814,5.1285,5.1285,5.2842,5.411,5.4907,5.614,5.785,6.004,6.009,6.103,6.2705,6.2705,6.2755,6.2805,6.2805,6.2805,6.2805,6.2805,6.2805,6.2805,6.2805,6.2805,6.2805,6.2805,6.2805,6.2805,7.401,7.401,7.401,7.401,7.401,7.401,7.401,7.401,7.401,7.401,7.401,7.401,7.401,7.3378,7.2992,7.2992,7.1658,7.0745,7.0534,6.9902,6.9516,6.9376,6.8744,6.8392,6.8392,6.7585,6.6813,6.604,6.604,6.5724,6.5057,6.4952,6.4882,6.4882,6.4776,6.4706,6.4706,6.4706,6.4706,6.4706,6.4706,6.4706,6.4706,6.4706,6.4706,6.4706,6.4706,6.432,6.3758,6.3618,6.2635,6.1441,6.1336,6.0739,6.0107,6.0107,6.0234,6.0333,6.0333,5.9294,5.7954,5.6674,5.6212,5.6019,5.5472,5.4617,5.3797,5.3171,5.2315,5.1494,5.0816,5.0566,5.0066,4.8746,4.8318,4.7925,4.7283,0.0,4.6972,4.6457,4.7011,4.7319,4.6902,4.7482,4.8206,4.9039,4.922,4.9872,5.1212,5.1393,5.1538,5.1647,5.3096,5.4327,5.5233,5.6635,5.8187,5.9786,5.9939,6.0879,6.2552,6.2552,6.2603,6.2705,6.2705,6.2705,6.2705,6.2705,6.2755,6.2755,6.2755,6.2755,6.2805,6.2805,6.2805,6.2755,7.401,7.401,7.401,7.401,7.401,7.401,7.401,7.401,7.401,7.401,7.401,7.401,7.401,7.3905,7.3799,7.3799,7.2957,7.1903,7.0604,7.0394,7.0043,6.9411,6.927,6.92,6.92,6.8428,6.762,6.6848,6.6848,6.6777,6.6637,6.6005,6.5689,6.5654,6.5022,6.4706,6.4706,6.4706,6.4706,6.4706,6.4706,6.4706,6.4706,6.4706,6.4706,6.4706,6.4706,6.4636,6.4425,6.3793,6.2986,6.2108,6.1511,6.0739,6.0107,6.0107,6.0107,6.0171,6.0171,5.9073,5.7846,5.714,5.6489,5.5957,5.6019,5.4882,5.3833,5.3832,5.2707,5.1637,5.153,5.0959,5.0423,5.0174,4.9032,4.8139,4.7997,0.0,4.7187,4.714,4.7335,4.7789,4.8453,4.8641,4.9075,4.9836,5.0524,5.1031,5.1285,5.1937,5.2625,5.3313,5.4218,5.5414,5.6826,5.708,5.8087,5.9786,5.9838,6.0726,6.2397,6.2397,6.2449,6.2449,6.2449,6.2449,6.2449,6.2449,6.25,6.2654,6.2654,6.2705,6.2805,6.2805,6.2705,6.2603,7.4391,7.4321,7.4182,7.3727,7.3657,7.3657,7.3657,7.3657,7.3657,7.3657,7.3657,7.3657,7.3657,7.3657,7.3657,7.3657,7.3422,7.2801,7.168,7.088,7.0359,7.0007,6.9586,6.9376,6.9376,6.9024,6.8463,6.7655,6.7655,6.7445,6.6988,6.6637,6.6497,6.6461,6.5689,6.5338,6.5303,6.4882,6.4706,6.4706,6.4706,6.4706,6.4706,6.4706,6.4706,6.4706,6.4706,6.4706,6.4671,6.432,6.3688,6.2915,6.2143,6.1371,6.0668,6.0212,6.0107,6.0001,5.9615,5.873,5.7736,5.7105,5.6387,5.5822,5.5993,5.5218,5.4349,5.3976,5.3084,5.2208,5.1779,5.1387,5.0994,5.0566,4.9888,0.0,4.8853,4.8543,4.8386,4.8478,4.8614,4.8892,4.9378,4.9502,4.9872,5.0669,5.1067,5.1466,5.19,5.2697,5.353,5.4327,5.5088,5.6029,5.7188,5.7188,5.8036,5.9683,5.9683,6.0606,6.2291,6.2291,6.2291,6.2433,6.2433,6.2433,6.2433,6.2433,6.2449,6.25,6.25,6.25,6.2603,6.2558,6.2544,6.2485,7.49,7.4622,7.4308,7.3717,7.3438,7.3334,7.3334,7.3334,7.3334,7.3334,7.3334,7.3334,7.3334,7.3334,7.3334,7.3334,7.3496,7.3332,7.2739,7.1567,7.081,7.0534,6.9762,6.9376,6.9376,6.9376,6.9095,6.8498,6.8498,6.8182,6.755,6.7374,6.7304,6.7269,6.6497,6.6145,6.6075,6.5303,6.4987,6.4987,6.4776,6.4706,6.4706,6.4706,6.4706,6.4706,6.4706,6.4706,6.4706,6.4706,6.4214,6.3442,6.2635,6.1897,6.1125,6.0352,6.0107,5.9966,5.9405,5.8562,5.7649,5.7233,5.6388,5.5706,5.5822,5.5334,5.4737,5.4188,5.3371,5.2671,5.2065,5.1815,5.1494,5.0887,0.0,5.0281,4.9674,4.9424,4.9365,4.946,4.96,4.9847,5.0164,5.0335,5.0705,5.1502,5.1574,5.1828,5.248,5.3277,5.4146,5.5124,5.5884,5.6573,5.7188,5.7188,5.8021,5.9615,5.9615,6.0501,6.2168,6.2168,6.2222,6.2328,6.2328,6.2328,6.2328,6.2328,6.2328,6.2344,6.2344,6.2344,6.2397,6.242,6.2354,6.2328,7.5561,7.5004,7.4482,7.4448,7.3821,7.3334,7.3334,7.3334,7.3334,7.3334,7.3334,7.3334,7.3334,7.3334,7.3334,7.3334,7.3334,7.3299,7.3229,7.2499,7.1621,7.0569,6.9762,6.9376,6.9376,6.9376,6.934,6.9305,6.9305,6.927,6.92,6.8463,6.8112,6.8076,6.7304,6.6918,6.6883,6.611,6.5794,6.5724,6.5022,6.4706,6.4706,6.4706,6.4706,6.4706,6.4706,6.4706,6.4706,6.4706,6.4214,6.3442,6.2635,6.1897,6.1125,6.0352,6.0107,6.0072,6.0036,5.8913,5.779,5.7719,5.6596,5.5566,5.5648,5.5107,5.4599,5.4863,5.3709,5.2659,5.2779,5.2172,5.1672,5.1601,0.0,0.0,5.0423,4.9781,4.9365,4.946,4.96,5.0063,5.0958,5.1122,5.1538,5.2335,5.2408,5.2444,5.248,5.3277,5.4363,5.5848,5.6681,5.7152,5.7188,5.7188,5.8021,5.9615,5.9615,6.0448,6.2005,6.2005,6.2005,6.2005,6.2005,6.2005,6.2005,6.2005,6.2114,6.2185,6.2185,6.2291,6.2397,6.2397,6.2344,6.2222,7.6037,7.5691,7.5206,7.4237,7.3822,7.3441,7.2991,7.2922,7.2922,7.2922,7.2922,7.2922,7.2922,7.2922,7.2922,7.2922,7.3088,7.3088,7.3088,7.2557,7.1682,7.0342,6.9722,6.9376,6.9376,6.9376,6.9376,6.9376,6.9376,6.9376,6.9376,6.9095,6.8919,6.8919,6.8112,6.776,6.769,6.6918,6.6321,6.5865,6.5549,6.5162,6.4706,6.4706,6.4706,6.4706,6.4706,6.4706,6.4706,6.4706,6.453,6.4144,6.3372,6.2599,6.1722,6.0458,6.0107,6.0107,6.0107,5.9334,5.8421,5.793,5.6982,5.6069,5.5672,5.5379,5.5199,5.4909,5.4472,5.3869,5.3064,5.2636,5.2279,5.1779,0.0,5.1244,5.1244,5.0994,5.078,5.0865,5.1011,5.1215,5.1682,5.186,5.2062,5.248,5.248,5.2733,5.3204,5.4436,5.5631,5.6717,5.7043,5.7188,5.7188,5.7188,5.7768,5.8854,5.9361,6.0194,6.1281,6.1788,6.2005,6.2005,6.2005,6.2005,6.2005,6.2005,6.2005,6.206,6.206,6.2114,6.2168,6.2168,6.2114,6.206,7.6568,7.6292,7.5706,7.4361,7.3947,7.3533,7.2774,7.2671,7.2671,7.2671,7.2671,7.2671,7.2671,7.2671,7.2671,7.2671,7.2838,7.2922,7.2922,7.2359,7.1489,7.019,6.9782,6.9547,6.9302,6.9376,6.9376,6.9376,6.9376,6.9376,6.9376,6.9376,6.9376,6.9376,6.8814,6.8568,6.8533,6.7725,6.7093,6.6567,6.6005,6.5479,6.4918,6.4673,6.4533,6.4533,6.4533,6.4533,6.4533,6.4568,6.4637,6.4497,6.3828,6.288,6.1792,6.0493,6.0107,6.0107,6.0107,5.9721,5.9089,5.807,5.7193,5.642,5.5683,5.5566,5.5507,5.515,5.5036,5.4614,5.3708,5.3207,5.2707,5.2172,5.1851,5.1708,5.1708,5.1708,5.1708,5.1708,5.1808,5.1956,5.2102,5.2198,5.2376,5.248,5.2733,5.3313,5.4363,5.5414,5.6355,5.7152,5.7188,5.7188,5.7188,5.7188,5.7587,5.842,5.9216,6.0013,6.0846,6.1643,6.2005,6.2005,6.2005,6.2005,6.2005,6.2005,6.2005,6.2005,6.2005,6.2005,6.2005,6.2005,6.2005,6.2005,7.7223,7.6637,7.5878,7.5085,7.4292,7.3533,7.2774,7.2671,7.2671,7.2671,7.2671,7.2671,7.2671,7.2671,7.2671,7.2671,7.2671,7.2671,7.2671,7.2195,7.1249,6.9993,7.012,6.9847,6.9113,6.9302,6.9376,6.9376,6.9376,6.9376,6.9376,6.9376,6.9376,6.9376,6.9376,6.9376,6.934,6.8568,6.8217,6.8076,6.6318,6.5617,6.5512,6.4565,6.418,6.418,6.418,6.418,6.418,6.4358,6.4393,6.4253,6.376,6.2529,6.116,6.0352,6.0107,6.0107,6.0107,6.0107,5.9721,5.8211,5.7193,5.642,5.5683,5.5507,5.5566,5.5648,5.5221,5.4859,5.4969,5.3851,5.2886,5.2886,5.2208,5.1708,5.1708,5.1708,5.1708,5.1708,5.1808,5.1956,5.2102,5.2198,5.2376,5.2516,5.3277,5.4399,5.5921,5.5993,5.6355,5.7152,5.7188,5.7188,5.7188,5.7188,5.7587,5.8383,5.9216,6.0013,6.0846,6.1643,6.2005,6.2005,6.2005,6.2005,6.2005,6.2005,6.2005,6.2005,6.2005,6.2005,6.2005,6.2005,6.2005,6.2005,7.7223,7.7051,7.6464,7.5119,7.474,7.4154,7.2877,7.2671,7.2671,7.2671,7.2671,7.2671,7.2671,7.2671,7.2671,7.2671,7.2671,7.2671,7.2671,7.2548,7.2043,7.1041,7.0367,6.9938,6.9882,6.9433,6.9227,6.9376,6.9376,6.9376,6.9376,6.9376,6.9376,6.9376,6.9376,6.9376,6.9376,6.8982,6.8488,6.7893,6.6694,6.5889,6.5297,6.4493,6.418,6.418,6.418,6.418,6.418,6.4251,6.4251,6.4183,6.3554,6.2746,6.1897,6.116,6.0528,6.0107,6.0107,6.0107,5.9861,5.8878,5.8035,5.7228,5.6455,5.5894,5.5566,5.5648,5.553,5.5327,5.504,5.4633,5.4065,5.3064,5.2671,5.2315,5.1779,5.1708,5.1708,5.1708,5.1758,5.1808,5.1956,5.2102,5.2414,5.3135,5.4496,5.5486,5.5957,5.6536,5.6935,5.7188,5.7188,5.7188,5.7188,5.7188,5.7333,5.7587,5.8963,5.9724,6.0013,6.139,6.2005,6.2005,6.2005,6.2005,6.2005,6.2005,6.2005,6.2005,6.2005,6.2005,6.2005,6.2005,6.2005,6.2005,7.7223,7.6982,7.6395,7.5119,7.4671,7.4085,7.2843,7.2671,7.2671,7.2671,7.2671,7.2671,7.2671,7.2671,7.2671,7.2671,7.2671,7.2671,7.2671,7.2671,7.2464,7.1981,7.1053,7.0357,6.9966,6.9589,6.9392,6.9302,6.9302,6.9302,6.9376,6.9376,6.9376,6.9376,6.9302,6.9302,6.9302,6.9043,6.8613,6.8124,6.7168,6.6329,6.553,6.4693,6.4242,6.3965,6.3965,6.3965,6.3965,6.4037,6.4109,6.4041,6.3415,6.275,6.2115,6.138,6.0639,6.0107,6.0107,6.0107,6.0001,5.9545,5.8632,5.7579,5.6771,5.6034,5.5507,5.5625,5.5648,5.5623,5.539,5.5147,5.4758,5.3956,5.3528,5.3064,5.2279,5.2172,5.2065,5.1744,5.1708,5.1758,5.1858,5.2243,5.3037,5.4314,5.5401,5.6138,5.6464,5.6935,5.7188,5.7188,5.7188,5.7188,5.7188,5.7188,5.7188,5.7224,5.8818,5.9615,5.9651,6.1281,6.2005,6.2005,6.2005,6.2005,6.2005,6.2005,6.2005,6.2005,6.2005,6.2005,6.2005,6.2005,6.2005,6.2005,7.712,7.6568,7.5844,7.4981,7.4257,7.3533,7.2774,7.2671,7.2671,7.2671,7.2671,7.2671,7.2671,7.2671,7.2671,7.2671,7.2671,7.2671,7.2671,7.2671,7.2671,7.2671,7.1981,7.0994,6.9713,6.9767,6.9617,6.9078,6.9078,6.9153,6.9376,6.9376,6.9376,6.9302,6.9153,6.9078,6.9078,6.8781,6.8705,6.8559,6.7642,6.6837,6.611,6.5089,6.422,6.36,6.36,6.36,6.36,6.382,6.3999,6.4076,6.3345,6.2579,6.1981,6.1282,6.0609,6.0107,6.0107,6.0107,6.0107,6.0107,5.8983,5.7719,5.6877,5.6139,5.5578,5.5507,5.5625,5.5706,5.5879,5.5446,5.5095,5.5151,5.4598,5.3849,5.31,5.2993,5.2707,5.1993,5.1922,5.1937,5.2072,5.2838,5.3979,5.5685,5.5966,5.6428,5.7152,5.7188,5.7188,5.7188,5.7188,5.7188,5.7188,5.7188,5.7188,5.7224,5.8746,5.9542,5.9651,6.1208,6.1933,6.2005,6.2005,6.2005,6.2005,6.2005,6.2005,6.2005,6.2005,6.2005,6.2005,6.2005,6.2005,6.2005,7.6464,7.6223,7.5671,7.4292,7.3912,7.3533,7.2774,7.2671,7.2671,7.2671,7.2671,7.2671,7.2671,7.2671,7.2671,7.2671,7.2671,7.2671,7.2671,7.2671,7.2671,7.2671,7.2498,7.1705,7.0269,6.9887,6.935,6.8781,6.8781,6.8781,6.8857,6.8857,6.8857,6.8857,6.8781,6.8781,6.8781,6.8551,6.8474,6.8405,6.7446,6.6608,6.5883,6.5014,6.422,6.36,6.36,6.36,6.36,6.3673,6.382,6.3965,6.3791,6.2927,6.1917,6.1844,6.0897,5.9879,6.0107,6.0107,6.0107,6.0107,5.9405,5.8527,5.7719,5.6947,5.621,5.5613,5.5507,5.5566,5.5706,5.5738,5.5532,5.5095,5.4955,5.467,5.3885,5.3778,5.3706,5.3528,5.3528,5.3528,5.3528,5.4399,5.5127,5.5757,5.6422,5.6906,5.7188,5.7188,5.7188,5.7188,5.7188,5.7188,5.7188,5.7188,5.7188,5.7188,5.8202,5.8999,5.9651,6.0629,6.1426,6.2005,6.2005,6.2005,6.2005,6.2005,6.2005,6.2005,6.2005,6.2005,6.2005,6.2005,6.2005,6.2005,7.5352,7.4905,7.439,7.3566,7.3154,7.2777,7.2399,7.2416,7.2501,7.2501,7.2586,7.2671,7.2671,7.2671,7.2671,7.2671,7.2671,7.2671,7.2671,7.2671,7.2671,7.2671,7.2326,7.1567,7.0429,6.9831,6.9194,6.8551,6.8551,6.8628,6.8705,6.8705,6.8705,6.8705,6.8628,6.8551,6.8551,6.8319,6.8241,6.8206,6.7748,6.6876,6.5842,6.5428,6.4565,6.36,6.36,6.36,6.36,6.36,6.3673,6.3747,6.3747,6.2853,6.1745,6.1883,6.0904,5.9779,5.9943,6.0008,6.0107,6.0107,5.9826,5.9229,5.807,5.7193,5.6385,5.5648,5.5507,5.5566,5.5648,5.5822,5.5851,5.5573,5.5667,5.5491,5.4706,5.4598,5.4456,5.4063,5.4028,5.417,5.4563,5.5062,5.5666,5.6233,5.6717,5.7036,5.7188,5.7188,5.7188,5.7188,5.7188,5.7188,5.7188,5.7188,5.7188,5.7188,5.8021,5.8637,5.9072,6.0267,6.1027,6.1462,6.186,6.2005,6.2005,6.2005,6.195,6.1895,6.1895,6.1876,6.1784,6.1787,6.1823,6.1784,7.4206,7.3557,7.3044,7.2908,7.2395,7.1985,7.1985,7.2159,7.2245,7.2245,7.2501,7.2586,7.2586,7.2671,7.2671,7.2671,7.2671,7.2602,7.2464,7.2464,7.2429,7.2291,7.167,7.0946,7.0222,6.9601,6.8956,6.8319,6.8319,6.8397,6.8628,6.8628,6.8628,6.8628,6.8397,6.8319,6.8319,6.8162,6.8083,6.8083,6.7945,6.7083,6.5876,6.5738,6.4807,6.36,6.36,6.36,6.36,6.36,6.36,6.36,6.36,6.2779,6.1708,6.164,6.0806,5.9923,5.9783,5.9879,6.0043,6.0043,6.0072,5.9721,5.8351,5.7368,5.6596,5.5859,5.5613,5.5507,5.5683,5.5764,5.5936,5.6141,5.6273,5.6114,5.5491,5.5419,5.5169,5.4491,5.442,5.467,5.5348,5.5526,5.5883,5.6688,5.6881,5.7036,5.7138,5.7188,5.7188,5.7188,5.7188,5.7188,5.7188,5.7188,5.7188,5.7188,5.7876,5.8275,5.8456,5.9941,6.0665,6.0846,6.1625,6.195,6.195,6.195,6.184,6.1764,6.1764,6.1708,6.1615,6.1604,6.162,6.1573,7.342,7.3147,7.2908,7.2258,7.2053,7.1985,7.1985,7.1985,7.2072,7.2072,7.2245,7.2331,7.2331,7.2586,7.2671,7.2671,7.2671,7.2395,7.1705,7.1636,7.136,7.0739,7.0601,7.0187,6.9428,6.9325,6.8877,6.8162,6.8162,6.8162,6.8162,6.8162,6.8162,6.8162,6.8162,6.8162,6.8162,6.8083,6.8083,6.8049,6.7394,6.6635,6.5807,6.5117,6.4324,6.36,6.36,6.36,6.36,6.36,6.36,6.36,6.36,6.3013,6.2292,6.1743,6.1017,6.0321,5.9795,5.9683,5.9879,5.9879,5.9943,5.9861,5.9053,5.8211,5.7403,5.6631,5.5929,5.5507,5.5507,5.5683,5.5764,5.5936,5.6106,5.6217,5.624,5.624,5.6204,5.6097,5.6062,5.6133,5.624,5.624,5.6384,5.66,5.676,5.6917,5.6984,5.7138,5.7188,5.7188,5.7188,5.7188,5.7188,5.7188,5.7188,5.7188,5.7297,5.7732,5.842,5.9361,6.0158,6.0846,6.1515,6.184,6.1784,6.1708,6.1651,6.1651,6.1651,6.1651,6.1595,6.1615,6.1588,6.1592,7.228,7.2144,7.1953,7.1614,7.158,7.158,7.158,7.1722,7.181,7.181,7.1985,7.2022,7.1576,7.1335,7.1311,7.1394,7.1394,7.1256,7.0912,7.0877,7.0739,7.0394,6.998,6.9601,6.9291,6.8842,6.8463,6.8083,6.8083,6.8083,6.8083,6.8083,6.8083,6.8083,6.8083,6.8083,6.8083,6.8083,6.8083,6.8049,6.729,6.6531,6.5807,6.5014,6.422,6.36,6.36,6.36,6.36,6.36,6.36,6.36,6.36,6.3082,6.2324,6.1601,6.0982,6.0289,5.9594,5.9586,5.9718,5.9814,5.9879,5.9873,5.9685,5.9018,5.8105,5.6842,5.635,5.5999,5.5578,5.5625,5.5706,5.5764,5.5993,5.6197,5.6308,5.6328,5.6383,5.6383,5.6383,5.6383,5.6383,5.6383,5.6437,5.66,5.6653,5.6812,5.6984,5.7036,5.7138,5.7188,5.7188,5.7188,5.7188,5.7188,5.7188,5.7188,5.7188,5.7369,5.7768,5.8565,5.9056,5.9437,6.0593,6.1079,6.106,6.1472,6.1501,6.1444,6.1444,6.1386,6.1328,6.1328,6.1283,6.1331]},{"header":{"parameterUnit":"m.s-1","parameterCategory":1,"la1":30.6,"la2":28.766,"lo1":-90.7593,"lo2":-88.6598,"dy":0.0162,"dx":0.0183,"nx":116,"ny":114,"refTime":"2024-05-05T12:00:00:Z","depth":0,"parameterNumber":3,"parameterNumberName":"V-component_of_WINDS"},"data":[0.0,0.0,0.0,0.0,0.0,0.0,0.0,0.0,0.0,0.0,0.0,0.0,0.0,0.0,0.0,0.0,0.0,0.0,0.0,0.0,0.0,0.0,0.0,0.0,0.0,0.0,0.0,0.0,0.0,0.0,0.0,0.0,0.0,0.0,0.0,0.0,0.0,0.0,0.0,0.0,0.0,0.0,0.0,0.0,0.0,0.0,0.0,0.0,0.0,0.0,0.0,0.0,0.0,0.0,0.0,0.0,0.0,0.0,0.0,0.0,0.0,0.0,0.0,0.0,0.0,0.0,0.0,0.0,0.0,0.0,0.0,0.0,0.0,0.0,0.0,0.0,0.0,0.0,0.0,0.0,0.0,0.0,0.0,0.0,0.0,0.0,0.0,0.0,0.0,0.0,0.0,0.0,0.0,0.0,0.0,0.0,0.0,0.0,0.0,0.0,0.0,0.0,0.0,0.0,0.0,0.0,0.0,0.0,0.0,0.0,0.0,0.0,0.0,0.0,0.0,0.0,0.0,0.0,0.0,0.0,0.0,0.0,0.0,0.0,0.0,0.0,0.0,0.0,0.0,0.0,0.0,0.0,0.0,0.0,0.0,0.0,0.0,0.0,0.0,0.0,0.0,0.0,0.0,0.0,0.0,0.0,0.0,0.0,0.0,0.0,0.0,0.0,0.0,0.0,0.0,0.0,0.0,0.0,0.0,0.0,0.0,0.0,0.0,0.0,0.0,0.0,0.0,0.0,0.0,0.0,0.0,0.0,0.0,0.0,0.0,0.0,0.0,0.0,0.0,0.0,0.0,0.0,0.0,0.0,0.0,0.0,0.0,0.0,0.0,0.0,0.0,0.0,0.0,0.0,0.0,0.0,0.0,0.0,0.0,0.0,0.0,0.0,0.0,0.0,0.0,0.0,0.0,0.0,0.0,0.0,0.0,0.0,0.0,0.0,0.0,0.0,0.0,0.0,0.0,0.0,0.0,0.0,0.0,0.0,0.0,0.0,0.0,0.0,0.0,0.0,0.0,0.0,0.0,0.0,0.0,0.0,0.0,0.0,0.0,0.0,0.0,0.0,0.0,0.0,0.0,0.0,0.0,0.0,0.0,0.0,0.0,0.0,0.0,0.0,0.0,0.0,0.0,0.0,0.0,0.0,0.0,0.0,0.0,0.0,0.0,0.0,0.0,0.0,0.0,0.0,0.0,0.0,0.0,0.0,0.0,0.0,0.0,0.0,0.0,0.0,0.0,0.0,0.0,0.0,0.0,0.0,0.0,0.0,0.0,0.0,0.0,0.0,0.0,0.0,0.0,0.0,0.0,0.0,0.0,0.0,0.0,0.0,0.0,0.0,0.0,0.0,0.0,0.0,0.0,0.0,0.0,0.0,0.0,0.0,0.0,0.0,0.0,0.0,0.0,0.0,0.0,0.0,0.0,0.0,0.0,0.0,0.0,0.0,0.0,0.0,0.0,0.0,0.0,0.0,0.0,0.0,0.0,0.0,0.0,0.0,0.0,0.0,0.0,0.0,0.0,0.0,0.0,0.0,0.0,0.0,0.0,0.0,0.0,0.0,0.0,0.0,0.0,0.0,0.0,0.0,0.0,0.0,0.0,0.0,0.0,0.0,0.0,0.0,0.0,0.0,0.0,0.0,0.0,0.0,0.0,0.0,0.0,0.0,0.0,0.0,0.0,0.0,0.0,0.0,0.0,0.0,0.0,0.0,0.0,0.0,0.0,0.0,0.0,0.0,0.0,0.0,0.0,0.0,0.0,0.0,0.0,0.0,0.0,0.0,0.0,0.0,0.0,0.0,0.0,0.0,0.0,0.0,0.0,0.0,0.0,0.0,0.0,0.0,0.0,0.0,0.0,0.0,0.0,0.0,0.0,0.0,0.0,0.0,0.0,0.0,0.0,0.0,0.0,0.0,0.0,0.0,0.0,0.0,0.0,0.0,0.0,0.0,0.0,0.0,0.0,0.0,0.0,0.0,0.0,0.0,0.0,0.0,0.0,0.0,0.0,0.0,0.0,0.0,0.0,0.0,0.0,0.0,0.0,0.0,0.0,0.0,0.0,0.0,0.0,0.0,0.0,0.0,0.0,0.0,0.0,0.0,0.0,0.0,0.0,0.0,0.0,0.0,0.0,0.0,0.0,0.0,0.0,0.0,0.0,0.0,0.0,0.0,0.0,0.0,0.0,0.0,0.0,0.0,0.0,0.0,0.0,0.0,0.0,0.0,0.0,0.0,0.0,0.0,0.0,0.0,0.0,0.0,0.0,0.0,0.0,0.0,0.0,0.0,0.0,0.0,0.0,0.0,0.0,0.0,0.0,0.0,0.0,0.0,0.0,0.0,0.0,0.0,0.0,0.0,0.0,0.0,0.0,0.0,0.0,0.0,0.0,0.0,0.0,0.0,0.0,0.0,0.0,0.0,0.0,0.0,0.0,0.0,0.0,0.0,0.0,0.0,0.0,0.0,0.0,0.0,0.0,0.0,0.0,0.0,0.0,0.0,0.0,0.0,0.0,0.0,0.0,0.0,0.0,0.0,0.0,0.0,0.0,0.0,0.0,0.0,0.0,0.0,0.0,0.0,0.0,0.0,0.0,0.0,0.0,0.0,0.0,0.0,0.0,0.0,0.0,0.0,0.0,0.0,0.0,0.0,0.0,0.0,0.0,0.0,0.0,0.0,0.0,0.0,0.0,0.0,0.0,0.0,0.0,0.0,0.0,0.0,0.0,0.0,0.0,0.0,0.0,0.0,0.0,0.0,0.0,0.0,0.0,0.0,0.0,0.0,0.0,0.0,0.0,0.0,0.0,0.0,0.0,0.0,0.0,0.0,0.0,0.0,0.0,0.0,0.0,0.0,0.0,0.0,0.0,0.0,0.0,0.0,0.0,0.0,0.0,0.0,0.0,0.0,0.0,0.0,0.0,0.0,0.0,0.0,0.0,0.0,0.0,0.0,0.0,0.0,0.0,0.0,0.0,0.0,0.0,0.0,0.0,0.0,0.0,0.0,0.0,0.0,0.0,0.0,0.0,0.0,0.0,0.0,0.0,0.0,0.0,0.0,0.0,0.0,0.0,0.0,0.0,0.0,0.0,0.0,0.0,0.0,0.0,0.0,0.0,0.0,0.0,0.0,0.0,0.0,0.0,0.0,0.0,0.0,0.0,0.0,0.0,0.0,0.0,0.0,0.0,0.0,0.0,0.0,0.0,0.0,0.0,0.0,0.0,0.0,0.0,0.0,0.0,0.0,0.0,0.0,0.0,0.0,0.0,0.0,0.0,0.0,0.0,0.0,0.0,0.0,0.0,0.0,0.0,0.0,0.0,0.0,0.0,0.0,0.0,0.0,0.0,0.0,0.0,0.0,0.0,0.0,0.0,0.0,0.0,0.0,0.0,0.0,0.0,0.0,0.0,0.0,0.0,0.0,0.0,0.0,0.0,0.0,0.0,0.0,0.0,0.0,0.0,0.0,0.0,0.0,0.0,0.0,0.0,0.0,0.0,0.0,0.0,0.0,0.0,0.0,0.0,0.0,0.0,0.0,0.0,0.0,0.0,0.0,0.0,0.0,0.0,0.0,0.0,0.0,0.0,0.0,0.0,0.0,0.0,0.0,0.0,0.0,0.0,0.0,0.0,0.0,0.0,0.0,0.0,0.0,0.0,0.0,0.0,0.0,0.0,0.0,0.0,0.0,0.0,0.0,0.0,0.0,0.0,0.0,0.0,0.0,0.0,0.0,0.0,0.0,0.0,0.0,0.0,0.0,0.0,0.0,0.0,0.0,0.0,0.0,0.0,0.0,0.0,0.0,0.0,0.0,0.0,0.0,0.0,0.0,0.0,0.0,0.0,0.0,0.0,0.0,0.0,0.0,0.0,0.0,0.0,0.0,0.0,0.0,0.0,0.0,0.0,0.0,0.0,0.0,0.0,0.0,0.0,0.0,0.0,0.0,0.0,0.0,0.0,0.0,0.0,0.0,0.0,0.0,0.0,0.0,0.0,0.0,0.0,0.0,0.0,0.0,0.0,0.0,0.0,0.0,0.0,0.0,0.0,0.0,0.0,0.0,0.0,0.0,0.0,0.0,0.0,0.0,0.0,0.0,0.0,0.0,0.0,0.0,0.0,0.0,0.0,0.0,0.0,0.0,0.0,0.0,0.0,0.0,0.0,0.0,0.0,0.0,0.0,0.0,0.0,0.0,0.0,0.0,0.0,0.0,0.0,0.0,0.0,0.0,0.0,0.0,0.0,0.0,0.0,0.0,0.0,0.0,0.0,0.0,0.0,0.0,0.0,0.0,0.0,0.0,0.0,0.0,0.0,0.0,0.0,0.0,0.0,0.0,0.0,0.0,0.0,0.0,0.0,0.0,0.0,0.0,0.0,0.0,0.0,0.0,0.0,0.0,0.0,0.0,0.0,0.0,0.0,0.0,0.0,0.0,0.0,0.0,0.0,0.0,0.0,0.0,0.0,0.0,0.0,0.0,0.0,0.0,0.0,0.0,0.0,0.0,0.0,0.0,0.0,0.0,0.0,0.0,0.0,0.0,0.0,0.0,0.0,0.0,0.0,0.0,0.0,0.0,0.0,0.0,0.0,0.0,0.0,0.0,0.0,0.0,0.0,0.0,0.0,0.0,0.0,0.0,0.0,0.0,0.0,0.0,0.0,0.0,0.0,0.0,0.0,0.0,0.0,0.0,0.0,0.0,0.0,0.0,0.0,0.0,0.0,0.0,0.0,0.0,0.0,0.0,0.0,0.0,0.0,0.0,0.0,0.0,0.0,0.0,0.0,0.0,0.0,0.0,0.0,0.0,0.0,0.0,0.0,0.0,0.0,0.0,0.0,0.0,0.0,0.0,0.0,0.0,0.0,0.0,0.0,0.0,0.0,0.0,0.0,0.0,0.0,0.0,0.0,0.0,0.0,0.0,0.0,0.0,0.0,0.0,0.0,0.0,0.0,0.0,0.0,0.0,0.0,0.0,0.0,0.0,0.0,0.0,0.0,0.0,0.0,0.0,0.0,0.0,0.0,0.0,0.0,0.0,0.0,0.0,0.0,0.0,0.0,0.0,0.0,0.0,0.0,0.0,0.0,0.0,0.0,0.0,0.0,0.0,0.0,0.0,0.0,0.0,0.0,0.0,0.0,0.0,0.0,0.0,0.0,0.0,0.0,0.0,0.0,0.0,0.0,0.0,0.0,0.0,0.0,0.0,0.0,0.0,0.0,0.0,0.0,0.0,0.0,0.0,0.0,0.0,0.0,0.0,0.0,0.0,0.0,0.0,0.0,0.0,0.0,0.0,0.0,0.0,0.0,0.0,0.0,0.0,0.0,0.0,0.0,0.0,0.0,0.0,0.0,0.0,0.0,0.0,0.0,0.0,0.0,0.0,0.0,0.0,0.0,0.0,0.0,0.0,0.0,0.0,0.0,0.0,0.0,0.0,0.0,0.0,0.0,0.0,0.0,0.0,0.0,0.0,0.0,0.0,0.0,0.0,0.0,0.0,0.0,0.0,0.0,0.0,0.0,0.0,0.0,0.0,0.0,0.0,0.0,0.0,0.0,0.0,0.0,0.0,0.0,0.0,0.0,0.0,0.0,0.0,0.0,0.0,0.0,0.0,0.0,0.0,0.0,0.0,0.0,0.0,0.0,0.0,0.0,0.0,0.0,0.0,0.0,0.0,0.0,0.0,0.0,0.0,0.0,0.0,0.0,0.0,0.0,0.0,0.0,0.0,0.0,0.0,0.0,0.0,0.0,0.0,0.0,0.0,0.0,0.0,0.0,0.0,0.0,0.0,0.0,0.0,0.0,0.0,0.0,0.0,0.0,0.0,0.0,0.0,0.0,0.0,0.0,0.0,0.0,0.0,0.0,0.0,0.0,0.0,0.0,0.0,0.0,0.0,0.0,0.0,0.0,0.0,0.0,0.0,0.0,0.0,0.0,0.0,0.0,0.0,0.0,0.0,0.0,0.0,0.0,0.0,0.0,0.0,0.0,0.0,0.0,0.0,0.0,0.0,0.0,0.0,0.0,0.0,0.0,0.0,0.0,0.0,0.0,0.0,0.0,0.0,0.0,0.0,0.0,0.0,0.0,0.0,0.0,0.0,0.0,0.0,0.3909,0.0,0.0,0.0,0.0,0.0,0.0,0.0,0.0,0.0,0.0,0.0,0.0,0.0,0.0,0.0,0.0,0.0,0.0,0.0,0.0,0.0,0.0,0.0,0.0,0.4353,0.4402,0.4402,0.4564,0.467,0.4726,0.0,0.0,0.0,0.0,0.0,0.5403,0.5403,0.5453,0.5546,0.5648,0.5639,0.5546,0.5437,0.5141,0.466,0.0,0.0,0.0,0.0,0.0,0.0,0.0,0.0,0.0,0.0,0.0,0.0,0.0,0.0,0.0,0.0,0.0,0.0,0.0,0.0,0.0,0.0,0.0,0.0,0.0,0.0,0.0,0.0,0.0,0.0,0.0,0.0,0.0,0.0,0.0,0.0,0.0,0.0,0.0,0.0,0.0,0.0,0.0,0.0,0.0,0.0,0.0,0.0,0.0,0.0,0.0,0.0,0.0,0.0,0.0,0.0,0.0,0.0,0.0,0.0,0.0,0.0,0.0,0.0,0.0,0.0,0.0,0.0,0.0,0.0,0.0,0.4435,0.0,0.0,0.0,0.0,0.0,0.0,0.0,0.0,0.0,0.0,0.0,0.0,0.0,0.0,0.0,0.0,0.0,0.0,0.0,0.0,0.0,0.4376,0.4409,0.4504,0.4603,0.4636,0.48,0.4956,0.5056,0.5319,0.55,0.5597,0.5791,0.5966,0.6125,0.6125,0.6204,0.6371,0.6406,0.6441,0.6476,0.6476,0.5992,0.5139,0.5106,0.0,0.0,0.0,0.0,0.0,0.0,0.0,0.0,0.0,0.0,0.0,0.0,0.0,0.0,0.0,0.0,0.0,0.0,0.0,0.0,0.0,0.0,0.0,0.0,0.0,0.0,0.0,0.0,0.0,0.0,0.0,0.0,0.0,0.0,0.0,0.0,0.0,0.0,0.0,0.0,0.0,0.0,0.0,0.0,0.0,0.0,0.0,0.0,0.0,0.0,0.0,0.0,0.0,0.0,0.0,0.0,0.0,0.0,0.0,0.0,0.0,0.0,0.0,0.5659,0.5812,0.5795,0.5896,0.5896,0.5876,0.5516,0.5329,0.5184,0.0,0.0,0.0,0.0,0.0,0.0,0.0,0.0,0.0,0.0,0.0,0.0,0.0,0.0,0.0,0.0,0.0,0.0,0.0,0.0,0.4639,0.4813,0.4857,0.4935,0.5198,0.5343,0.5405,0.5457,0.58,0.6002,0.5993,0.6195,0.6309,0.6336,0.6336,0.6344,0.6371,0.6599,0.6768,0.6936,0.6936,0.6722,0.645,0.6292,0.5971,0.564,0.0,0.0,0.0,0.0,0.0,0.0,0.0,0.0,0.0,0.0,0.0,0.0,0.0,0.0,0.0,0.0,0.0,0.0,0.0,0.0,0.0,0.0,0.0,0.0,0.0,0.0,0.0,0.0,0.0,0.0,0.0,0.0,0.0,0.0,0.0,0.0,0.0,0.0,0.0,0.0,0.0,0.4163,0.3967,0.0,0.0,0.0,0.0,0.0,0.0,0.0,0.0,0.0,0.0,0.0,0.0,0.0,0.6149,0.608,0.6178,0.6139,0.5965,0.6157,0.6317,0.6327,0.6542,0.6647,0.6647,0.6583,0.0,0.5523,0.5523,0.0,0.0,0.0,0.0,0.0,0.0,0.0,0.0,0.0,0.0,0.0,0.0,0.0,0.0,0.0,0.0,0.0,0.0,0.0,0.0,0.0,0.5017,0.5158,0.5402,0.5545,0.5766,0.5927,0.6097,0.6298,0.6474,0.6566,0.6782,0.7003,0.7003,0.7113,0.7343,0.7426,0.7518,0.761,0.761,0.7564,0.7472,0.738,0.693,0.6107,0.6107,0.0,0.0,0.0,0.0,0.0,0.0,0.0,0.0,0.0,0.0,0.0,0.0,0.0,0.0,0.0,0.0,0.0,0.0,0.0,0.0,0.0,0.0,0.0,0.0,0.0,0.0,0.0,0.0,0.0,0.0,0.0,0.0,0.0,0.0,0.0,0.0,0.0,0.0,0.0,0.4635,0.4677,0.4649,0.4731,0.4846,0.0,0.0,0.0,0.0,0.0,0.0,0.0,0.0,0.0,0.5485,0.6348,0.6873,0.6857,0.6806,0.6786,0.6697,0.6743,0.7022,0.731,0.7427,0.7539,0.7756,0.7756,0.7512,0.7068,0.6551,0.6194,0.6085,0.0,0.0,0.0,0.0,0.5611,0.5551,0.0,0.0,0.0,0.0,0.0,0.0,0.0,0.0,0.0,0.0,0.0,0.0,0.5067,0.5264,0.5461,0.5658,0.5864,0.6099,0.6358,0.6469,0.6676,0.6941,0.6997,0.7258,0.7674,0.7741,0.801,0.8385,0.8442,0.8573,0.8621,0.8621,0.8592,0.8534,0.8534,0.7862,0.6777,0.6723,0.6587,0.6379,0.0,0.0,0.0,0.0,0.0,0.0,0.0,0.0,0.0,0.0,0.0,0.0,0.0,0.0,0.0,0.0,0.0,0.0,0.0,0.0,0.0,0.0,0.0,0.0,0.0,0.0,0.0,0.0,0.0,0.0,0.0,0.0,0.0,0.0,0.0,0.0,0.0,0.5188,0.5247,0.5331,0.5497,0.5621,0.0,0.0,0.0,0.0,0.0,0.0,0.5857,0.609,0.6204,0.6013,0.6763,0.7197,0.7221,0.7337,0.7432,0.7377,0.7377,0.7657,0.8096,0.8212,0.8329,0.8445,0.8445,0.839,0.8274,0.75,0.7079,0.6962,0.6934,0.6866,0.6686,0.6444,0.6274,0.6101,0.0,0.0,0.0,0.0,0.0,0.0,0.0,0.0,0.0,0.0,0.0,0.5349,0.5517,0.5723,0.593,0.6145,0.6342,0.6463,0.6473,0.6908,0.722,0.7483,0.7626,0.7834,0.8042,0.8466,0.8753,0.9054,0.9416,0.9716,0.9928,0.9928,0.9807,0.9594,0.9594,0.8886,0.7721,0.7513,0.7314,0.7106,0.6848,0.0,0.0,0.0,0.0,0.0,0.0,0.0,0.0,0.0,0.0,0.0,0.0,0.0,0.0,0.0,0.0,0.0,0.0,0.0,0.0,0.0,0.0,0.0,0.0,0.0,0.0,0.0,0.0,0.0,0.0,0.0,0.0,0.0,0.0,0.0,0.0,0.0,0.0,0.6059,0.6239,0.0,0.0,0.0,0.0,0.6634,0.6553,0.6487,0.66,0.6714,0.7102,0.7686,0.7354,0.7236,0.7227,0.7586,0.7829,0.784,0.784,0.7962,0.8323,0.8684,0.8684,0.8445,0.8445,0.8439,0.8421,0.828,0.8139,0.8005,0.7871,0.7714,0.7373,0.7246,0.699,0.6757,0.0,0.0,0.0,0.0,0.0,0.4075,0.429,0.4536,0.4744,0.4908,0.516,0.5368,0.5585,0.5793,0.6048,0.6342,0.6435,0.6643,0.6917,0.7327,0.7652,0.7855,0.8216,0.8573,0.8931,0.9226,0.9446,0.9667,0.9837,0.9918,0.9999,0.9999,0.9948,0.9878,0.9878,0.9617,0.9209,0.8702,0.8364,0.8135,0.7703,0.7466,0.0,0.0,0.0,0.0,0.0,0.0,0.0,0.0,0.0,0.0,0.0,0.0,0.0,0.0,0.0,0.0,0.0,0.0,0.0,0.0,0.0,0.0,0.0,0.0,0.0,0.0,0.0,0.0,0.0,0.0,0.0,0.0,0.0,0.0,0.0,0.0,0.0,0.6669,0.6844,0.0,0.0,0.7266,0.7358,0.7443,0.7511,0.7654,0.7737,0.779,0.7891,0.7949,0.819,0.8512,0.8816,0.9058,0.9155,0.9092,0.9092,0.913,0.9205,0.9328,0.9335,0.9581,0.9588,0.9711,0.9704,0.9658,0.9142,0.8298,0.8249,0.8231,0.8112,0.8063,0.7885,0.7808,0.0,0.0,0.0,0.3709,0.3934,0.4196,0.4385,0.4633,0.489,0.5056,0.5273,0.5472,0.5689,0.5954,0.6228,0.6559,0.6711,0.701,0.7429,0.7782,0.8096,0.8384,0.8826,0.9244,0.9622,0.9925,1.0151,1.0377,1.046,1.0616,1.0699,1.0699,1.0699,1.0699,1.0699,1.0605,1.044,0.9974,0.9518,0.8918,0.8541,0.8297,0.8123,0.0,0.0,0.0,0.0,0.0,0.0,0.0,0.0,0.0,0.0,0.0,0.0,0.0,0.0,0.0,0.0,0.0,0.0,0.0,0.0,0.0,0.0,0.0,0.0,0.0,0.0,0.0,0.0,0.0,0.0,0.0,0.0,0.0,0.0,0.0,0.7282,0.7295,0.7427,0.7547,0.7731,0.7855,0.8043,0.8188,0.8214,0.8219,0.8311,0.8317,0.8372,0.8383,0.8791,0.9255,0.9895,0.9822,0.9821,0.9764,1.0022,1.0069,1.0149,1.0015,1.0143,1.0404,1.0531,1.0658,1.0658,1.0658,1.0039,0.9307,0.8972,0.8934,0.8803,0.8715,0.8506,0.8317,0.0,0.3709,0.3709,0.3709,0.4082,0.4404,0.4404,0.4757,0.5056,0.5264,0.5472,0.5689,0.5887,0.6284,0.6587,0.6815,0.715,0.7555,0.7977,0.8199,0.8523,0.9051,0.9489,0.9846,0.9999,1.0471,1.0858,1.0992,1.1497,1.1822,1.214,1.214,1.214,1.214,1.214,1.1801,1.137,1.137,1.0584,0.9428,0.9247,0.8888,0.8388,0.0,0.0,0.0,0.0,0.0,0.0,0.0,0.0,0.0,0.0,0.0,0.0,0.0,0.0,0.0,0.0,0.0,0.0,0.0,0.0,0.0,0.0,0.0,0.0,0.0,0.0,0.0,0.0,0.0,0.0,0.0,0.0,0.0,0.7642,0.7795,0.8006,0.8018,0.8194,0.8404,0.8689,0.8639,0.8562,0.8704,0.8615,0.8574,0.858,0.858,0.8759,0.9255,0.9277,0.9536,1.0184,0.9943,0.9761,0.9888,1.0417,1.0686,1.0686,1.0672,1.0926,1.1195,1.118,1.118,1.1307,1.1307,1.118,1.077,1.0081,0.9714,0.9444,0.9045,0.8819,0.858,0.3853,0.3765,0.3709,0.3709,0.4082,0.4404,0.4404,0.4757,0.5056,0.5264,0.5472,0.5739,0.6,0.6449,0.6817,0.715,0.7431,0.7815,0.8189,0.8569,0.9124,0.9914,1.0062,1.0317,1.072,1.0953,1.1273,1.1508,1.1833,1.2075,1.214,1.2232,1.2323,1.2323,1.2506,1.2518,1.2395,1.2395,1.1849,1.0979,1.0247,0.9755,0.9458,0.0,0.0,0.0,0.0,0.0,0.0,0.0,0.0,0.0,0.0,0.0,0.0,0.0,0.0,0.0,0.0,0.0,0.0,0.0,0.0,0.0,0.0,0.0,0.0,0.0,0.0,0.0,0.0,0.0,0.0,0.0,0.0,0.9099,0.8564,0.8639,0.8619,0.8632,0.8913,0.9001,0.8866,0.9091,0.9319,0.9365,0.938,0.9506,0.9612,0.9619,0.9685,0.9962,1.0009,1.0301,1.0854,1.0376,1.031,1.0412,1.067,1.0732,1.0706,1.0706,1.1243,1.2326,1.1919,1.1911,1.1919,1.178,1.1642,1.1482,1.0777,1.028,1.0022,0.9942,0.9718,0.9605,0.3961,0.3863,0.3798,0.3798,0.4118,0.4404,0.4404,0.4798,0.5173,0.5471,0.5673,0.5917,0.6325,0.6743,0.712,0.7429,0.7829,0.822,0.8627,0.9206,0.982,1.0412,1.061,1.0964,1.1445,1.1684,1.1927,1.2359,1.2492,1.267,1.2881,1.2964,1.3115,1.3205,1.321,1.3191,1.31,1.2985,1.27,1.2113,1.1416,1.0778,1.0186,0.9852,0.9478,0.9119,0.8779,0.8448,0.8163,0.7934,0.0,0.0,0.0,0.0,0.0,0.0,0.0,0.0,0.0,0.0,0.0,0.0,0.0,0.0,0.0,0.0,0.0,0.0,0.0,0.0,0.0,0.0,0.0,0.0,0.9641,0.9774,0.954,0.9445,0.9338,0.9282,0.9537,0.9637,0.966,0.9806,1.0137,1.0265,1.0358,1.0355,1.051,1.0524,1.0566,1.0658,1.0849,1.1012,1.1268,1.1206,1.1142,1.1221,1.1497,1.1548,1.1637,1.1637,1.2048,0.0,1.2452,1.2444,1.2312,1.2312,1.2173,0.0,0.0,0.0,0.0,0.0,1.0222,1.0127,0.4026,0.3961,0.3918,0.3918,0.4189,0.4442,0.4442,0.488,0.5346,0.579,0.5946,0.6167,0.6656,0.7104,0.7439,0.7628,0.827,0.8843,0.9227,0.9906,1.039,1.0627,1.1134,1.1657,1.2137,1.2382,1.2711,1.3239,1.3214,1.3465,1.391,1.3945,1.4171,1.4378,1.4148,1.3929,1.3711,1.3446,1.3182,1.294,1.2687,1.1866,1.0751,1.0296,1.01,1.0014,0.9525,0.9222,0.9015,0.8678,0.0,0.0,0.0,0.0,0.0,0.0,0.0,0.0,0.0,0.0,0.0,0.0,0.0,0.0,0.0,0.0,0.0,0.0,0.0,0.0,0.0,0.0,0.0,0.0,1.0194,1.0379,1.0444,1.027,1.0132,0.9941,1.0115,1.0341,1.0524,1.0591,1.0733,1.1024,1.1061,1.1143,1.1314,0.0,0.0,0.0,0.0,1.169,1.169,1.1972,1.2048,1.1916,1.2468,1.274,1.274,1.2865,1.2856,1.2856,1.284,1.284,1.284,1.284,1.2576,1.2297,1.1743,1.1423,1.102,1.0635,1.0445,1.041,0.4091,0.4026,0.3993,0.3993,0.4332,0.4633,0.4633,0.5004,0.5445,0.5896,0.6005,0.6217,0.6773,0.7297,0.7628,0.7747,0.8452,0.9044,0.9475,1.0133,1.0695,1.0869,1.155,1.2095,1.2314,1.2803,1.3054,1.3239,1.3556,1.3808,1.391,1.4317,1.4546,1.4593,1.4749,1.4803,1.4831,1.4469,1.4207,1.3743,1.3485,1.2742,1.1759,1.1464,1.1226,1.0909,1.0338,1.0051,0.9941,0.9287,0.9034,0.899,0.8947,0.0,0.0,0.0,0.0,0.0,0.0,0.0,0.0,0.0,0.0,0.0,0.0,0.0,0.0,0.0,0.0,0.0,0.0,0.0,0.0,1.0852,1.0886,1.0925,1.0958,1.0995,1.0803,1.0482,1.0624,1.0715,1.0665,1.0793,1.0971,1.1039,1.1165,1.1314,1.1471,1.1486,0.0,1.168,1.1717,1.1863,1.2127,1.2157,1.2305,1.2576,0.0,0.0,1.2848,1.284,1.284,1.284,1.284,1.284,1.284,1.284,1.2708,1.27,1.201,1.1732,1.1593,1.1563,1.1467,1.1349,0.4221,0.4123,0.4058,0.4058,0.4403,0.4699,0.4699,0.5076,0.5579,0.6031,0.6142,0.6418,0.6934,0.7401,0.7747,0.7795,0.8625,0.939,0.986,1.0573,1.0987,1.1111,1.1974,1.2598,1.2777,1.3332,1.359,1.372,1.4119,1.4377,1.4507,1.4867,1.516,1.5279,1.5263,1.5306,1.5282,1.5028,1.4664,1.429,1.4017,1.36,1.2897,1.2198,1.1847,1.1592,1.101,1.0829,1.0672,1.0018,0.9779,0.9663,0.9352,0.9292,0.9389,0.0,0.0,0.0,0.0,0.0,0.0,0.0,0.0,0.0,0.0,0.0,0.0,0.0,0.0,1.1142,1.1253,0.0,1.159,1.1478,1.1599,1.163,1.1405,1.1536,1.1446,1.1009,1.116,1.1296,1.1152,1.1386,1.1573,1.1666,1.183,1.2001,1.2172,1.218,1.2219,1.2305,1.2305,1.2437,1.2576,1.2437,1.2568,1.284,1.284,1.284,1.284,1.284,1.284,1.284,1.284,1.284,1.284,1.284,1.284,1.2708,1.2437,1.2173,1.2041,1.1916,1.1724,1.1642,0.4318,0.4221,0.4123,0.4123,0.4474,0.4737,0.4737,0.5199,0.5702,0.6176,0.6336,0.6568,0.7031,0.7515,0.7871,0.8126,0.8986,0.9779,1.026,1.092,1.1364,1.1364,1.2404,1.3034,1.3235,1.3728,1.4087,1.4292,1.463,1.4996,1.5214,1.553,1.5891,1.6086,1.5878,1.578,1.5664,1.5397,1.5129,1.4862,1.4485,1.422,1.3906,1.285,1.236,1.2209,1.1675,1.1479,1.1364,1.0672,1.0526,1.0371,0.975,0.9699,0.9862,0.9787,0.9949,0.0,0.0,0.0,0.0,0.0,0.0,0.0,0.0,0.0,1.0972,1.1392,1.1548,1.1756,1.1964,1.2089,1.2229,1.2229,1.2316,1.2205,1.1975,1.2021,1.1904,1.1667,1.1549,1.1622,1.1809,1.1979,1.2158,1.2345,1.2515,1.2678,1.2832,1.284,1.284,1.284,1.284,1.284,1.284,1.284,1.284,1.284,1.284,1.284,1.284,1.284,1.284,1.284,1.284,1.284,1.284,1.284,1.284,1.284,1.284,1.2568,1.2312,1.2041,1.2041,1.2025,0.4318,0.4285,0.4285,0.4285,0.4651,0.4964,0.4964,0.5373,0.5847,0.6331,0.6396,0.6568,0.7031,0.7515,0.8202,0.9196,0.958,0.9993,1.0409,1.1155,1.1605,1.1605,1.2742,1.3393,1.3519,1.4002,1.4268,1.4292,1.5097,1.5469,1.5506,1.6235,1.6592,1.663,1.6592,1.658,1.6567,1.5989,1.5614,1.5331,1.4874,1.4497,1.422,1.38,1.3393,1.2949,1.2466,1.2134,1.1817,1.1376,1.1204,1.1112,1.0897,1.0817,1.0759,1.0599,0.0,1.0864,1.0864,1.1198,0.0,1.1342,1.1598,1.189,0.0,0.0,1.1932,1.2372,1.2413,1.2398,1.2625,1.2843,1.2994,1.2994,1.2846,1.2768,1.2768,1.2456,1.2209,1.2088,1.1856,1.1809,1.1987,1.2166,1.2345,1.2523,1.2702,1.2816,1.2832,1.284,1.284,1.284,1.284,1.284,1.284,1.284,1.284,1.284,1.284,1.284,1.284,1.284,1.284,1.284,1.284,1.284,1.284,1.284,1.284,1.284,1.284,1.2832,1.2708,1.2708,1.27,1.27,0.4318,0.4318,0.4329,0.4436,0.4774,0.5045,0.5147,0.5459,0.5847,0.6331,0.6396,0.6568,0.7031,0.763,0.8376,0.9344,0.9765,1.0149,1.0425,1.1307,1.1766,1.1766,1.2709,1.3452,1.3701,1.4068,1.4432,1.4783,1.5432,1.5695,1.5708,1.6365,1.6736,1.6736,1.6736,1.6736,1.6723,1.6504,1.6097,1.5695,1.5482,1.5072,1.4484,1.4374,1.3999,1.3519,1.3009,1.2707,0.0,1.1887,1.1747,1.1665,1.1501,1.1438,1.1416,1.1475,1.1511,0.0,1.1779,0.0,0.0,0.0,1.2586,1.2662,1.2656,1.2751,1.274,1.2822,1.2908,1.3058,1.2928,1.3117,1.3258,0.0,1.3311,1.3323,1.3086,1.291,1.2595,1.2234,1.2222,1.22,1.202,1.2199,1.2377,1.2548,1.2735,1.284,1.284,1.284,1.284,1.284,1.284,1.284,1.284,1.284,1.284,1.284,1.284,1.284,1.284,1.284,1.284,1.284,1.284,1.284,1.2848,1.3087,1.3062,1.2848,1.2946,1.2921,1.284,1.284,1.284,1.284,0.4318,0.4318,0.4383,0.4662,0.4882,0.5077,0.5265,0.5513,0.5847,0.6331,0.6444,0.6722,0.7389,0.7879,0.8577,0.9397,0.9902,1.0231,1.0491,1.1479,1.2006,1.2006,1.2857,1.3508,1.396,1.4235,1.4615,1.5083,1.5652,1.5882,1.5895,1.6562,1.6832,1.6832,1.6909,1.6948,1.6935,1.6753,1.6445,1.5998,1.5821,1.5404,1.4783,1.4783,1.4564,1.4048,1.3495,1.329,1.3169,1.2611,1.2383,1.2383,1.2225,1.2095,1.2124,1.2282,1.2297,1.2393,1.2641,0.0,0.0,1.3243,1.3388,1.3372,1.3435,1.3547,1.3627,1.3467,1.3512,1.3519,1.3461,1.3479,0.0,1.3476,1.3589,1.3573,1.3324,1.3204,1.2982,1.2552,1.2559,1.2564,1.2291,1.2296,1.245,1.2629,1.2759,1.284,1.284,1.284,1.284,1.284,1.284,1.284,1.284,1.284,1.284,1.284,1.284,1.284,1.284,1.284,1.284,1.284,1.284,1.284,1.2848,1.3111,1.3095,1.2856,1.2978,1.2946,1.284,1.284,1.284,1.284,0.4318,0.4318,0.4426,0.4904,0.4991,0.5077,0.5265,0.5513,0.5847,0.6331,0.653,0.6996,0.8154,0.8387,0.8821,0.9608,1.0051,1.0441,1.0707,1.171,1.2246,1.2246,1.3281,1.3938,1.4218,1.4419,1.4803,1.5083,1.5654,1.5882,1.5895,1.6786,1.7168,1.7181,1.7462,1.7582,1.7569,1.6977,1.6586,1.6199,1.5716,1.5337,1.5083,1.5083,1.4879,1.4638,1.4072,1.3725,1.3507,1.3483,1.3483,1.3393,1.3211,1.3121,0.0,1.289,1.2909,0.0,0.0,0.0,1.3513,1.3739,1.3986,1.4234,1.4449,1.4463,1.4468,1.4709,1.4296,1.3898,1.4113,1.3913,1.3674,1.3674,1.3684,1.3693,1.3684,1.3444,1.3277,1.3487,1.3137,1.3039,0.0,1.2814,1.2629,1.2816,1.2832,1.284,1.284,1.284,1.284,1.284,1.284,1.284,1.284,1.284,1.284,1.284,1.284,1.284,1.284,1.284,1.284,1.284,1.284,1.284,1.284,1.284,1.298,1.312,1.2848,1.284,1.284,1.284,1.284,1.284,0.4318,0.4416,0.4587,0.4947,0.5132,0.5276,0.5513,0.562,0.5891,0.6464,0.6907,0.0,0.0,0.0,0.0,0.0,1.0012,1.0369,1.0594,1.144,1.2139,1.2485,1.301,1.3566,1.4203,1.4501,1.4786,1.5271,1.584,1.6175,1.6175,1.6673,1.686,1.686,1.6954,1.7007,1.6994,1.6799,1.6587,1.6321,1.6117,1.5809,1.5356,1.5356,1.5166,1.4879,0.0,1.4096,1.3749,1.3568,1.3519,1.358,1.3824,0.0,0.0,1.3588,1.3746,1.3953,0.0,0.0,1.4234,1.4471,1.4589,1.4676,1.4751,1.4842,1.4919,1.4771,1.4779,1.4667,1.452,1.4172,1.4052,1.4052,1.3813,1.3693,1.3693,1.3695,1.3685,1.3505,1.3626,0.0,0.0,0.0,0.0,1.2824,1.284,1.284,1.284,1.284,1.284,1.284,1.284,1.284,1.284,1.284,1.284,1.284,1.284,1.284,1.284,1.284,1.284,1.284,1.284,1.284,1.2848,1.2821,1.3079,1.3664,1.3511,1.3468,1.349,1.349,1.349,1.349,0.0,0.4447,0.4684,0.4958,0.5157,0.0,0.0,0.0,0.0,0.0,0.0,0.0,0.0,0.0,0.0,0.0,0.0,1.0471,1.061,1.1527,1.2234,1.2569,1.2943,1.3535,1.4177,1.4467,1.481,1.5391,1.5778,1.6019,1.6126,1.6406,1.6553,1.6553,1.666,1.67,1.67,1.6593,1.6446,1.6259,1.6152,1.5909,1.5642,1.5642,1.5452,0.0,1.4975,1.4576,1.4121,1.3845,1.3857,1.4002,0.0,0.0,0.0,0.0,1.4522,1.4567,1.4593,1.4657,1.4719,1.4955,1.5009,1.5042,1.5117,1.5268,1.5258,1.5141,1.5129,1.4997,1.4769,1.453,1.4321,1.427,1.4159,1.3946,1.3901,1.4033,1.4023,1.3849,1.4088,0.0,0.0,0.0,0.0,1.3095,1.284,1.284,1.284,1.284,1.284,1.284,1.284,1.284,1.284,1.284,1.284,1.284,1.284,1.284,1.284,1.284,1.284,1.284,1.284,1.2832,1.284,1.2813,1.3195,1.3919,1.4033,1.3998,1.3875,1.3875,1.4006,1.4006,0.0,0.0,0.4705,0.0,0.0,0.0,0.0,0.0,0.0,0.0,0.0,0.0,0.0,0.0,0.0,0.0,0.0,0.0,1.061,1.181,1.2439,1.2542,1.324,1.3761,1.4055,1.4362,1.479,1.5351,1.5364,1.5524,1.5818,1.6099,1.6233,1.6259,1.654,1.666,1.6647,1.6366,1.6246,1.6219,1.5939,1.5832,1.5832,1.5832,1.5642,1.5452,1.5178,1.4987,1.4688,1.44,0.0,0.0,0.0,0.0,0.0,0.0,0.0,1.5077,1.5299,1.5139,1.4977,1.5214,1.5268,1.5322,1.5548,1.5601,1.5601,1.5601,1.5353,1.5116,0.0,0.0,1.46,1.4558,1.4475,1.443,1.427,1.4317,1.4402,0.0,0.0,0.0,0.0,0.0,0.0,1.3498,0.0,1.284,1.284,1.284,1.284,1.284,1.284,1.284,1.284,1.284,1.284,1.284,1.284,1.284,1.284,1.284,1.284,1.284,1.284,1.2824,1.2816,1.2816,1.335,1.4006,1.4146,1.4146,1.4006,1.4006,1.4137,1.4399,0.0,0.0,0.0,0.0,0.0,0.0,0.0,0.0,0.0,0.0,0.0,0.0,0.0,0.0,0.0,0.0,0.0,0.0,1.1011,1.1566,1.207,1.2732,1.312,1.3454,1.3748,1.4255,1.4589,1.4736,1.4963,1.5217,1.5511,1.5591,1.5738,1.5939,1.6019,1.6046,1.6046,1.5979,1.5939,1.5939,1.5858,1.5832,1.5832,1.5832,1.5737,1.5737,1.5452,1.5261,1.4892,0.0,0.0,0.0,0.0,0.0,1.5982,0.0,0.0,1.5761,1.5702,1.5511,1.5429,1.5494,1.5505,1.5526,1.558,1.5601,1.5601,1.5601,1.5483,1.5483,0.0,0.0,0.0,1.46,1.4508,0.0,1.4081,1.4355,0.0,0.0,0.0,1.4744,1.4791,1.4539,0.0,0.0,1.3498,1.3104,1.284,1.284,1.284,1.284,1.284,1.284,1.284,1.284,1.284,1.284,1.284,1.284,1.284,1.284,1.2972,1.3375,1.3375,1.3087,1.2923,1.3892,1.4435,1.4688,1.4688,1.4679,1.467,1.467,1.467,1.48,0.0,0.0,0.0,0.0,0.0,0.0,0.0,0.0,0.0,0.0,0.0,0.0,0.0,0.0,0.0,0.0,0.0,0.0,0.0,1.1493,1.2005,1.2532,1.2839,1.3146,1.3454,1.3978,1.4426,1.4696,1.4946,1.5267,1.5463,1.5463,1.5626,1.5912,1.5819,1.5806,1.5927,1.5832,1.5832,0.0,0.0,1.5832,1.5832,1.5832,1.5832,1.5737,1.5547,1.5261,0.0,0.0,0.0,1.5197,1.5692,1.6042,1.6332,1.6351,0.0,1.6299,1.6065,1.5965,1.572,1.5601,1.5601,1.5601,1.5601,1.5601,1.5601,1.5601,1.5601,0.0,0.0,0.0,0.0,0.0,0.0,0.0,1.45,1.4614,1.4666,0.0,1.4865,0.0,1.4931,1.467,1.4539,0.0,1.363,1.3235,1.284,1.284,1.284,1.284,1.284,1.284,1.284,1.284,1.284,1.284,1.284,1.284,1.284,1.284,1.3104,1.3507,0.0,1.3673,1.3302,1.4422,1.4883,1.4939,1.5081,1.5215,1.5053,1.5101,1.5063,1.5054,0.0,0.0,0.0,0.0,0.0,0.0,0.0,0.0,0.0,0.0,0.7705,0.8093,0.0,0.0,0.0,0.0,0.0,0.0,0.0,0.0,1.1957,1.2291,1.2585,1.2956,1.3146,1.3709,1.4296,1.4847,1.5047,1.5301,1.5595,1.5595,1.5763,1.6057,1.5796,1.5855,1.6101,1.5806,1.5712,1.5712,1.5712,1.5712,1.5712,0.0,1.5738,1.5684,1.5534,1.5166,0.0,0.0,1.5113,1.5234,1.5994,1.6272,1.6429,1.6899,1.6851,1.6599,1.648,1.6312,1.5968,1.572,1.5601,1.5601,1.5601,1.5601,1.5601,1.5601,0.0,1.5601,1.5601,1.5601,1.5547,1.5387,0.0,1.5002,1.5033,1.4865,1.4704,1.4912,1.4931,1.4931,1.4931,1.4931,1.48,1.4408,1.3752,1.3235,1.284,1.284,1.284,1.284,1.284,1.284,1.284,1.284,1.284,1.284,1.284,1.284,1.284,1.284,1.3104,1.3498,0.0,0.0,1.4147,1.4736,1.499,1.5128,1.5555,1.5555,1.5391,1.5309,1.5233,1.5205,0.0,0.0,0.0,0.0,0.0,0.0,0.0,0.0,0.0,0.0,0.7877,0.8093,0.0,0.0,0.0,0.0,0.0,0.0,0.0,0.0,0.0,1.2278,1.2585,1.2849,1.3042,1.3666,1.409,1.4365,1.4699,1.4979,1.5287,1.5287,1.5441,1.5645,1.5645,1.5597,1.5486,1.5395,1.5291,1.511,1.511,1.511,1.511,1.511,0.0,0.0,1.5279,1.5083,1.5076,1.5132,1.5113,1.5209,1.5777,1.6272,1.6646,1.6742,1.6851,1.6844,1.6526,1.6312,1.5968,1.572,1.5601,1.5601,1.5601,1.5601,0.0,0.0,0.0,1.5601,1.5601,1.5601,0.0,1.5168,0.0,0.0,0.0,0.0,1.4952,0.0,0.0,0.0,0.0,0.0,0.0,0.0,0.0,1.3621,1.3367,1.2972,1.284,1.284,1.284,1.284,1.284,1.284,1.284,1.284,1.284,1.284,1.284,1.3104,1.3498,1.3892,1.4325,0.0,1.511,1.5297,1.5672,1.5992,1.5992,1.6138,1.5963,1.5453,1.5233,1.5205,0.0,0.0,0.0,0.0,0.0,0.0,0.0,0.7375,0.7692,0.7865,0.8021,0.8249,0.8633,0.8857,0.9257,0.0,0.0,0.0,0.0,0.0,0.0,1.2051,1.2506,1.2811,1.2961,1.3571,0.0,0.0,0.0,1.5004,1.5304,0.0,0.0,0.0,1.5602,1.5511,1.55,1.5322,1.5143,1.4963,1.4963,1.4963,1.4963,0.0,0.0,0.0,0.0,0.0,1.5051,1.4973,1.4992,1.5221,1.5885,1.6368,1.673,1.6863,1.7062,1.7138,1.6655,1.6419,1.6194,1.572,1.5601,1.5569,1.544,0.0,0.0,0.0,1.5225,1.5268,1.5397,0.0,0.0,0.0,0.0,0.0,0.0,0.0,0.0,0.0,0.0,0.0,0.0,0.0,0.0,0.0,0.0,1.3752,1.3367,1.2972,1.284,1.284,1.284,1.284,1.284,1.284,1.284,1.284,1.284,1.2972,1.3104,1.3367,1.3681,1.4307,1.4539,0.0,1.5564,1.5668,1.5929,1.6183,1.6183,1.6183,1.6154,1.5923,1.5634,1.5375,0.0,0.0,0.0,0.0,0.0,0.0,0.717,0.7473,0.7713,0.7877,0.8129,0.8393,0.8645,0.8964,0.9379,0.0,0.0,0.0,0.0,0.0,0.0,0.0,0.0,0.0,0.0,0.0,0.0,0.0,0.0,0.0,0.0,0.0,0.0,0.0,0.0,0.0,0.0,1.5306,1.5042,0.0,0.0,0.0,0.0,0.0,0.0,0.0,0.0,0.0,0.0,0.0,1.4859,1.5149,1.5885,1.6344,1.6658,1.6863,1.7153,1.7277,1.6692,1.6492,1.6408,1.5773,1.5526,1.5461,1.5225,1.5171,0.0,0.0,1.488,1.4945,1.5138,0.0,0.0,0.0,0.0,0.0,0.0,0.0,0.0,0.0,0.0,0.0,0.0,0.0,0.0,0.0,0.0,0.0,1.3235,1.2972,1.284,1.284,1.284,1.284,1.284,1.284,1.284,1.284,1.284,1.3104,1.3367,1.3498,1.3998,1.4718,1.4898,0.0,0.0,1.5904,1.6027,1.6178,1.6178,1.6178,1.616,1.6231,1.6019,1.5536,0.0,0.0,0.0,0.0,0.0,0.0,0.7194,0.7581,0.7877,0.7901,0.8129,0.8393,0.8645,0.9269,0.9729,0.0,0.0,0.0,0.0,0.0,0.0,0.0,0.0,0.0,0.0,0.0,0.0,0.0,0.0,0.0,0.0,0.0,0.0,0.0,0.0,0.0,0.0,0.0,0.0,0.0,0.0,0.0,0.0,0.0,0.0,0.0,0.0,0.0,0.0,0.0,0.0,1.4847,1.5403,1.591,1.632,1.6344,0.0,0.0,1.6656,1.6588,1.6362,1.5787,1.5511,1.5214,1.4977,0.0,0.0,1.4891,1.488,1.4891,1.4912,0.0,0.0,0.0,0.0,1.5438,0.0,0.0,0.0,0.0,0.0,0.0,0.0,0.0,0.0,0.0,0.0,0.0,1.284,1.284,1.284,1.284,1.284,1.284,1.284,1.284,1.284,1.284,1.3104,1.3367,1.3367,1.4015,1.4385,1.4727,1.5316,0.0,0.0,1.6075,1.6169,1.6178,1.6178,1.6178,1.616,1.6231,1.6019,1.5672,0.0,0.0,0.0,0.0,0.0,0.0,0.7206,0.7605,0.7901,0.7901,0.8261,0.8619,0.8844,0.9492,0.9932,0.997,1.0364,0.0,0.0,0.0,0.0,0.0,0.0,0.0,0.0,0.0,0.0,0.0,0.0,0.0,0.0,0.0,0.0,0.0,0.0,0.0,0.0,0.0,0.0,0.0,0.0,0.0,0.0,0.0,0.0,0.0,0.0,0.0,0.0,0.0,0.0,0.0,1.4908,1.5282,0.0,0.0,1.6549,1.6738,1.6499,1.6229,1.5943,1.551,1.5259,1.4966,1.4729,0.0,1.4632,1.4503,1.4471,1.4514,1.4654,1.4869,1.5074,1.5225,1.5451,0.0,1.4891,0.0,0.0,0.0,0.0,0.0,0.0,0.0,0.0,0.0,0.0,0.0,1.3235,1.2972,1.284,1.284,1.284,1.284,1.284,1.284,1.284,1.284,1.3235,1.3498,1.3752,1.4146,1.4649,1.4985,1.547,0.0,0.0,1.6093,1.6178,1.6178,1.6178,1.6178,1.616,1.6231,1.6019,1.5817,0.0,0.0,0.0,0.0,0.0,0.723,0.7303,0.7665,0.7901,0.7901,0.8357,0.8798,0.8974,0.9593,1.0047,1.011,1.0364,0.0,0.0,0.0,0.0,0.0,0.0,0.0,0.0,0.0,1.3653,1.3989,1.4311,0.0,0.0,0.0,0.0,0.0,0.0,0.0,0.0,0.0,0.0,0.0,0.0,0.0,0.0,0.0,0.0,0.0,0.0,0.0,0.0,0.0,0.0,0.0,0.0,1.4775,1.5125,0.0,1.6247,1.6477,1.6216,1.6063,1.5873,1.5468,1.512,1.4831,0.0,1.4439,1.4385,1.4223,1.4191,1.4245,1.4406,1.4686,1.4945,1.5117,1.5397,1.5364,1.465,1.5024,0.0,0.0,0.0,0.0,0.0,0.0,0.0,0.0,0.0,0.0,0.0,1.3227,1.2964,1.284,1.284,1.284,1.284,1.284,1.284,1.2972,1.3367,1.3752,1.4006,1.4408,1.4772,1.5243,0.0,0.0,0.0,1.6093,1.6178,1.6178,1.6178,1.6178,1.616,1.6231,1.5882,1.5526,0.0,0.0,0.0,0.0,0.0,0.7291,0.7546,0.7774,0.7901,0.7901,0.8357,0.8798,0.8974,0.9593,1.011,1.0301,1.0491,0.0,0.0,0.0,0.0,0.0,0.0,0.0,1.32,1.3419,1.3653,1.3989,1.4311,1.4633,0.0,0.0,0.0,0.0,0.0,0.0,0.0,0.0,0.0,0.0,0.0,0.0,0.0,0.0,0.0,0.0,0.0,0.0,0.0,0.0,0.0,0.0,0.0,1.4497,1.4823,1.5354,1.5692,1.5958,1.6235,1.6267,1.6063,1.5475,1.5198,1.4823,0.0,1.4202,1.4202,1.4191,1.4191,1.4191,1.4202,1.4568,1.488,1.4891,1.5289,1.5364,1.465,0.0,0.0,0.0,0.0,0.0,0.0,0.0,0.0,0.0,0.0,0.0,0.0,1.3875,1.3481,1.2832,1.284,1.284,1.284,1.284,1.2972,1.3367,1.3752,1.4006,1.4408,1.48,1.5044,0.0,0.0,0.0,0.0,1.6093,1.6178,1.6178,1.6178,1.6178,1.616,1.6231,1.5587,1.4955,0.0,0.0,0.0,0.0,0.0,0.0,0.7559,0.7774,0.7901,0.7901,0.8201,0.8591,0.8949,0.949,0.9906,1.0288,1.0491,0.0,0.0,0.0,0.0,0.0,0.0,0.0,1.3419,1.3492,1.355,1.3653,1.4194,1.4516,1.4633,1.5174,1.5423,0.0,0.0,0.0,0.0,0.0,0.0,0.0,0.0,0.0,0.0,0.0,0.0,0.0,0.0,0.0,0.0,0.0,0.0,0.0,0.0,0.0,0.0,1.4582,1.5004,1.5378,1.5463,1.5469,1.5423,1.5234,1.4922,1.47,1.4526,1.4299,1.4191,1.4191,1.4191,1.4191,1.4191,1.4568,1.488,1.488,1.5289,1.5364,0.0,0.0,0.0,0.0,0.0,0.0,0.0,0.0,0.0,0.0,0.0,0.0,0.0,1.4268,1.4006,1.3621,1.3481,1.3481,1.3481,1.3481,1.3621,1.3752,1.4137,1.4277,1.4408,1.48,0.0,0.0,0.0,0.0,0.0,1.6037,1.6178,1.6178,1.6178,1.6234,1.6231,1.6166,1.5662,1.4879,0.0,0.0,0.0,0.0,0.0,0.0,0.7641,0.7846,0.7901,0.7901,0.8129,0.8506,0.8937,0.9414,0.9878,1.0275,1.0491,0.0,0.0,0.0,0.0,0.0,0.0,0.0,1.3346,1.3492,1.3492,1.3492,1.415,1.4472,1.4487,1.5131,1.5423,1.5423,1.5423,0.0,0.0,0.0,0.0,0.0,0.0,0.0,1.3761,0.0,0.0,0.0,0.0,0.0,0.0,0.0,0.0,0.0,0.0,0.0,0.0,0.0,1.4389,1.4727,1.5028,1.5119,1.5033,1.493,1.4734,1.4673,1.4657,1.4478,1.4404,1.4493,1.4515,1.4537,1.4625,1.4855,1.5026,1.5227,1.546,0.0,0.0,0.0,0.0,0.0,0.0,0.0,0.0,0.0,0.0,0.0,0.0,0.0,0.0,1.4539,1.4539,1.4268,1.4006,1.3875,1.3875,1.3875,1.4006,1.4137,1.4277,1.4408,1.4539,1.48,0.0,0.0,0.0,0.0,0.0,1.6008,1.6178,1.6178,1.6178,1.6196,1.6125,1.5777,1.5325,1.5022,0.0,0.0,0.0,0.0,0.0,0.0,0.0,0.7901,0.7901,0.7901,0.8117,0.8426,0.8937,0.9389,0.9852,1.0212,1.0491,0.0,0.0,0.0,0.0,0.0,0.0,1.2966,1.32,1.3419,1.3492,1.3492,1.415,1.4472,1.4487,1.5131,1.5423,1.5423,1.5423,1.5075,0.0,0.0,0.0,0.0,0.0,1.3213,0.0,0.0,0.0,0.0,0.0,0.0,0.0,0.0,0.0,0.0,0.0,0.0,0.0,0.0,0.0,0.0,0.0,1.5052,1.4975,1.4773,1.4683,1.4663,1.4607,1.4664,0.0,1.4984,1.5041,1.511,1.5361,1.5278,1.5421,1.5665,0.0,0.0,0.0,0.0,0.0,0.0,0.0,0.0,0.0,0.0,0.0,0.0,0.0,0.0,0.0,1.4931,1.4931,1.4931,1.4277,1.4006,1.4006,1.4006,1.4137,1.4408,1.4408,1.4539,1.4931,1.4931,0.0,0.0,0.0,0.0,0.0,1.5989,1.6169,1.6178,1.6178,1.6187,1.6106,1.5211,1.4964,1.5036,0.0,0.0,0.0,0.0,0.0,0.0,0.0,0.0,0.0,0.0,0.7949,0.8165,0.8679,0.9153,0.9573,0.0,0.0,0.0,0.0,0.0,0.0,0.0,1.2499,1.2966,1.32,1.3419,1.3492,1.3492,1.415,1.4472,1.4487,1.5131,1.5423,1.5423,1.5257,1.4781,0.0,0.0,0.0,0.0,1.3213,1.3213,0.0,0.0,0.0,0.0,1.2724,1.2616,0.0,0.0,0.0,0.0,0.0,0.0,0.0,0.0,1.3592,1.3942,1.4135,0.0,1.4811,1.4712,1.4654,1.4765,0.0,1.4769,1.4639,1.4984,0.0,1.5013,1.5054,1.5177,1.5307,0.0,0.0,0.0,0.0,0.0,0.0,0.0,0.0,0.0,0.0,0.0,0.0,0.0,0.0,0.0,0.0,1.48,1.4931,1.4931,1.48,1.467,1.467,1.467,1.467,1.48,1.48,1.48,1.4931,1.4931,0.0,0.0,0.0,0.0,1.5583,1.5829,1.6037,1.6178,1.6178,1.6101,1.5923,1.5587,1.5264,1.5156,0.0,0.0,0.0,0.0,0.0,0.0,0.0,0.0,0.0,0.0,0.7901,0.8093,0.8621,0.9091,0.9496,0.0,0.0,0.0,0.0,0.0,0.0,1.156,1.2428,1.2966,1.3053,1.3346,1.3492,1.3492,1.4004,1.4326,1.4487,1.497,1.5292,1.534,1.4932,1.4279,0.0,0.0,0.0,0.0,1.2799,0.0,0.0,0.0,0.0,0.0,1.2325,1.226,0.0,1.1824,1.1914,1.2155,0.0,0.0,0.0,0.0,1.3326,1.3604,1.3845,1.4208,1.4521,1.4521,1.4628,1.4791,1.5053,1.5104,1.5083,0.0,0.0,1.5643,1.5692,0.0,0.0,0.0,0.0,0.0,0.0,0.0,0.0,0.0,0.0,0.0,0.0,0.0,0.0,0.0,0.0,0.0,0.0,1.4539,1.48,1.4931,1.4931,1.4931,1.4931,1.4931,1.4931,1.4931,1.4931,1.4931,1.4931,1.4931,1.4931,0.0,0.0,0.0,1.5574,1.5782,1.5989,1.6178,1.6178,1.6129,1.6,1.5653,1.5971,1.6641,0.0,0.0,0.0,0.0,0.0,0.0,0.0,0.0,0.0,0.0,0.0,0.0,0.0,0.0,0.0,0.0,0.0,0.0,0.0,0.0,1.1129,1.141,1.2315,1.2851,1.2893,1.3273,1.3492,1.3492,1.3828,1.4121,1.4399,1.4721,1.4932,1.5097,1.4441,1.3766,1.3051,0.0,0.0,0.0,1.2305,0.0,0.0,0.0,0.0,0.0,0.0,0.0,0.0,1.1544,1.1648,1.1902,1.2119,0.0,0.0,0.0,0.0,0.0,1.3713,1.4039,1.4244,1.4292,1.4509,1.4787,1.5052,0.0,0.0,0.0,0.0,0.0,0.0,0.0,0.0,0.0,0.0,0.0,0.0,0.0,0.0,0.0,0.0,0.0,0.0,0.0,0.0,0.0,0.0,0.0,0.0,1.4408,1.4539,1.4931,1.4931,1.4931,1.4931,1.4931,1.4931,1.4931,1.4931,1.4931,1.4931,1.4931,1.4931,1.4941,0.0,0.0,1.5574,1.5744,1.5961,1.6178,1.6178,1.6196,1.6154,1.5867,1.6718,1.8153,0.0,0.0,0.0,0.0,0.0,0.0,0.0,0.0,0.0,0.0,0.0,0.0,0.0,0.0,0.0,0.0,0.0,0.0,0.0,1.0835,1.1129,1.141,1.1968,1.2483,1.2893,1.3127,1.3346,1.3492,1.3828,1.4004,1.4062,1.4384,1.4402,1.4022,1.3726,1.33,1.2808,1.2478,0.0,1.2305,0.0,0.0,0.0,0.0,0.0,0.0,0.0,0.0,0.0,1.1328,1.1359,1.16,1.1636,0.0,0.0,0.0,0.0,0.0,1.3495,1.3761,1.4014,1.4244,1.4509,1.4787,1.5052,1.5487,0.0,0.0,0.0,0.0,0.0,0.0,0.0,0.0,0.0,0.0,0.0,0.0,0.0,0.0,0.0,0.0,0.0,0.0,0.0,0.0,0.0,0.0,1.4006,1.4268,1.4539,1.4931,1.4931,1.4931,1.4931,1.4931,1.4931,1.4931,1.4931,1.4931,1.4931,1.4931,1.4931,1.4931,0.0,1.5205,1.5564,1.5593,1.5838,1.6178,1.6178,1.6336,1.6302,1.6158,1.6529,1.7113,0.0,0.0,0.0,0.0,0.0,0.0,0.0,0.0,0.0,0.0,0.0,0.0,0.0,0.0,0.0,0.0,0.0,0.0,1.0618,1.0752,1.0955,1.141,1.1626,1.2134,1.2893,1.3127,1.3273,1.3492,1.3638,1.3814,1.3989,1.4234,1.4059,1.3565,1.3348,1.2969,1.2492,1.2358,1.2305,1.2305,0.0,0.0,0.0,0.0,0.0,0.0,0.0,0.0,0.0,0.0,1.1202,1.1335,1.1479,0.0,0.0,0.0,0.0,0.0,1.3399,1.3604,1.3833,1.4389,1.4727,1.5028,1.5439,0.0,0.0,0.0,0.0,0.0,0.0,0.0,0.0,0.0,0.0,0.0,0.0,0.0,0.0,0.0,0.0,0.0,0.0,0.0,0.0,0.0,0.0,0.0,1.3875,1.4277,1.4539,1.4931,1.4931,1.4931,1.4931,1.4931,1.4931,1.4931,1.4931,1.4931,1.4931,1.4931,1.4931,1.4931,0.0,1.5101,1.5394,1.5517,1.5734,1.6018,1.6141,1.6253,1.6298,1.6206,1.6757,1.7705,0.0,0.0,0.0,0.0,0.0,0.0,0.0,0.0,0.0,0.0,0.0,0.0,0.0,0.0,0.0,0.0,0.0,0.0,1.0618,1.0618,1.0782,1.1303,1.1396,1.1844,1.2806,1.3053,1.32,1.3419,1.3492,1.3623,1.3797,1.3892,1.371,1.3181,1.303,1.2743,1.2305,1.2305,1.2305,1.2305,0.0,0.0,0.0,0.0,0.0,0.0,0.0,0.0,0.0,0.0,0.0,0.0,0.0,0.0,0.0,1.2168,1.2493,1.2904,1.3387,1.3604,1.3882,1.4618,1.4956,1.5246,1.5765,0.0,0.0,0.0,0.0,0.0,0.0,0.0,0.0,0.0,0.0,0.0,0.0,0.0,0.0,0.0,0.0,0.0,0.0,0.0,0.0,0.0,0.0,0.0,1.4006,1.4277,1.4539,1.4931,1.4931,1.4931,1.4931,1.4931,1.4931,1.4931,1.4931,1.4931,1.4931,1.4931,1.4931,1.4931,1.4931,1.5073,1.5319,1.5489,1.5706,1.5952,1.6253,1.6301,1.6413,1.6666,1.7388,1.8433,0.0,0.0,0.0,0.0,0.0,0.0,0.0,0.0,0.0,0.0,0.0,0.0,0.0,0.0,0.0,0.0,0.0,0.0,1.0618,1.0618,1.0766,1.1009,1.1276,1.1774,1.2586,1.282,1.3053,1.32,1.3419,1.3433,1.3228,1.3257,1.3022,1.264,1.2627,1.2539,1.2305,1.2305,1.2305,1.2305,1.2305,0.0,0.0,0.0,0.0,0.0,0.0,0.0,0.0,0.0,0.0,0.0,0.0,0.0,1.1926,1.195,1.2493,1.3157,1.3435,1.387,1.4377,1.4944,1.5101,0.0,1.5765,1.6296,0.0,1.7346,0.0,0.0,0.0,0.0,0.0,0.0,0.0,0.0,0.0,0.0,0.0,0.0,0.0,0.0,0.0,0.0,0.0,0.0,0.0,0.0,1.4277,1.4408,1.4539,1.4931,1.4931,1.4931,1.4931,1.4931,1.4931,1.4931,1.4931,1.4931,1.4931,1.4931,1.4931,1.4931,1.4931,1.5167,1.5536,1.5555,1.58,1.616,1.6593,1.6856,1.7258,1.7991,1.8293,1.8433,0.0,0.0,0.0,0.0,0.0,0.0,0.0,0.0,0.0,0.0,0.0,0.0,0.0,0.0,0.0,0.0,0.0,1.0367,1.0618,1.0618,1.0688,1.0982,1.1276,1.1623,1.2168,1.2503,1.2893,1.32,1.3273,1.3273,1.32,1.298,1.2746,1.2599,1.2452,1.2378,1.2305,1.2305,1.2305,1.2305,1.2305,1.2198,0.0,0.0,0.0,0.0,0.0,0.0,0.0,0.0,1.0791,1.09,1.1057,1.1479,1.1926,1.1926,1.2493,1.3181,1.3447,1.3894,1.4425,1.4968,1.5354,0.0,0.0,1.6803,1.7286,0.0,0.0,0.0,0.0,0.0,0.0,0.0,0.0,0.0,0.0,0.0,0.0,0.0,0.0,0.0,0.0,0.0,0.0,0.0,0.0,0.0,0.0,1.4539,1.48,1.4931,1.4931,1.4931,1.4931,1.4931,1.4931,1.4931,1.4931,1.4931,1.4931,1.4931,1.4931,1.4941,1.5063,1.5215,1.5375,1.564,1.5838,1.6139,1.6826,1.7147,1.7398,1.8142,1.8433,1.8433,0.0,0.0,0.0,0.0,0.0,0.0,0.0,0.0,0.0,0.0,0.0,0.0,0.0,0.0,0.0,0.0,0.9761,1.0247,1.0604,1.0618,1.0648,1.0848,1.1129,1.1423,1.1717,1.2155,1.2576,1.3039,1.3053,1.3053,1.298,1.2746,1.2599,1.2526,1.2378,1.2305,1.2305,1.2305,1.2305,1.2291,1.2198,1.2051,0.0,0.0,0.0,0.0,0.0,0.0,0.0,0.0,1.0647,1.0767,1.1033,1.1431,1.1817,1.1902,1.2493,1.3181,1.3447,1.4026,1.4666,0.0,0.0,0.0,1.6827,1.7225,1.7612,0.0,0.0,0.0,0.0,0.0,0.0,0.0,0.0,0.0,0.0,0.0,0.0,0.0,0.0,0.0,0.0,0.0,0.0,0.0,0.0,0.0,0.0,1.48,1.4931,1.4931,1.4931,1.4931,1.4931,1.4931,1.4931,1.4931,1.4931,1.4931,1.4931,1.4931,1.4969,1.5035,1.5177,1.5309,1.5451,1.5744,1.6034,1.625,1.6957,1.7429,1.77,1.8142,1.8433,1.8433,0.0,0.0,0.0,0.0,0.0,0.0,0.0,0.0,0.7901,0.7901,0.7901,0.0,0.0,0.0,0.0,0.0,0.9761,1.0234,1.0604,1.0618,1.0618,1.0618,1.0835,1.1129,1.141,1.1717,1.2155,1.2599,1.282,1.282,1.2599,1.2599,1.2526,1.2305,1.2305,1.2305,1.2305,1.2305,1.2305,1.2278,1.1984,1.1864,1.1797,0.0,0.0,0.0,0.0,0.0,0.0,0.0,1.0502,1.0767,1.1021,1.1298,1.1588,1.1842,1.2493,1.3181,1.3447,1.4292,1.5173,0.0,0.0,0.0,1.737,1.7491,1.772,0.0,0.0,0.0,0.0,0.0,0.0,0.0,0.0,0.0,0.0,0.0,0.0,0.0,0.0,0.0,0.0,0.0,0.0,0.0,0.0,0.0,0.0,1.4931,1.4931,1.4931,1.4931,1.4931,1.4931,1.4931,1.4931,1.4931,1.4941,1.4941,1.4931,1.4931,1.5044,1.5233,1.5233,1.5479,1.5857,1.5867,1.626,1.6997,1.7268,1.77,1.8433,1.8433,1.8433,1.8433,0.0,0.0,0.0,0.0,0.0,0.0,0.0,0.0,0.7901,0.7901,0.7901,0.0,0.0,0.0,0.0,0.0,0.0,0.0,1.0234,1.0448,1.0618,1.0618,1.0835,1.1035,1.1116,1.161,1.2155,1.2599,1.2673,1.2673,1.2599,1.2452,1.2378,1.2305,1.2305,1.2305,1.2305,1.2305,1.2305,1.2278,1.1984,1.1744,1.1516,0.0,0.0,0.0,0.0,0.0,0.0,0.0,0.0,0.0,1.0755,1.1154,1.1588,1.1842,1.2493,1.3181,1.3447,1.4292,0.0,0.0,0.0,0.0,0.0,1.7913,0.0,0.0,0.0,0.0,0.0,0.0,0.0,0.0,0.0,0.0,0.0,0.0,0.0,0.0,0.0,0.0,0.0,0.0,0.0,0.0,0.0,0.0,0.0,1.4931,1.4931,1.4931,1.4931,1.4931,1.4931,1.5073,1.5139,1.5148,1.53,1.5215,1.4941,1.5082,1.5177,1.5252,1.5545,1.5744,1.5867,1.6298,1.6666,1.6997,1.7268,1.77,1.8433,1.8433,1.8433,1.8433,0.0,0.0,0.0,0.0,0.0,0.0,0.0,0.0,0.7901,0.7901,0.7901,0.7901,0.0,0.0,0.0,0.0,0.0,0.0,1.01,1.0394,1.0618,1.0618,1.0728,1.0929,1.1156,1.1623,1.2083,1.2452,1.2452,1.2452,1.2452,1.2378,1.2305,1.2305,1.2305,1.2305,1.2305,1.2305,1.2305,1.2278,1.1984,1.169,1.1396,0.0,0.0,0.0,0.0,0.0,0.0,0.0,0.0,0.0,1.0635,1.1021,1.1443,1.1817,1.2409,1.3037,1.3411,0.0,0.0,0.0,0.0,0.0,0.0,0.0,0.0,0.0,0.0,0.0,0.0,0.0,0.0,0.0,0.0,0.0,0.0,0.0,0.0,0.0,0.0,0.0,0.0,0.0,0.0,0.0,0.0,0.0,0.0,1.4931,1.4931,1.4931,1.4931,1.4931,1.4931,1.513,1.5233,1.5233,1.5451,1.5432,1.5186,1.5309,1.5404,1.5498,1.5838,1.6129,1.6269,1.6676,1.6866,1.7127,1.7559,1.7991,1.8433,1.8433,1.8433,1.8433,0.0,0.0,0.7607,0.7631,0.0,0.0,0.0,0.0,0.7901,0.7901,0.7901,0.7901,0.0,0.0,0.0,0.0,0.0,0.0,1.006,1.0381,1.0618,1.0618,1.0618,1.0822,1.1369,1.1677,1.1971,1.2265,1.2291,1.2305,1.2305,1.2305,1.2305,1.2305,1.2305,1.2305,1.2305,1.2305,1.2305,1.2278,1.1984,1.1703,1.1436,1.1142,0.0,0.0,0.0,0.0,0.0,0.0,0.0,0.0,1.0635,1.09,1.1214,1.1757,1.2276,1.2795,1.3363,0.0,0.0,0.0,0.0,0.0,0.0,0.0,0.0,0.0,0.0,0.0,0.0,0.0,0.0,0.0,0.0,0.0,0.0,0.0,0.0,0.0,0.0,0.0,0.0,0.0,0.0,0.0,0.0,0.0,0.0,1.4931,1.4931,1.4931,1.4931,1.4931,1.4931,1.5148,1.5262,1.5262,1.5508,1.5621,1.5621,1.5602,1.5697,1.5895,1.6093,1.631,1.6725,1.6866,1.6987,1.7398,1.8142,1.8433,1.8433,1.8433,1.8433,1.8433,0.0,0.0,0.7668,0.7834,0.0,0.0,0.0,0.0,0.0,0.7901,0.0,0.0,0.0,0.0,0.0,0.0,0.0,0.0,0.0,1.0335,1.0618,1.0618,1.0618,1.0728,1.1076,1.1369,1.1663,1.1957,1.2184,1.2305,1.2305,1.2305,1.2305,1.2305,1.2305,1.2305,1.2305,1.2305,1.2305,1.2278,1.1984,1.1837,1.1744,1.145,1.1156,0.0,0.0,0.0,0.0,0.0,0.0,0.0,1.0635,1.09,1.1214,1.1757,1.2143,1.2566,0.0,1.4147,0.0,0.0,0.0,0.0,0.0,0.0,0.0,0.0,0.0,0.0,0.0,0.0,0.0,0.0,0.0,0.0,0.0,0.0,0.0,0.0,0.0,0.0,0.0,0.0,0.0,0.0,0.0,0.0,1.4931,1.4931,1.4931,1.4931,1.4931,1.4931,1.4931,1.53,1.5489,0.0,1.5867,1.6046,1.6046,1.5876,1.5914,1.6112,1.616,1.631,1.6282,1.6715,1.6987,1.7398,1.8142,1.8433,1.8433,1.8433,1.8433,1.8433,0.0,0.0,0.0,0.0,0.0,0.0,0.0,0.0,0.0,0.0,0.0,0.0,0.0,0.0,0.0,0.0,0.0,0.0,0.0,1.0234,1.0618,1.0618,1.0618,1.0766,1.0982,1.1142,1.1436,1.1864,1.2024,1.2171,1.2305,1.2305,1.2305,1.2305,1.2305,1.2305,1.2305,1.2305,1.2305,1.2291,1.2131,1.1997,1.185,1.169,1.1463,1.1196,1.1196,0.0,0.0,0.0,0.0,0.0,0.0,0.0,1.1214,1.1757,1.2107,1.2493,0.0,0.0,0.0,0.0,0.0,0.0,0.0,0.0,0.0,0.0,0.0,0.0,0.0,0.0,0.0,0.0,0.0,0.0,0.0,0.0,0.0,0.0,0.0,0.0,0.0,0.0,0.0,0.0,0.0,1.4931,1.4931,1.4931,1.4931,1.4931,1.4931,1.4931,1.4931,1.5347,1.5564,1.5564,1.598,1.6178,1.6178,1.6065,1.6075,1.6178,1.6178,1.631,1.6564,1.7007,1.7429,1.7851,1.8282,1.8433,1.8433,1.8433,1.8433,1.8433,0.0,0.0,0.0,0.0,0.0,0.0,0.0,0.0,0.0,0.0,0.0,0.0,0.0,0.0,0.0,0.0,0.0,0.0,0.0,0.0,0.0,1.0618,1.0618,1.0675,1.0915,1.0969,1.1249,1.1797,1.1837,1.2024,1.2305,1.2305,1.2305,1.2305,1.2305,1.2305,1.2305,1.2305,1.2305,1.2305,1.2305,1.2158,1.1944,1.1944,1.1757,1.1503,1.1503,1.1408,1.123,1.1283,0.0,0.0,0.0,0.0,1.1214,1.1757,1.2071,1.2433,0.0,0.0,0.0,0.0,0.0,0.0,0.0,0.0,0.0,0.0,0.0,0.0,0.0,0.0,0.0,0.0,0.0,0.0,0.0,0.0,0.0,0.0,0.0,0.0,0.0,0.0,0.0,0.0,0.0,1.4931,1.4931,1.4931,1.4931,1.4931,1.4931,1.495,1.4988,1.5366,1.5574,1.5621,1.5999,1.6178,1.6178,1.6178,1.6178,1.6178,1.6178,1.6452,1.6856,1.7157,1.7731,1.8433,1.8433,1.8433,1.8433,1.8433,1.8433,1.8433,0.0,0.0,0.0,0.0,0.0,0.0,0.0,0.0,0.0,0.0,0.7901,0.7901,0.7901,0.8209,0.0,0.0,0.0,0.0,1.0047,0.0,0.0,1.0618,1.0618,1.0645,1.0685,1.0862,1.1156,1.149,1.1744,1.2024,1.2305,1.2305,1.2305,1.2305,1.2305,1.2305,1.2305,1.2305,1.2305,1.2305,1.2305,1.2278,1.2251,1.2251,1.2064,1.181,1.181,1.165,1.1394,1.1519,1.1553,0.0,0.0,0.0,0.0,1.1757,1.195,1.2204,0.0,0.0,0.0,0.0,0.0,0.0,0.0,0.0,0.0,0.0,0.0,0.0,0.0,0.0,0.0,0.0,0.0,0.0,0.0,0.0,0.0,0.0,0.0,0.0,0.0,0.0,0.0,0.0,1.4931,1.4931,1.4931,1.4931,1.4931,1.4931,1.4931,1.5016,1.5186,1.5441,1.5649,1.5819,1.6065,1.6178,1.6178,1.6178,1.6178,1.6178,1.6178,1.6301,1.6404,1.7007,1.7731,1.8433,1.8433,1.8433,1.8433,1.8433,1.8433,1.8433,0.0,0.0,0.0,0.0,0.0,0.0,0.0,0.0,0.0,0.0,0.0,0.8172,0.8282,0.8626,0.8946,0.9188,0.9636,1.0047,1.0341,1.0551,1.0618,1.0618,1.0618,1.0618,1.0618,1.0752,1.0889,1.1182,1.1476,1.177,1.2064,1.2225,1.2305,1.2305,1.2305,1.2305,1.2318,1.2478,1.2545,1.2572,1.2746,1.2812,1.2812,1.2812,1.2732,1.2599,1.2425,1.2278,1.2158,1.2045,1.1886,1.184,1.1749,0.0,0.0,0.0,1.2326,0.0,1.377,1.4883,1.5858,0.0,0.0,0.0,0.0,0.0,0.0,0.0,0.0,0.0,0.0,0.0,0.0,0.0,0.0,0.0,0.0,0.0,0.0,0.0,0.0,0.0,0.0,0.0,0.0,0.0,1.4931,1.4931,1.4931,1.4931,1.4931,1.4931,1.5044,1.5139,1.5233,1.5564,1.5838,1.6037,1.6141,1.6178,1.6178,1.6178,1.6178,1.6178,1.6178,1.616,1.6272,1.7017,1.7731,1.8444,1.8433,1.8433,1.8433,1.8433,1.8433,1.8433,0.0,0.0,0.0,0.0,0.0,0.0,0.0,0.0,0.0,0.0,0.0,0.8563,0.8676,0.0,0.0,0.0,0.9933,1.0247,1.0604,1.0618,1.0618,1.0618,1.0618,1.0618,1.0618,1.0618,1.0701,1.0995,1.1289,1.1583,1.1877,1.2171,1.2305,1.2305,1.2305,1.2345,1.2425,1.2652,1.2876,1.2879,1.312,1.3213,1.3213,1.3213,1.3213,1.3173,1.2946,1.2866,1.2826,1.2612,1.2457,1.2306,1.2231,1.2155,0.0,0.0,0.0,1.3124,0.0,0.0,1.5946,1.6573,1.7326,0.0,0.0,0.0,0.0,0.0,0.0,0.0,0.0,0.0,0.0,0.0,0.0,0.0,0.0,0.0,0.0,0.0,0.0,0.0,0.0,0.0,0.0,0.0,1.4931,1.4931,1.4931,1.5062,1.509,1.5138,1.5423,1.5558,1.5663,1.5891,1.6158,1.6178,1.6178,1.6178,1.6178,1.6178,1.6178,1.6178,1.6178,1.616,1.6282,1.6725,1.7449,1.8163,1.8293,1.8293,1.8433,1.8433,1.8433,1.8433,0.0,0.0,0.0,0.0,0.0,0.0,0.0,0.0,0.0,0.0,0.0,0.8949,0.8949,0.9266,0.9571,0.9832,0.9992,1.0247,1.0604,1.0618,1.0618,1.0618,1.0618,0.0,1.0618,1.0618,1.0701,1.0995,1.1289,1.1583,1.1877,1.2171,1.2305,1.2305,1.2305,1.2452,1.2795,1.2808,1.2919,1.3186,1.32,1.3213,1.3213,1.3213,1.3213,1.3213,1.3186,0.0,1.3186,1.3173,1.316,1.3081,1.2923,1.2844,1.2816,0.0,0.0,0.0,0.0,1.4849,0.0,1.656,0.0,0.0,0.0,0.0,0.0,0.0,0.0,0.0,0.0,0.0,0.0,0.0,0.0,0.0,0.0,0.0,0.0,0.0,0.0,0.0,0.0,0.0,0.0,0.0,1.4931,1.4931,1.4931,1.5202,1.5561,1.5756,1.6042,1.651,1.6924,1.6737,1.6442,1.6178,1.6178,1.6178,1.6178,1.6178,1.6178,1.6178,1.6178,1.616,1.6131,1.6282,1.6856,1.771,1.7861,1.8153,1.8433,1.8433,1.8433,1.8433,0.0,0.0,0.0,0.0,0.0,0.0,0.0,0.0,0.0,0.0,0.0,0.0,0.0,0.9836,1.0102,1.0332,1.0394,1.0448,1.0618,1.0618,1.0618,1.0618,1.0618,1.0618,1.0618,1.0681,1.0798,1.0843,1.1464,1.1833,1.1943,1.2439,1.2673,1.2686,1.2655,1.2728,1.2849,1.316,1.3387,1.3507,1.3694,1.3881,1.4055,1.4055,1.4175,0.0,0.0,0.0,0.0,1.3333,1.3213,1.3213,1.3134,1.3055,1.3107,1.3316,1.3802,1.4313,0.0,0.0,0.0,1.66,1.7131,1.7742,0.0,0.0,0.0,0.0,0.0,0.0,0.0,0.0,0.0,0.0,0.0,0.0,0.0,0.0,0.0,0.0,0.0,0.0,0.0,0.0,0.0,0.0,0.0,1.5583,1.5583,1.5714,1.5954,1.6175,1.6315,1.6732,1.7177,1.7127,1.7026,1.6885,1.6885,1.6885,1.6885,1.6734,1.6433,1.6282,1.6734,1.6885,1.6885,1.6846,1.7419,1.8163,1.8153,1.8293,1.8433,1.8433,1.8433,1.8433,0.0,0.0,0.0,0.0,0.0,0.8705,0.8789,0.8872,0.9016,0.9234,0.0,0.0,0.0,0.0,1.0428,1.0555,1.0618,1.0618,1.0618,1.0618,1.0618,1.0618,1.0618,1.0681,1.0681,1.0807,1.087,1.087,1.1609,1.1983,1.1997,1.2613,1.2949,1.3061,1.3141,1.3124,1.3074,1.3507,1.383,1.3948,1.4148,1.4402,1.4669,1.4669,0.0,0.0,0.0,0.0,0.0,1.3935,1.3801,1.3774,1.3681,1.3587,1.3547,1.3734,1.4135,1.4589,1.4883,0.0,0.0,0.0,0.0,1.7395,0.0,0.0,0.0,0.0,0.0,0.0,0.0,0.0,0.0,0.0,0.0,0.0,0.0,0.0,0.0,0.0,0.0,0.0,0.0,0.0,0.0,0.0,0.0,0.0,1.5974,1.6104,1.6378,1.6819,1.712,1.7282,1.7439,1.7449,1.7449,1.7308,1.7308,1.7308,1.7308,1.7007,1.6715,1.6554,1.7137,1.7449,1.7631,1.7439,1.7721,1.8163,1.8293,1.8293,1.8433,1.8433,1.8433,1.8433,0.0,0.0,0.8693,0.8693,0.8693,0.8848,0.9114,0.9273,0.9556,0.9792,0.0,0.0,0.0,0.0,0.0,1.0645,1.0645,1.0645,1.0645,1.0645,1.0631,1.0631,1.0744,1.0807,1.0807,1.0996,1.1122,1.1122,1.1741,1.1983,1.2065,1.2613,1.3061,1.3459,1.3677,1.3738,1.3529,1.3925,1.4239,1.4522,0.0,1.4723,1.499,0.0,0.0,0.0,1.5003,1.5003,0.0,1.4977,1.4977,1.4923,1.4629,1.4335,1.4108,1.4108,1.4309,1.4603,0.0,0.0,0.0,0.0,0.0,0.0,1.7435,0.0,1.8196,0.0,0.0,0.0,0.0,0.0,0.0,0.0,0.0,0.0,0.0,0.0,0.0,0.0,0.0,0.0,0.0,0.0,0.0,0.0,1.6234,1.6104,1.6104,1.6385,1.6986,1.7701,1.8186,1.8293,1.8002,1.7861,1.7721,1.7308,1.7308,1.7308,1.7308,1.7007,1.7147,1.7308,1.7278,1.7731,1.8368,1.7913,1.7741,1.7861,1.7872,1.8163,1.8444,1.8455,1.8455,1.8455,0.0,0.8777,0.8956,0.8956,0.9248,0.9605,0.9863,1.0043,1.0339,0.0,0.0,0.0,1.1167,1.1168,1.1182,1.1182,1.1182,1.1182,1.1182,1.0995,1.094,1.0992,1.0853,1.087,1.0996,1.1185,1.1247,1.1247,1.2006,1.239,1.2405,1.3042,1.352,1.3838,1.4171,1.4273,1.4356,1.4727,0.0,1.5043,1.5089,1.5409,0.0,0.0,0.0,0.0,0.0,1.5912,0.0,0.0,1.5284,1.5231,0.0,1.479,1.4723,1.4723,1.4776,1.4897,1.5204,0.0,0.0,0.0,0.0,0.0,1.7141,1.7502,1.7822,0.0,0.0,0.0,0.0,0.0,0.0,0.0,0.0,0.0,0.0,0.0,0.0,0.0,0.0,0.0,0.0,0.0,0.0,0.0,1.7518,1.7389,1.7389,1.7862,1.8262,1.853,1.9003,1.9122,1.8703,1.8703,1.8433,1.8153,1.8153,1.8153,1.8153,1.8002,1.8012,1.8153,1.8142,1.8153,1.8455,1.8304,1.8433,1.8724,1.8899,1.9249,1.9566,1.9735,1.9802,1.9802,0.9016,0.9175,0.9468,0.9642,0.9918,1.0196,1.0472,1.0645,1.0898,0.0,0.0,0.0,1.1597,1.1717,1.1744,1.1623,1.149,1.1423,1.1491,1.1397,1.137,1.1503,1.1469,1.1446,1.1383,1.1496,1.156,1.156,1.2211,1.2584,1.2731,1.3258,1.374,1.4194,1.4384,1.4714,1.5213,1.5533,0.0,0.0,1.577,0.0,0.0,1.6443,1.6505,0.0,0.0,0.0,1.6406,1.6059,1.5778,0.0,0.0,0.0,0.0,1.4963,1.5057,1.5177,1.5351,1.5484,1.5658,0.0,0.0,0.0,1.67,1.7101,1.7488,0.0,0.0,0.0,0.0,0.0,0.0,0.0,0.0,0.0,0.0,0.0,0.0,0.0,0.0,0.0,0.0,1.8324,1.814,1.8128,1.7976,1.8033,1.8033,1.8422,1.8696,1.8799,1.9187,1.9299,1.8993,1.8993,1.8854,1.8433,1.8433,1.8433,1.8433,1.8433,1.8433,1.8433,1.8433,1.8433,1.8444,1.8682,1.8997,1.916,1.9547,1.9934,2.0101,2.0249,2.0306,2.0306,0.0,0.9718,0.9993,1.0428,1.0558,1.0674,1.0955,1.1158,1.1335,0.0,1.154,1.173,1.1984,1.2251,1.2291,1.211,1.1841,1.1693,1.1902,1.1833,1.1943,1.215,1.223,1.2193,1.1905,1.1956,1.2087,1.2087,1.2409,1.2731,1.3023,1.3345,1.3843,1.4472,1.4472,1.5013,1.5935,1.6243,0.0,1.5908,1.65,1.6936,0.0,0.0,1.7237,0.0,1.6988,1.6901,1.6887,1.682,1.642,0.0,0.0,0.0,0.0,0.0,1.5297,1.5484,1.5458,1.5631,1.5832,0.0,0.0,0.0,1.6259,1.6673,1.7141,1.7422,1.7729,0.0,0.0,0.0,0.0,0.0,0.0,0.0,0.0,0.0,0.0,0.0,0.0,0.0,1.8766,1.8741,1.8625,1.8375,1.8232,1.8139,1.8162,1.8415,1.8668,1.8887,1.9163,1.9278,1.9089,1.9111,1.8854,1.8573,1.8433,1.8433,1.8433,1.8433,1.8433,1.8433,1.8433,1.8433,1.8595,1.9282,1.9513,1.9513,2.0226,2.0485,2.0497,2.052,2.0531,2.0531,0.9907,1.0122,1.0403,1.0454,1.0792,1.1175,1.1449,1.184,1.2138,1.2452,1.2705,1.2879,1.2946,1.2999,1.3077,1.3165,1.3097,1.3223,1.3467,1.2991,1.2797,1.2942,1.2527,1.2294,1.2356,1.2356,1.2423,1.2423,1.276,1.295,1.3023,1.3345,1.3843,1.4472,1.4472,1.5013,1.5935,1.6243,0.0,1.6993,1.7194,0.0,1.8138,1.8245,1.8408,1.8554,1.8482,1.8455,1.8374,0.0,1.7021,1.654,0.0,0.0,0.0,0.0,0.0,0.0,0.0,0.0,0.0,0.0,0.0,0.0,1.6219,1.6366,1.6526,0.0,1.7114,0.0,0.0,0.0,0.0,0.0,0.0,0.0,0.0,0.0,0.0,0.0,0.0,0.0,1.9094,1.9048,1.9085,1.8963,1.8963,1.8843,1.8932,1.9196,1.9364,1.9412,1.9879,1.9894,1.953,1.9727,1.9692,1.9401,1.8993,1.8854,1.8854,1.8573,1.8433,1.8433,1.8433,1.8724,1.9341,1.99,1.9968,1.9832,2.0712,2.1337,2.1666,2.1882,2.1953,2.1953,1.0315,1.0612,1.0924,1.1136,1.1537,1.1827,1.2191,1.2483,1.2866,1.316,1.3587,1.3868,1.3868,1.3937,1.4103,1.4172,1.398,1.3975,1.4214,1.3775,1.3672,1.3823,1.336,1.3099,1.3009,1.2848,1.276,1.276,1.2921,1.3097,1.3258,1.3579,1.4004,1.4487,1.4809,1.5394,1.617,1.6652,1.7223,1.7823,1.7804,0.0,1.8861,1.8864,1.907,1.9354,1.9194,1.914,1.9085,1.8455,1.7941,0.0,0.0,1.7048,1.6874,0.0,1.6486,1.646,0.0,0.0,0.0,1.6046,0.0,0.0,0.0,1.6166,1.641,1.667,1.6927,0.0,0.0,0.0,0.0,0.0,0.0,0.0,0.0,0.0,0.0,0.0,0.0,0.0,1.8828,1.8864,1.9069,1.9229,1.9261,1.9374,1.9385,1.9646,1.9727,1.9732,2.0135,2.0146,1.9734,1.9992,1.997,1.9541,1.9401,1.9262,1.9262,1.8971,1.8681,1.8379,1.8832,1.9273,1.9609,2.0221,2.0359,2.0445,2.1408,2.1905,2.2078,2.2211,2.2259,2.2259,1.0823,1.1152,1.1537,1.1917,1.2251,1.2572,1.2879,1.3186,1.3507,1.3854,1.4362,1.4771,1.4771,1.5075,1.5265,1.521,1.4923,1.4781,1.4972,1.4669,1.4562,1.4662,1.434,1.4018,1.3697,1.336,1.3199,1.3199,1.314,1.3272,1.3594,1.3857,1.4194,1.4589,1.5174,1.5774,1.6418,0.0,0.0,1.8321,0.0,1.8847,1.9418,1.9477,1.9808,2.0096,1.9892,1.9738,1.9528,1.9306,0.0,1.8617,1.8049,1.7701,0.0,0.0,0.0,0.0,0.0,0.0,0.0,0.0,0.0,1.5912,0.0,0.0,0.0,0.0,0.0,0.0,0.0,0.0,0.0,0.0,0.0,0.0,0.0,0.0,0.0,0.0,0.0,1.8571,1.8459,1.8633,1.8907,1.9171,1.9491,1.9709,1.9687,1.9903,2.0029,2.0048,2.0372,2.0246,1.9923,2.0233,2.0249,1.9959,1.982,1.968,1.968,1.9379,1.9077,1.8626,1.9239,1.9715,1.9947,2.0376,2.074,2.1148,2.1917,2.2259,2.2259,2.2259,2.2259,2.2259,1.1354,1.1753,1.2211,1.2251,1.2732,1.32,1.3494,1.3801,1.4188,1.4736,1.5264,1.565,1.565,1.6174,1.6415,1.633,0.0,0.0,1.6228,0.0,1.5628,1.5335,1.5013,1.4677,1.437,1.4033,1.3872,1.3872,1.3579,1.3609,1.3931,1.396,1.4311,1.4896,1.5262,0.0,0.0,0.0,1.7706,0.0,1.8935,1.9389,0.0,2.0384,2.0696,2.106,2.1378,2.0868,2.0172,0.0,1.978,1.9181,0.0,1.8687,0.0,0.0,0.0,0.0,0.0,0.0,0.0,0.0,1.6433,0.0,0.0,0.0,1.6265,0.0,0.0,0.0,0.0,0.0,0.0,0.0,0.0,0.0,0.0,0.0,0.0,0.0,1.9236,1.914,1.885,1.891,1.8876,1.8855,1.914,1.9408,1.9674,1.9725,1.9865,2.0017,2.0535,2.0813,2.0718,2.0959,2.1069,2.1069,2.0388,1.997,1.997,1.9843,1.9692,1.9529,1.9529,2.0262,2.1254,2.0756,2.1002,2.1848,2.215,2.2259,2.2259,2.2259,2.2259,2.2259,1.2024,1.2265,1.2612,1.2799,1.332,1.3761,1.3881,1.4751,1.5554,1.5892,1.6441,1.6828,0.0,0.0,0.0,0.0,0.0,0.0,0.0,0.0,1.6404,1.6257,1.5599,1.516,1.5028,1.4531,1.4267,1.4267,1.4136,1.4136,1.4267,1.4457,1.4779,1.5248,1.5745,0.0,1.6974,0.0,0.0,0.0,0.0,0.0,0.0,2.0896,2.132,2.1803,2.1962,2.1756,2.1406,0.0,2.0857,0.0,0.0,0.0,0.0,0.0,0.0,0.0,0.0,0.0,0.0,0.0,0.0,0.0,0.0,0.0,1.6717,0.0,0.0,0.0,0.0,0.0,0.0,0.0,1.7639,0.0,0.0,0.0,0.0,0.0,0.0,0.0,1.8836,1.903,1.9108,1.9078,1.9372,1.9615,1.9784,2.0125,2.0237,2.0116,2.0657,2.0899,2.0933,2.1192,2.1333,2.1484,2.122,2.1081,2.1081,2.0804,2.0515,2.0225,2.0239,2.0685,2.1432,2.1547,2.1618,2.1897,2.2162,2.2259,2.2259,2.2259,2.2259,2.2259,1.307,1.297,1.3171,1.3467,1.3951,1.4453,1.4696,1.5879,1.6773,1.6952,1.7527,0.0,1.8079,1.8382,0.0,0.0,0.0,1.8277,0.0,0.0,1.7267,1.7004,1.6316,0.0,0.0,1.5057,1.4735,1.4735,1.456,1.4516,1.4604,1.4926,1.5248,1.5599,0.0,1.6813,1.7369,0.0,0.0,1.933,1.9974,2.0735,2.1481,2.1569,2.1891,2.2315,2.2403,2.2374,2.2301,2.2045,2.1709,0.0,2.0826,0.0,0.0,0.0,0.0,0.0,1.9038,0.0,0.0,0.0,0.0,0.0,0.0,0.0,0.0,0.0,0.0,0.0,0.0,0.0,0.0,1.7326,0.0,1.7282,0.0,0.0,0.0,0.0,0.0,0.0,0.0,1.8912,1.9111,1.9195,1.9467,1.9707,1.9784,2.016,2.0385,2.0309,2.0781,2.1085,2.1185,2.1334,2.1616,2.1897,2.1897,2.176,2.176,2.1484,2.1057,2.0756,2.0683,2.1016,2.1518,2.2079,2.2166,2.1993,2.2186,2.2259,2.2259,2.2259,2.2259,2.2259,1.4573,1.4131,0.0,1.4323,1.4723,1.5218,1.6392,1.7078,1.7696,0.0,0.0,0.0,0.0,0.0,0.0,0.0,0.0,1.9433,1.8803,0.0,1.8306,0.0,0.0,0.0,0.0,0.0,1.5394,1.5394,1.4779,1.4633,1.486,1.5262,1.5584,1.5921,1.655,1.7018,1.7369,1.8028,1.8686,1.933,1.9974,2.1013,2.2184,0.0,2.2593,2.2652,2.2959,0.0,0.0,2.2608,2.2418,0.0,0.0,0.0,0.0,0.0,0.0,0.0,0.0,0.0,0.0,1.8856,0.0,0.0,0.0,0.0,1.7437,0.0,0.0,0.0,0.0,0.0,1.7326,1.7326,1.7077,0.0,0.0,0.0,0.0,0.0,0.0,0.0,0.0,1.8386,1.8576,0.0,1.9154,1.9508,1.9809,1.9784,2.0094,2.0655,2.0962,2.1403,2.1977,2.187,2.2023,2.231,2.1897,2.176,2.176,2.176,2.1333,2.0743,2.0756,2.0943,2.1474,2.2125,2.2276,2.2247,2.2259,2.2259,2.2259,2.2259,2.2259,2.2259,1.5402,0.0,0.0,0.0,0.0,1.6434,1.757,1.8152,0.0,0.0,0.0,0.0,0.0,0.0,2.0837,0.0,0.0,2.0311,2.0077,1.9667,0.0,0.0,0.0,1.7677,0.0,0.0,0.0,0.0,1.6019,1.6044,1.6163,1.644,1.665,1.6996,1.7538,1.7943,0.0,0.0,0.0,0.0,0.0,2.2363,2.2734,0.0,0.0,2.2959,2.3062,2.3047,0.0,2.2945,2.274,2.2476,2.234,2.2137,2.1831,2.1379,2.0946,0.0,0.0,0.0,1.9693,1.9599,0.0,0.0,0.0,0.0,0.0,0.0,0.0,0.0,0.0,1.7326,1.7326,1.7326,1.7062,1.6857,0.0,1.6579,1.6535,0.0,0.0,0.0,0.0,0.0,0.0,0.0,1.8893,0.0,1.948,1.9693,2.001,2.0361,2.0668,2.1109,2.1697,2.1859,2.2151,2.243,2.2493,2.2585,2.2448,2.231,2.2186,2.2061,2.1077,2.1285,2.2279,2.2224,2.2325,2.2337,2.2347,2.2259,2.2259,2.2259,2.2259,2.2259,1.6387,1.66,0.0,0.0,0.0,0.0,0.0,0.0,0.0,0.0,2.0735,0.0,2.1233,0.0,2.1554,0.0,2.1364,2.1189,2.1072,2.0574,0.0,1.9849,1.9199,0.0,0.0,0.0,0.0,0.0,0.0,1.7024,1.6919,1.7201,1.743,1.7766,1.8117,1.8651,1.9323,0.0,2.0468,0.0,0.0,2.3171,0.0,0.0,2.3355,2.3281,0.0,2.3281,2.3281,2.3281,2.3062,2.2798,2.2798,2.2579,2.2301,2.2081,2.1715,2.1335,2.113,2.075,0.0,2.015,1.993,0.0,1.9228,0.0,0.0,0.0,0.0,0.0,0.0,0.0,1.7326,1.7326,1.696,1.6608,0.0,1.617,0.0,0.0,0.0,0.0,0.0,0.0,0.0,0.0,0.0,0.0,0.0,1.9371,1.9761,1.9907,2.0307,2.0802,2.139,2.1683,2.2031,2.2418,2.2619,2.2752,2.2859,2.2585,2.2598,2.2638,2.1799,2.1657,2.1961,2.2306,2.241,2.2227,2.2323,2.2259,2.2259,2.2259,2.2259,2.2259,1.7735,1.7882,0.0,0.0,1.8425,0.0,0.0,0.0,2.0896,0.0,2.1569,2.1891,2.2213,2.2271,2.2271,2.2271,2.2257,0.0,2.1789,2.1467,0.0,0.0,2.0121,1.9819,1.9744,0.0,0.0,0.0,0.0,0.0,1.7259,1.7596,1.7919,1.8241,1.8578,0.0,1.9659,1.9994,2.0649,2.1307,2.2604,2.3337,2.3719,2.4375,2.4254,2.3632,2.3618,2.3618,2.3618,2.3618,2.3398,2.3135,2.3135,2.2915,2.2637,2.2623,2.2198,2.1745,2.173,2.1262,2.0764,2.075,0.0,0.0,0.0,0.0,1.8833,0.0,0.0,0.0,0.0,0.0,0.0,1.7326,1.6784,1.6155,1.5511,1.5423,0.0,0.0,0.0,0.0,0.0,0.0,0.0,0.0,0.0,0.0,0.0,1.8961,1.938,1.9475,1.9933,2.0508,2.1082,2.1403,2.1844,2.2392,2.2405,2.2579,2.2859,2.2859,2.2722,2.231,2.2775,2.2051,2.0838,2.2069,2.2526,2.2203,2.2299,2.2247,2.2259,2.2259,2.2259,2.2259,1.8467,1.8935,1.9462,0.0,2.0091,2.0179,0.0,0.0,0.0,0.0,2.255,2.2871,2.3193,2.3457,2.3716,2.397,2.3747,0.0,0.0,0.0,0.0,2.179,2.1577,2.12,2.0465,2.002,0.0,1.9299,0.0,0.0,1.8861,1.9129,1.9319,1.9414,1.9775,0.0,2.0625,2.1223,2.2182,2.3331,2.396,2.4436,0.0,0.0,2.5068,2.5076,2.456,2.4342,2.4342,2.4084,2.3735,2.3471,2.3471,2.3252,2.293,2.2696,2.2506,2.2345,2.2125,2.1759,2.1393,2.1145,2.0779,2.0355,0.0,0.0,0.0,0.0,0.0,0.0,0.0,0.0,0.0,1.7369,1.6784,1.6155,0.0,0.0,0.0,0.0,0.0,0.0,0.0,0.0,0.0,0.0,0.0,0.0,0.0,0.0,1.9374,1.9679,2.0039,2.0414,2.0788,2.1296,2.1737,2.2098,2.2311,2.2579,2.2859,2.2859,2.2859,2.2722,2.2913,2.2388,2.1761,2.2384,2.2237,2.1764,2.2178,2.225,2.2259,2.2259,2.2259,2.2259,1.9535,0.0,0.0,2.1959,0.0,0.0,2.1789,0.0,0.0,2.3237,2.3577,0.0,2.4306,2.4501,2.4605,2.4864,2.4698,0.0,0.0,0.0,0.0,2.3253,2.2806,2.222,2.1713,2.1355,0.0,2.0218,0.0,0.0,1.9681,1.986,1.9955,2.0114,2.0464,2.0813,2.1211,2.2069,2.3149,2.4293,2.4499,0.0,0.0,2.5549,2.5814,2.6021,2.5712,2.5328,2.496,2.4815,2.4476,2.4035,2.3887,2.3598,2.3252,2.293,2.274,2.2593,2.2418,2.214,2.1832,2.1511,2.1174,2.0808,2.0296,1.9959,1.9652,0.0,0.0,0.0,0.0,0.0,0.0,1.7194,1.6696,0.0,0.0,0.0,0.0,0.0,0.0,0.0,0.0,0.0,0.0,0.0,0.0,0.0,0.0,0.0,1.9234,1.9398,1.9766,2.0174,2.0481,2.0935,2.1376,2.1804,2.2084,2.2378,2.2672,2.2806,2.2859,2.2859,2.2886,2.2762,2.2375,2.2383,2.2178,2.1951,2.219,2.235,2.2259,2.2259,2.2259,2.2259,0.0,0.0,0.0,0.0,0.0,0.0,0.0,2.323,0.0,2.4247,0.0,2.503,2.5397,2.5397,2.5528,2.5528,0.0,2.5497,2.5405,2.4964,2.4579,2.4688,2.3904,2.3362,2.3228,2.2784,0.0,0.0,0.0,0.0,2.0146,2.0146,2.0305,2.0607,2.0925,0.0,0.0,2.272,2.3705,2.4595,2.469,2.5119,2.5739,2.6088,2.6438,2.6787,2.6823,2.6346,2.5703,2.5703,2.5212,2.462,2.4336,2.4044,2.3672,2.3377,2.3068,2.2681,2.2681,2.2462,2.2169,2.1847,2.1511,2.1174,2.0808,2.0296,1.9857,1.9784,1.9316,1.8803,0.0,0.0,0.0,0.0,0.0,0.0,0.0,0.0,0.0,0.0,0.0,0.0,0.0,0.0,0.0,0.0,0.0,0.0,0.0,0.0,1.8823,1.8892,1.9494,1.9992,2.0227,2.0535,2.0975,2.155,2.1844,2.2138,2.2432,2.2726,2.2859,2.2859,2.2859,2.2886,2.2802,2.2432,2.2307,2.2602,2.2431,2.2325,2.236,2.2247,2.2259,2.2408,0.0,0.0,0.0,0.0,0.0,2.4802,2.5434,2.5145,2.5039,2.5779,2.5901,2.6161,2.6725,2.6786,2.6924,2.7199,2.7199,0.0,0.0,0.0,0.0,2.5454,2.4964,2.4674,2.4309,2.3403,2.2831,0.0,0.0,0.0,2.1592,2.1592,2.1624,2.1687,2.1751,0.0,2.2784,2.3546,0.0,2.4627,2.5214,2.5691,2.6088,2.6454,2.6803,2.7121,2.7051,2.6886,2.6439,2.6188,2.5692,2.5404,2.5343,2.4933,2.4351,2.429,2.3908,2.339,2.339,2.3044,2.2476,2.2169,2.1847,2.1452,2.0852,2.0633,2.0398,1.9872,1.9667,1.9403,1.8818,0.0,0.0,0.0,0.0,0.0,0.0,0.0,0.0,0.0,0.0,0.0,0.0,0.0,0.0,0.0,0.0,0.0,0.0,0.0,1.8929,0.0,1.9608,1.9992,0.0,0.0,2.0975,2.155,2.1844,2.2138,2.2432,2.2726,2.2859,2.2859,2.2859,2.2722,2.2461,2.2677,2.271,2.2563,2.2393,2.2325,2.2239,2.2323,2.2558,2.2707,0.0,0.0,0.0,0.0,0.0,0.0,0.0,2.69,0.0,2.7013,2.6923,2.7183,2.7648,2.7679,2.7818,2.7956,2.7956,2.7952,2.7757,2.7391,2.6978,2.647,2.5929,0.0,2.4865,2.4356,2.3832,2.3292,0.0,0.0,2.2227,2.2053,2.1957,2.1973,2.2339,2.3006,0.0,0.0,0.0,2.5151,2.55,2.5945,2.6438,2.6613,2.6899,2.72,2.72,2.7067,2.6934,2.68,2.6424,2.6121,2.5951,2.5528,2.5077,2.4711,2.4371,2.4079,2.3913,2.3608,2.329,2.2976,2.2647,2.2288,2.1795,2.1406,2.1077,2.0654,2.0204,1.9775,1.8906,1.8247,0.0,0.0,0.0,0.0,0.0,0.0,0.0,0.0,0.0,0.0,0.0,0.0,0.0,0.0,0.0,0.0,0.0,0.0,1.8797,0.0,0.0,0.0,2.0456,0.0,2.0748,2.1323,2.1777,2.2058,2.2205,2.2659,2.2859,2.2859,2.2859,2.2722,2.2585,2.2775,2.2809,2.2665,2.251,2.2645,2.2911,2.2743,2.288,2.3154,0.0,2.5923,0.0,0.0,2.7423,0.0,2.8344,2.8456,2.8284,2.7958,2.8005,2.8224,2.8551,2.863,2.8646,2.8567,2.8567,2.8503,2.8344,2.7836,2.7471,2.7328,2.6708,2.6072,2.5453,2.523,2.4706,0.0,0.0,0.0,2.2815,2.2529,2.2402,2.2418,0.0,0.0,0.0,0.0,2.5056,2.5643,2.5802,2.6184,2.6676,2.6756,2.6962,2.72,2.72,2.72,2.72,2.72,2.7067,2.6753,2.6471,2.6215,2.5782,2.5242,2.4853,2.4684,2.4408,2.4161,2.4024,2.3688,2.3413,2.3123,2.2711,2.2208,2.1668,2.1309,2.0753,1.9971,1.911,1.8405,0.0,0.0,0.0,0.0,0.0,0.0,0.0,0.0,0.0,0.0,0.0,0.0,0.0,0.0,0.0,0.0,0.0,0.0,0.0,0.0,0.0,1.9707,2.0698,0.0,2.0521,2.1122,2.171,2.1991,2.2004,2.2592,2.2859,2.2859,2.2859,2.2859,2.2859,2.2899,2.2908,2.2828,2.2613,2.2924,2.3181,2.3088,2.3241,2.3273,0.0,0.0,0.0,0.0,0.0,0.0,0.0,2.9202,2.9075,2.8757,2.8996,2.9314,2.9647,2.9949,2.9997,2.9695,2.9679,2.9393,2.8757,2.8662,2.8344,2.7709,2.7312,2.693,2.6533,2.5596,2.5056,0.0,0.0,0.0,0.0,2.388,2.3848,0.0,0.0,0.0,0.0,2.4928,2.5278,2.5691,2.6327,2.6613,2.6708,2.7026,2.7169,2.72,2.72,2.72,2.72,2.72,2.72,2.72,2.7169,2.693,2.653,2.6466,2.5864,2.4998,2.4967,2.4594,2.4024,2.3688,2.3581,2.3398,2.2772,2.2574,2.236,2.1734,2.1063,2.0286,1.9299,1.888,1.8439,0.0,0.0,0.0,0.0,0.0,0.0,0.0,0.0,0.0,0.0,1.617,0.0,0.0,0.0,0.0,0.0,0.0,0.0,1.9771,1.9456,1.9707,2.0698,2.0348,2.0521,2.1122,2.171,2.1991,2.2004,2.2592,2.2859,2.2859,2.2859,2.2859,2.2859,2.2859,2.2886,2.2939,2.2649,2.2652,2.2743,2.3184,2.3288,2.3275,0.0,0.0,0.0,0.0,0.0,0.0,0.0,2.9901,2.9854,2.9711,2.9822,2.9965,3.0108,3.0235,3.0267,3.014,3.0124,2.9917,2.9441,2.9202,2.8869,2.8376,2.782,2.7359,2.6994,2.6374,2.5945,0.0,0.0,0.0,0.0,0.0,2.4284,0.0,0.0,2.5489,2.5847,2.6221,2.6579,2.6921,2.7198,2.7442,2.767,2.7816,2.7733,2.7451,2.7451,2.7334,2.72,2.72,2.72,2.72,2.72,2.7105,2.6946,2.674,2.6198,2.5771,2.5439,2.5,2.4702,2.4561,2.4374,2.4092,2.3607,2.334,2.2944,2.2348,2.1478,2.0742,2.0165,1.9547,1.9079,0.0,0.0,0.0,0.0,0.0,0.0,0.0,0.0,0.0,0.0,0.0,0.0,0.0,0.0,0.0,0.0,0.0,0.0,1.999,0.0,2.0061,2.0939,2.0711,2.0644,2.1122,2.171,2.1991,2.2004,2.2592,2.2859,2.2859,2.2859,2.2859,2.2859,2.2859,2.2859,2.2873,2.2855,2.3028,2.3367,2.3192,2.3182,2.3469,2.8821,0.0,2.9457,0.0,3.0098,3.0387,3.0724,3.0788,3.082,3.0916,3.0932,3.0884,3.0489,3.0569,3.0585,3.0489,3.0623,3.0479,3.0144,2.9937,2.9712,2.9357,2.8638,0.0,2.7788,2.7455,2.71,2.6842,2.6133,0.0,0.0,0.0,0.0,0.0,2.6175,2.6546,2.681,2.7173,2.747,2.7701,2.7817,2.8031,2.8263,2.8263,2.813,2.7849,2.7849,2.7716,2.7467,2.7467,2.7467,2.7334,2.72,2.72,2.7153,2.6899,2.6581,2.6231,2.5882,2.5532,2.5246,2.5135,2.4913,2.4642,2.4293,2.3943,2.3415,2.2749,2.1947,2.1202,2.0757,2.0158,1.9521,1.9079,0.0,0.0,0.0,0.0,0.0,0.0,0.0,1.6404,1.6506,0.0,0.0,0.0,0.0,0.0,0.0,0.0,0.0,0.0,0.0,0.0,2.13,2.0953,2.089,2.1235,2.171,2.1991,2.2004,2.2592,2.2859,2.2859,2.2859,2.2859,2.2859,2.2859,2.2859,2.2859,2.2859,2.3157,2.3498,2.3041,2.3021,2.3333,3.0235,3.0611,3.094,3.094,3.1384,3.1647,3.2026,3.2076,3.2192,3.2538,3.2588,3.2152,3.1038,3.1172,3.1236,3.0886,3.1308,3.1313,3.0972,3.1039,3.0805,0.0,0.0,2.9699,2.9336,2.8626,2.8263,2.8246,0.0,0.0,2.7173,0.0,2.7156,2.7173,2.7173,2.7173,2.7206,2.7553,2.7701,2.7734,2.8114,2.8263,2.8263,2.8263,2.8263,2.8263,2.8263,2.8263,2.8263,2.8263,2.7981,2.7584,2.7334,2.72,2.72,2.72,2.6946,2.6597,2.6231,2.5898,2.5548,2.5199,2.5103,2.5008,2.4658,2.4293,2.3753,2.2704,2.2212,2.1739,2.1074,2.0451,1.9899,1.9598,0.0,0.0,0.0,0.0,0.0,0.0,1.6565,1.6491,1.6813,0.0,0.0,0.0,0.0,0.0,0.0,0.0,0.0,2.0208,1.9924,0.0,2.1661,2.1074,2.1012,2.1614,2.184,2.1991,2.2004,2.2592,2.2859,2.2859,2.2859,2.2859,2.2859,2.2859,2.2859,2.2859,2.2859,2.2859,2.2873,2.2873,2.2873,2.2873,3.1203,3.1432,3.1762,3.1762,3.2109,3.239,3.2769,3.2819,3.2934,3.3281,3.3133,3.2934,3.2511,3.2381,3.225,0.0,3.2119,3.2123,0.0,3.1795,3.1449,3.0821,3.0442,3.0078,2.9715,2.9253,2.9005,2.9005,0.0,0.0,0.0,2.7427,2.7554,2.7571,2.8094,2.8341,2.8358,2.8714,2.8888,2.9274,2.9393,2.9597,2.9665,2.9665,2.9547,2.9378,2.9127,2.891,2.8593,2.8345,2.8263,2.813,2.7998,2.76,2.72,2.72,2.6946,2.6597,2.6247,2.5898,2.5548,2.5199,2.5103,2.5024,2.4658,2.4134,2.3546,2.2974,2.2561,2.2212,2.1739,2.1312,2.0751,1.9977,1.9614,0.0,0.0,0.0,0.0,0.0,0.0,1.7062,0.0,1.7179,0.0,0.0,0.0,0.0,0.0,0.0,0.0,0.0,2.0346,0.0,2.1661,2.1314,2.1257,2.1614,2.184,2.2191,2.2592,2.2779,2.2859,2.2859,2.2859,2.2859,2.2859,2.2859,2.2859,2.2859,2.2859,2.2859,2.2859,2.2859,2.2859,2.2859,3.234,3.2674,3.2992,3.2992,3.3176,3.3563,3.3798,3.3848,3.3915,3.4133,3.3965,3.3848,3.3848,3.3496,0.0,3.2604,3.274,3.2809,3.2592,3.2609,3.2325,3.1839,3.1337,3.0952,3.0734,3.0232,0.0,2.9964,2.9362,2.8826,2.8391,2.8635,2.8765,2.8765,2.9151,2.9402,2.9419,2.9641,2.9864,3.0104,3.0104,3.0224,3.0429,3.0429,3.0293,3.0003,2.9902,2.9463,2.9194,2.8943,2.8776,2.8527,2.8527,2.813,2.76,2.76,2.7306,2.705,2.6697,2.6216,2.5739,2.5389,2.5199,2.4976,2.4499,2.4039,2.3594,2.3117,2.2736,2.237,2.2021,2.1687,2.1154,2.0483,2.0178,1.9744,1.9018,0.0,0.0,0.0,0.0,0.0,0.0,1.7618,1.7779,0.0,0.0,0.0,0.0,0.0,0.0,2.0223,2.0559,2.1074,2.1915,2.1555,2.1502,2.174,2.1957,2.2298,2.2859,2.2859,2.2859,2.2859,2.2859,2.2859,2.2859,2.2859,2.2859,2.2859,2.2859,2.2859,2.2859,2.2859,2.2859,2.2859,3.3835,3.4166,3.434,0.0,3.4654,0.0,3.5001,3.5018,3.5018,3.5052,3.5035,3.5018,3.5018,3.4659,3.3975,3.2856,0.0,0.0,0.0,3.3344,3.3306,3.3272,3.2587,3.2193,3.2176,3.1456,3.1063,3.1011,3.0652,3.0446,3.0429,3.0429,3.0429,3.0429,3.0429,3.0429,3.0429,3.0429,3.0446,3.0463,3.0463,3.048,3.0515,3.0515,3.0515,3.0498,3.048,3.0258,2.9967,2.9915,2.9393,2.8841,2.8807,2.8659,2.8395,2.8263,2.7981,2.7635,2.7295,2.681,2.62,2.5723,2.5373,2.4928,2.4245,2.407,2.3864,2.3197,2.2768,2.2418,2.2053,2.1719,2.137,2.102,2.0468,2.0031,2.0,0.0,0.0,0.0,0.0,0.0,0.0,1.813,1.8306,0.0,0.0,0.0,0.0,0.0,1.9959,2.0267,2.0603,2.1233,2.2169,2.1944,2.1911,2.2174,2.2114,2.2298,2.2859,2.2859,2.2859,2.2859,2.2859,2.2859,2.2859,2.2859,2.2859,2.2859,2.2859,2.2859,2.2859,2.2859,2.2859,2.2859,0.0,0.0,3.481,3.481,3.4967,3.507,3.5344,3.5378,3.5481,3.5789,3.5566,3.5378,3.5378,3.5052,3.4796,3.4399,3.4009,3.3685,3.3685,3.36,3.358,3.3289,3.31,3.2861,3.2552,3.2107,3.1593,3.1011,3.0926,3.072,3.0429,3.0429,3.0429,3.0429,3.0429,3.0429,3.0429,3.0429,3.06,3.0874,3.0874,3.1046,3.1302,3.1302,3.1302,3.1251,3.0977,3.0823,3.0669,3.0087,2.9847,2.9577,2.927,2.9185,2.8922,2.8395,2.8263,2.8048,2.767,2.7051,2.6455,2.61,2.5622,2.4992,2.4547,2.4245,2.3927,2.3514,2.3133,2.2784,2.2418,2.2069,2.1719,2.1385,2.0933,2.0499,2.0031,1.9637,0.0,0.0,1.8444,1.8277,1.8189,1.8262,1.8408,0.0,0.0,0.0,1.9623,2.0179,2.053,2.0603,2.1159,2.1701,2.2184,2.204,2.2089,2.2428,2.2435,2.2552,2.2859,2.2859,2.2859,2.2859,2.2859,2.2859,2.2859,2.2859,2.2859,2.2859,2.2859,2.2859,2.2859,2.2859,2.2859,2.2859,3.5481,3.5481,3.5481,3.5481,3.5481,3.5549,3.5755,3.5772,3.5857,3.6063,3.5909,3.5772,3.5772,3.5446,3.5224,3.5224,3.4522,3.4094,3.4094,3.3939,3.3751,3.3546,3.3357,3.3169,3.2963,3.2587,3.2107,3.1525,3.1525,3.1319,3.0943,3.0943,3.0943,3.0943,3.0943,3.0943,3.0943,3.0943,3.1063,3.1268,3.1268,3.1388,3.1559,3.1559,3.1559,3.1542,3.1337,3.1165,3.096,3.0549,3.0172,2.9864,2.9641,2.9453,2.9185,2.8922,2.8659,2.8493,2.8277,2.7586,2.6804,2.614,2.5617,2.5146,2.4658,2.4309,2.3959,2.361,2.326,2.2911,2.2545,2.2323,2.2037,2.1528,2.129,2.0933,2.0483,2.0132,0.0,1.9169,1.9059,1.8787,1.854,1.8657,1.8877,1.9213,1.9403,0.0,2.0179,2.053,2.072,2.072,2.135,2.1862,2.2184,2.2256,2.2497,2.2897,2.2766,2.2818,2.3133,2.3133,2.2996,2.2859,2.2859,2.2859,2.2859,2.2859,2.2859,2.2859,2.2859,2.2859,2.2859,2.2859,2.2859,2.2859,3.6097,3.6097,3.6097,3.6097,3.6097,3.6097,3.6097,3.6097,3.6097,3.6097,3.6097,3.6097,3.6097,3.5789,3.56,3.56,3.495,3.4505,3.4402,3.4094,3.3905,3.3837,3.3528,3.3357,3.3357,3.2963,3.2587,3.221,3.221,3.2056,3.173,3.1679,3.1645,3.1645,3.1593,3.1559,3.1559,3.1559,3.1559,3.1559,3.1559,3.1559,3.1559,3.1559,3.1559,3.1559,3.1559,3.1371,3.1097,3.1028,3.0549,2.9967,2.9915,2.9624,2.9316,2.9316,2.9053,2.8939,2.8939,2.8123,2.7024,2.5977,2.5766,2.5529,2.4843,2.446,2.4093,2.3673,2.3292,2.2927,2.2625,2.2513,2.2291,2.1703,2.1513,2.1338,2.1052,0.0,2.0302,1.972,1.9713,1.9479,1.895,1.9184,1.9477,1.9813,1.9886,2.015,2.0691,2.0764,2.0823,2.0867,2.1452,2.195,2.2315,2.2595,2.2921,2.3551,2.3159,2.3217,2.3543,2.3543,2.3406,2.3133,2.3133,2.3133,2.3133,2.3133,2.2996,2.2996,2.2996,2.2996,2.2859,2.2859,2.2859,2.2996,3.6097,3.6097,3.6097,3.6097,3.6097,3.6097,3.6097,3.6097,3.6097,3.6097,3.6097,3.6097,3.6097,3.6046,3.5994,3.5994,3.5583,3.507,3.4436,3.4333,3.4162,3.3854,3.3785,3.3751,3.3751,3.3374,3.2981,3.2604,3.2604,3.257,3.2501,3.2193,3.2039,3.2022,3.1713,3.1559,3.1559,3.1559,3.1559,3.1559,3.1559,3.1559,3.1559,3.1559,3.1559,3.1559,3.1559,3.1525,3.1422,3.1114,3.072,3.0292,3.0001,2.9624,2.9316,2.9316,2.9316,2.9185,2.9185,2.8493,2.7437,2.6645,2.6191,2.5945,2.5529,2.5011,2.4392,2.4109,2.3467,2.299,2.2942,2.2688,2.245,2.2339,2.183,2.1433,2.137,0.0,2.0395,2.001,1.9849,1.9673,1.9699,1.9652,1.9828,2.0135,2.0413,2.0618,2.072,2.0984,2.1262,2.154,2.1906,2.2389,2.2959,2.3062,2.3174,2.3551,2.342,2.3615,2.3952,2.3952,2.3816,2.3816,2.3816,2.3816,2.3816,2.3816,2.3679,2.327,2.327,2.3133,2.2859,2.2859,2.3133,2.3406,3.709,3.7055,3.6986,3.6759,3.6724,3.6724,3.6724,3.6724,3.6724,3.6724,3.6724,3.6724,3.6724,3.6724,3.6724,3.6724,3.6407,3.5901,3.5348,3.4762,3.4316,3.4145,3.3939,3.3837,3.3837,3.3665,3.3391,3.2998,3.2998,3.2895,3.2672,3.2501,3.2433,3.2415,3.2039,3.1867,3.185,3.1645,3.1559,3.1559,3.1559,3.1559,3.1559,3.1559,3.1559,3.1559,3.1559,3.1559,3.1542,3.1371,3.1063,3.0686,3.0309,2.9932,2.959,2.9367,2.9316,2.9265,2.9076,2.8486,2.7849,2.7085,2.6594,2.6327,2.5961,2.531,2.4768,2.4456,2.3773,2.3244,2.3054,2.2879,2.2704,2.2513,2.2212,0.0,2.1751,2.1486,2.1164,2.0953,2.0635,2.0377,2.0327,2.0126,2.015,2.0472,2.0633,2.0794,2.0969,2.1291,2.1628,2.195,2.2257,2.2637,2.3106,2.3106,2.3301,2.3811,2.3811,2.4026,2.4224,2.4224,2.4224,2.3966,2.3966,2.3966,2.3966,2.3966,2.3816,2.3679,2.3679,2.3679,2.3406,2.3079,2.3229,2.383,3.8163,3.8022,3.7862,3.7561,3.7419,3.7365,3.7365,3.7365,3.7365,3.7365,3.7365,3.7365,3.7365,3.7365,3.7365,3.7365,3.7045,3.6762,3.6465,3.5487,3.4728,3.4402,3.4025,3.3837,3.3837,3.3837,3.37,3.3409,3.3409,3.3254,3.2946,3.2861,3.2826,3.2809,3.2433,3.2261,3.2227,3.185,3.1696,3.1696,3.1593,3.1559,3.1559,3.1559,3.1559,3.1559,3.1559,3.1559,3.1559,3.1559,3.1319,3.0943,3.0549,3.0189,2.9813,2.9436,2.9316,2.9248,2.8974,2.8563,2.8117,2.7452,2.7047,2.6571,2.6327,2.5803,2.5234,2.4838,2.4182,2.3451,2.3181,2.307,2.2927,2.2656,0.0,2.2386,2.2116,2.2005,2.185,2.1634,2.131,2.103,2.0778,2.0464,2.0486,2.0808,2.0837,2.094,2.1203,2.1525,2.1876,2.2271,2.2579,2.2857,2.3106,2.3106,2.3442,2.4086,2.4086,2.4291,2.4645,2.4645,2.451,2.4238,2.4238,2.4238,2.4238,2.4238,2.4238,2.4088,2.4088,2.4088,2.3952,2.3338,2.3624,2.4238,3.85,3.8217,3.7951,3.7933,3.7614,3.7365,3.7365,3.7365,3.7365,3.7365,3.7365,3.7365,3.7365,3.7365,3.7365,3.7365,3.7365,3.7348,3.7312,3.694,3.5904,3.4419,3.4025,3.3837,3.3837,3.3837,3.382,3.3802,3.3802,3.3785,3.3751,3.3391,3.322,3.3203,3.2826,3.2638,3.2621,3.2244,3.209,3.2056,3.1713,3.1559,3.1559,3.1559,3.1559,3.1559,3.1559,3.1559,3.1559,3.1559,3.1319,3.0943,3.0549,3.0189,2.9813,2.9436,2.9316,2.9299,2.9282,2.8734,2.8186,2.8152,2.7604,2.6952,2.6692,2.6285,2.5897,2.5147,2.4477,2.386,2.3499,2.3228,2.3006,2.2974,0.0,0.0,2.245,2.2164,2.185,2.1634,2.131,2.1122,2.1107,2.0914,2.0823,2.1145,2.1174,2.1189,2.1203,2.1525,2.1964,2.2564,2.2901,2.3091,2.3106,2.3106,2.3442,2.4086,2.4086,2.4423,2.5052,2.5052,2.5052,2.5052,2.5052,2.5052,2.5052,2.5052,2.4781,2.4495,2.4495,2.4224,2.3952,2.3952,2.4088,2.451,3.9793,3.9612,3.9359,3.8851,3.8634,3.8435,3.8199,3.8163,3.8163,3.8163,3.8163,3.8163,3.8163,3.8163,3.8163,3.8163,3.7845,3.7845,3.7845,3.7169,3.6131,3.488,3.4194,3.3837,3.3837,3.3837,3.3837,3.3837,3.3837,3.3837,3.3837,3.37,3.3614,3.3614,3.322,3.3049,3.3015,3.2638,3.2347,3.2124,3.197,3.1782,3.1559,3.1559,3.1559,3.1559,3.1559,3.1559,3.1559,3.1559,3.1474,3.1285,3.0909,3.0532,3.0104,2.9487,2.9316,2.9316,2.9316,2.8939,2.8494,2.8254,2.7792,2.7347,2.7003,2.6712,2.6181,2.5605,2.4968,2.4408,2.3626,2.3435,2.3276,2.3054,0.0,2.2815,2.2815,2.2704,2.2609,2.2514,2.218,2.2004,2.1805,2.1481,2.1299,2.1203,2.1203,2.1306,2.1496,2.1993,2.2476,2.2915,2.3047,2.3106,2.3106,2.3106,2.334,2.3779,2.3984,2.432,2.4759,2.4964,2.5052,2.5052,2.5052,2.5052,2.5052,2.5052,2.5052,2.4916,2.4916,2.4781,2.4645,2.4645,2.4781,2.4916,4.0712,4.0565,4.0253,3.9538,3.9318,3.9098,3.8695,3.864,3.864,3.864,3.864,3.864,3.864,3.864,3.864,3.864,3.8322,3.8163,3.8163,3.7467,3.6426,3.5187,3.4602,3.4108,3.3988,3.3837,3.3837,3.3837,3.3837,3.3837,3.3837,3.3837,3.3837,3.3837,3.3563,3.3443,3.3426,3.3032,3.2724,3.2467,3.2371,3.2113,3.2014,3.1893,3.1999,3.1999,3.1999,3.1999,3.1999,3.1841,3.17,3.1632,3.1131,3.0669,3.0138,2.9504,2.9316,2.9316,2.9316,2.9128,2.8819,2.8323,2.7895,2.7518,2.7158,2.6952,2.6624,2.6011,2.5518,2.5033,2.4194,2.3689,2.3467,2.3228,2.3085,2.3022,2.3022,2.3022,2.3022,2.3022,2.2796,2.2456,2.2116,2.1888,2.1561,2.1203,2.1306,2.154,2.1964,2.2389,2.2769,2.3091,2.3106,2.3106,2.3106,2.3106,2.3267,2.3603,2.3925,2.4247,2.4583,2.4905,2.5052,2.5052,2.5052,2.5052,2.5052,2.5052,2.5052,2.5052,2.5052,2.5052,2.5052,2.5052,2.5052,2.5052,4.106,4.0749,4.0345,3.9923,3.9502,3.9098,3.8695,3.864,3.864,3.864,3.864,3.864,3.864,3.864,3.864,3.864,3.864,3.864,3.864,3.7783,3.6893,3.5663,3.5152,3.4824,3.4458,3.3988,3.3837,3.3837,3.3837,3.3837,3.3837,3.3837,3.3837,3.3837,3.3837,3.3837,3.382,3.3443,3.3272,3.3203,3.2884,3.2715,3.2663,3.272,3.2701,3.2701,3.2701,3.2701,3.2701,3.2263,3.2105,3.2036,3.127,3.0498,2.983,2.9436,2.9316,2.9316,2.9316,2.9316,2.9128,2.8391,2.7895,2.7518,2.7158,2.7073,2.6952,2.6692,2.6044,2.5436,2.5196,2.4258,2.3546,2.3546,2.3244,2.3022,2.3022,2.3022,2.3022,2.3022,2.2796,2.2456,2.2116,2.1888,2.1561,2.1218,2.1525,2.1979,2.2593,2.2623,2.2769,2.3091,2.3106,2.3106,2.3106,2.3106,2.3267,2.3588,2.3925,2.4247,2.4583,2.4905,2.5052,2.5052,2.5052,2.5052,2.5052,2.5052,2.5052,2.5052,2.5052,2.5052,2.5052,2.5052,2.5052,2.5052,4.106,4.0969,4.0657,3.9942,3.974,3.9428,3.875,3.864,3.864,3.864,3.864,3.864,3.864,3.864,3.864,3.864,3.864,3.864,3.864,3.8371,3.7904,3.7376,3.6047,3.5252,3.4842,3.4429,3.4139,3.3837,3.3837,3.3837,3.3837,3.3837,3.3837,3.3837,3.3837,3.3837,3.3837,3.4018,3.396,3.3665,3.3617,3.3391,3.3091,3.2861,3.2701,3.2701,3.2701,3.2701,3.2701,3.2561,3.2561,3.2351,3.1687,3.0943,3.0189,2.983,2.9521,2.9316,2.9316,2.9316,2.9196,2.8717,2.8306,2.7912,2.7535,2.7261,2.6952,2.6692,2.6486,2.6094,2.5228,2.4898,2.4354,2.3626,2.3451,2.3292,2.3054,2.3022,2.3022,2.3022,2.2909,2.2796,2.2456,2.2116,2.1979,2.1873,2.2156,2.2418,2.2608,2.2842,2.3003,2.3106,2.3106,2.3106,2.3106,2.3106,2.3164,2.3267,2.3823,2.413,2.4247,2.4803,2.5052,2.5052,2.5052,2.5052,2.5052,2.5052,2.5052,2.5052,2.5052,2.5052,2.5052,2.5052,2.5052,2.5052,4.106,4.0932,4.062,3.9942,3.9703,3.9392,3.8731,3.864,3.864,3.864,3.864,3.864,3.864,3.864,3.864,3.864,3.864,3.864,3.864,3.864,3.853,3.8273,3.7185,3.6236,3.5457,3.5076,3.4598,3.3988,3.3988,3.3988,3.3837,3.3837,3.3837,3.3837,3.3988,3.3988,3.3988,3.4423,3.4584,3.4338,3.4409,3.4162,3.375,3.3498,3.3264,3.3121,3.3121,3.3121,3.3121,3.2981,3.2841,3.263,3.1964,3.1286,3.0632,3.0269,2.9739,2.9316,2.9316,2.9316,2.9265,2.9042,2.8597,2.8083,2.7689,2.733,2.7073,2.683,2.6692,2.6382,2.5682,2.5277,2.4811,2.4023,2.3832,2.3626,2.3276,2.3228,2.3181,2.3038,2.3022,2.2909,2.2683,2.258,2.2513,2.2498,2.2524,2.2681,2.2813,2.3003,2.3106,2.3106,2.3106,2.3106,2.3106,2.3106,2.3106,2.312,2.3764,2.4086,2.4101,2.4759,2.5052,2.5052,2.5052,2.5052,2.5052,2.5052,2.5052,2.5052,2.5052,2.5052,2.5052,2.5052,2.5052,2.5052,4.1005,4.0712,4.0327,3.9868,3.9483,3.9098,3.8695,3.864,3.864,3.864,3.864,3.864,3.864,3.864,3.864,3.864,3.864,3.864,3.864,3.864,3.864,3.864,3.8273,3.755,3.629,3.5932,3.5281,3.4441,3.4441,3.429,3.3837,3.3837,3.3837,3.3988,3.429,3.4441,3.4441,3.4857,3.5007,3.5121,3.5025,3.4793,3.4415,3.4427,3.4147,3.3817,3.3817,3.3817,3.3817,3.34,3.3139,3.2648,3.2276,3.1714,3.0903,3.0554,2.9889,2.9316,2.9316,2.9316,2.9316,2.9316,2.8768,2.8152,2.7741,2.7381,2.7107,2.7073,2.683,2.6571,2.6205,2.5561,2.5108,2.4699,2.4309,2.3975,2.3642,2.3594,2.3467,2.3149,2.3117,2.2988,2.2777,2.2975,2.3191,2.3066,2.2896,2.2798,2.3091,2.3106,2.3106,2.3106,2.3106,2.3106,2.3106,2.3106,2.3106,2.312,2.3735,2.4057,2.4101,2.473,2.5022,2.5052,2.5052,2.5052,2.5052,2.5052,2.5052,2.5052,2.5052,2.5052,2.5052,2.5052,2.5052,2.5052,4.0657,4.0529,4.0235,3.9502,3.93,3.9098,3.8695,3.864,3.864,3.864,3.864,3.864,3.864,3.864,3.864,3.864,3.864,3.864,3.864,3.864,3.864,3.864,3.8548,3.8126,3.7166,3.6381,3.5718,3.4857,3.4857,3.4857,3.4707,3.4707,3.4707,3.4707,3.4857,3.4857,3.4857,3.5306,3.5456,3.542,3.5485,3.523,3.4847,3.4568,3.4147,3.3817,3.3817,3.3817,3.3817,3.3678,3.34,3.3121,3.3031,3.2236,3.1378,3.1003,3.0362,2.9691,2.9316,2.9316,2.9316,2.9316,2.8974,2.8545,2.8152,2.7775,2.7415,2.7124,2.7073,2.6952,2.6571,2.6139,2.5748,2.5108,2.4755,2.4341,2.3991,2.3943,2.3912,2.3832,2.3832,2.3832,2.3832,2.3794,2.3685,2.3095,2.3227,2.3281,2.3106,2.3106,2.3106,2.3106,2.3106,2.3106,2.3106,2.3106,2.3106,2.3106,2.3515,2.3837,2.4101,2.4496,2.4818,2.5052,2.5052,2.5052,2.5052,2.5052,2.5052,2.5052,2.5052,2.5052,2.5052,2.5052,2.5052,2.5052,4.0913,4.067,4.0391,3.9943,3.972,3.9515,3.931,3.9114,3.8956,3.8956,3.8798,3.864,3.864,3.864,3.864,3.864,3.864,3.864,3.864,3.864,3.864,3.864,3.8456,3.8053,3.7448,3.674,3.602,3.5306,3.5306,3.5157,3.5007,3.5007,3.5007,3.5007,3.5157,3.5306,3.5306,3.5754,3.5903,3.5885,3.5833,3.5559,3.5009,3.4788,3.433,3.3817,3.3817,3.3817,3.3817,3.3817,3.3678,3.3539,3.3539,3.2719,3.1801,3.1531,3.0698,2.9805,2.9561,2.943,2.9316,2.9316,2.9179,2.8888,2.8323,2.7895,2.7501,2.7141,2.7073,2.6952,2.6692,2.6327,2.5896,2.5473,2.5076,2.4706,2.4356,2.4309,2.4245,2.407,2.4055,2.4118,2.4293,2.4228,2.3916,2.358,2.3638,2.3479,2.3106,2.3106,2.3106,2.3106,2.3106,2.3106,2.3106,2.3106,2.3106,2.3106,2.3442,2.3691,2.3866,2.4349,2.4657,2.4832,2.4993,2.5052,2.5052,2.5052,2.5187,2.5322,2.5322,2.5472,2.5592,2.5278,2.5292,2.5592,4.1133,4.0773,4.0489,4.0413,4.0129,3.9902,3.9902,3.9588,3.943,3.943,3.8956,3.8798,3.8798,3.864,3.864,3.864,3.864,3.8603,3.853,3.853,3.8511,3.8438,3.8108,3.7723,3.7338,3.7007,3.6472,3.5754,3.5754,3.5605,3.5157,3.5157,3.5157,3.5157,3.5605,3.5754,3.5754,3.6052,3.6201,3.6201,3.6127,3.5669,3.5027,3.4954,3.4458,3.3817,3.3817,3.3817,3.3817,3.3817,3.3817,3.3817,3.3817,3.3029,3.2295,3.2088,3.1149,3.004,2.997,2.9691,2.9447,2.9447,2.9299,2.9128,2.846,2.798,2.7604,2.7244,2.7124,2.7073,2.6709,2.6449,2.6083,2.5733,2.5349,2.513,2.4706,2.4674,2.4563,2.4261,2.4229,2.4341,2.4642,2.4432,2.4299,2.4209,2.3852,2.3479,2.323,2.3106,2.3106,2.3106,2.3106,2.3106,2.3106,2.3106,2.3106,2.3106,2.3384,2.3545,2.3618,2.4218,2.451,2.4583,2.5055,2.5187,2.5187,2.5187,2.5457,2.5742,2.5742,2.5876,2.5996,2.5517,2.5682,2.6295,4.0697,4.0546,4.0413,4.0054,3.994,3.9902,3.9902,3.9902,3.9745,3.9745,3.943,3.9272,3.9272,3.8798,3.864,3.864,3.864,3.8493,3.8126,3.8089,3.7943,3.7613,3.7539,3.7319,3.6916,3.6861,3.6622,3.6052,3.6052,3.6052,3.6052,3.6052,3.6052,3.6052,3.6052,3.6052,3.6052,3.6201,3.6201,3.6182,3.5834,3.543,3.499,3.4623,3.4202,3.3817,3.3817,3.3817,3.3817,3.3817,3.3817,3.3817,3.3817,3.3505,3.2947,3.2313,3.1763,3.1067,3.0467,3.0083,2.9691,2.9691,2.9561,2.9196,2.8802,2.8391,2.7997,2.7621,2.7278,2.7073,2.7073,2.6709,2.6449,2.6083,2.5717,2.5472,2.504,2.504,2.5024,2.4976,2.496,2.4992,2.504,2.504,2.481,2.461,2.4239,2.3867,2.3604,2.323,2.3106,2.3106,2.3106,2.3106,2.3106,2.3106,2.3106,2.3106,2.3149,2.3325,2.3603,2.3984,2.4305,2.4583,2.5323,2.5457,2.5592,2.5876,2.6011,2.6011,2.6011,2.6011,2.6145,2.5996,2.646,2.6941,4.0894,4.0817,4.0917,4.0723,4.0704,4.0704,4.0704,4.0372,4.0216,4.0216,3.9902,3.9512,3.9268,3.8732,3.8117,3.7961,3.7961,3.7888,3.7704,3.7686,3.7613,3.7429,3.7209,3.7007,3.6842,3.6604,3.6402,3.6201,3.6201,3.6201,3.6201,3.6201,3.6201,3.6201,3.6201,3.6201,3.6201,3.6201,3.6201,3.6182,3.5779,3.5375,3.499,3.4568,3.4147,3.3817,3.3817,3.3817,3.3817,3.3817,3.3817,3.3817,3.3817,3.3541,3.3138,3.2582,3.1914,3.1384,3.0858,3.0361,3.01,2.9822,2.9691,2.9526,2.9111,2.8785,2.834,2.7723,2.7484,2.7313,2.7107,2.683,2.6571,2.6449,2.5961,2.561,2.5365,2.5226,2.5103,2.5103,2.5103,2.5103,2.5103,2.5103,2.498,2.461,2.4487,2.4115,2.3604,2.3479,2.323,2.3106,2.3106,2.3106,2.3106,2.3106,2.3106,2.3106,2.3106,2.3179,2.334,2.3662,2.401,2.4316,2.5099,2.5456,2.5604,2.5935,2.6264,2.6398,2.6398,2.6532,2.6666,2.6666,2.6965,2.7146]}]]